[[{"header":{"parameterUnit":"m.s-1","parameterCategory":1,"la1":30.6,"la2":28.766,"lo1":-90.7593,"lo2":-88.6598,"dy":0.0162,"dx":0.0183,"nx":116,"ny":114,"refTime":"2023-03-10T06:00:00:Z","depth":0,"parameterNumber":2,"parameterNumberName":"U-component_of_WINDS"},"data":[0.0,0.0,0.0,0.0,0.0,0.0,0.0,0.0,0.0,0.0,0.0,0.0,0.0,0.0,0.0,0.0,0.0,0.0,0.0,0.0,0.0,0.0,0.0,0.0,0.0,0.0,0.0,0.0,0.0,0.0,0.0,0.0,0.0,0.0,0.0,0.0,0.0,0.0,0.0,0.0,0.0,0.0,0.0,0.0,0.0,0.0,0.0,0.0,0.0,0.0,0.0,0.0,0.0,0.0,0.0,0.0,0.0,0.0,0.0,0.0,0.0,0.0,0.0,0.0,0.0,0.0,0.0,0.0,0.0,0.0,0.0,0.0,0.0,0.0,0.0,0.0,0.0,0.0,0.0,0.0,0.0,0.0,0.0,0.0,0.0,0.0,0.0,0.0,0.0,0.0,0.0,0.0,0.0,0.0,0.0,0.0,0.0,0.0,0.0,0.0,0.0,0.0,0.0,0.0,0.0,0.0,0.0,0.0,0.0,0.0,0.0,0.0,0.0,0.0,0.0,0.0,0.0,0.0,0.0,0.0,0.0,0.0,0.0,0.0,0.0,0.0,0.0,0.0,0.0,0.0,0.0,0.0,0.0,0.0,0.0,0.0,0.0,0.0,0.0,0.0,0.0,0.0,0.0,0.0,0.0,0.0,0.0,0.0,0.0,0.0,0.0,0.0,0.0,0.0,0.0,0.0,0.0,0.0,0.0,0.0,0.0,0.0,0.0,0.0,0.0,0.0,0.0,0.0,0.0,0.0,0.0,0.0,0.0,0.0,0.0,0.0,0.0,0.0,0.0,0.0,0.0,0.0,0.0,0.0,0.0,0.0,0.0,0.0,0.0,0.0,0.0,0.0,0.0,0.0,0.0,0.0,0.0,0.0,0.0,0.0,0.0,0.0,0.0,0.0,0.0,0.0,0.0,0.0,0.0,0.0,0.0,0.0,0.0,0.0,0.0,0.0,0.0,0.0,0.0,0.0,0.0,0.0,0.0,0.0,0.0,0.0,0.0,0.0,0.0,0.0,0.0,0.0,0.0,0.0,0.0,0.0,0.0,0.0,0.0,0.0,0.0,0.0,0.0,0.0,0.0,0.0,0.0,0.0,0.0,0.0,0.0,0.0,0.0,0.0,0.0,0.0,0.0,0.0,0.0,0.0,0.0,0.0,0.0,0.0,0.0,0.0,0.0,0.0,0.0,0.0,0.0,0.0,0.0,0.0,0.0,0.0,0.0,0.0,0.0,0.0,0.0,0.0,0.0,0.0,0.0,0.0,0.0,0.0,0.0,0.0,0.0,0.0,0.0,0.0,0.0,0.0,0.0,0.0,0.0,0.0,0.0,0.0,0.0,0.0,0.0,0.0,0.0,0.0,0.0,0.0,0.0,0.0,0.0,0.0,0.0,0.0,0.0,0.0,0.0,0.0,0.0,0.0,0.0,0.0,0.0,0.0,0.0,0.0,0.0,0.0,0.0,0.0,0.0,0.0,0.0,0.0,0.0,0.0,0.0,0.0,0.0,0.0,0.0,0.0,0.0,0.0,0.0,0.0,0.0,0.0,0.0,0.0,0.0,0.0,0.0,0.0,0.0,0.0,0.0,0.0,0.0,0.0,0.0,0.0,0.0,0.0,0.0,0.0,0.0,0.0,0.0,0.0,0.0,0.0,0.0,0.0,0.0,0.0,0.0,0.0,0.0,0.0,0.0,0.0,0.0,0.0,0.0,0.0,0.0,0.0,0.0,0.0,0.0,0.0,0.0,0.0,0.0,0.0,0.0,0.0,0.0,0.0,0.0,0.0,0.0,0.0,0.0,0.0,0.0,0.0,0.0,0.0,0.0,0.0,0.0,0.0,0.0,0.0,0.0,0.0,0.0,0.0,0.0,0.0,0.0,0.0,0.0,0.0,0.0,0.0,0.0,0.0,0.0,0.0,0.0,0.0,0.0,0.0,0.0,0.0,0.0,0.0,0.0,0.0,0.0,0.0,0.0,0.0,0.0,0.0,0.0,0.0,0.0,0.0,0.0,0.0,0.0,0.0,0.0,0.0,0.0,0.0,0.0,0.0,0.0,0.0,0.0,0.0,0.0,0.0,0.0,0.0,0.0,0.0,0.0,0.0,0.0,0.0,0.0,0.0,0.0,0.0,0.0,0.0,0.0,0.0,0.0,0.0,0.0,0.0,0.0,0.0,0.0,0.0,0.0,0.0,0.0,0.0,0.0,0.0,0.0,0.0,0.0,0.0,0.0,0.0,0.0,0.0,0.0,0.0,0.0,0.0,0.0,0.0,0.0,0.0,0.0,0.0,0.0,0.0,0.0,0.0,0.0,0.0,0.0,0.0,0.0,0.0,0.0,0.0,0.0,0.0,0.0,0.0,0.0,0.0,0.0,0.0,0.0,0.0,0.0,0.0,0.0,0.0,0.0,0.0,0.0,0.0,0.0,0.0,0.0,0.0,0.0,0.0,0.0,0.0,0.0,0.0,0.0,0.0,0.0,0.0,0.0,0.0,0.0,0.0,0.0,0.0,0.0,0.0,0.0,0.0,0.0,0.0,0.0,0.0,0.0,0.0,0.0,0.0,0.0,0.0,0.0,0.0,0.0,0.0,0.0,0.0,0.0,0.0,0.0,0.0,0.0,0.0,0.0,0.0,0.0,0.0,0.0,0.0,0.0,0.0,0.0,0.0,0.0,0.0,0.0,0.0,0.0,0.0,0.0,0.0,0.0,0.0,0.0,0.0,0.0,0.0,0.0,0.0,0.0,0.0,0.0,0.0,0.0,0.0,0.0,0.0,0.0,0.0,0.0,0.0,0.0,0.0,0.0,0.0,0.0,0.0,0.0,0.0,0.0,0.0,0.0,0.0,0.0,0.0,0.0,0.0,0.0,0.0,0.0,0.0,0.0,0.0,0.0,0.0,0.0,0.0,0.0,0.0,0.0,0.0,0.0,0.0,0.0,0.0,0.0,0.0,0.0,0.0,0.0,0.0,0.0,0.0,0.0,0.0,0.0,0.0,0.0,0.0,0.0,0.0,0.0,0.0,0.0,0.0,0.0,0.0,0.0,0.0,0.0,0.0,0.0,0.0,0.0,0.0,0.0,0.0,0.0,0.0,0.0,0.0,0.0,0.0,0.0,0.0,0.0,0.0,0.0,0.0,0.0,0.0,0.0,0.0,0.0,0.0,0.0,0.0,0.0,0.0,0.0,0.0,0.0,0.0,0.0,0.0,0.0,0.0,0.0,0.0,0.0,0.0,0.0,0.0,0.0,0.0,0.0,0.0,0.0,0.0,0.0,0.0,0.0,0.0,0.0,0.0,0.0,0.0,0.0,0.0,0.0,0.0,0.0,0.0,0.0,0.0,0.0,0.0,0.0,0.0,0.0,0.0,0.0,0.0,0.0,0.0,0.0,0.0,0.0,0.0,0.0,0.0,0.0,0.0,0.0,0.0,0.0,0.0,0.0,0.0,0.0,0.0,0.0,0.0,0.0,0.0,0.0,0.0,0.0,0.0,0.0,0.0,0.0,0.0,0.0,0.0,0.0,0.0,0.0,0.0,0.0,0.0,0.0,0.0,0.0,0.0,0.0,0.0,0.0,0.0,0.0,0.0,0.0,0.0,0.0,0.0,0.0,0.0,0.0,0.0,0.0,0.0,0.0,0.0,0.0,0.0,0.0,0.0,0.0,0.0,0.0,0.0,0.0,0.0,0.0,0.0,0.0,0.0,0.0,0.0,0.0,0.0,0.0,0.0,0.0,0.0,0.0,0.0,0.0,0.0,0.0,0.0,0.0,0.0,0.0,0.0,0.0,0.0,0.0,0.0,0.0,0.0,0.0,0.0,0.0,0.0,0.0,0.0,0.0,0.0,0.0,0.0,0.0,0.0,0.0,0.0,0.0,0.0,0.0,0.0,0.0,0.0,0.0,0.0,0.0,0.0,0.0,0.0,0.0,0.0,0.0,0.0,0.0,0.0,0.0,0.0,0.0,0.0,0.0,0.0,0.0,0.0,0.0,0.0,0.0,0.0,0.0,0.0,0.0,0.0,0.0,0.0,0.0,0.0,0.0,0.0,0.0,0.0,0.0,0.0,0.0,0.0,0.0,0.0,0.0,0.0,0.0,0.0,0.0,0.0,0.0,0.0,0.0,0.0,0.0,0.0,0.0,0.0,0.0,0.0,0.0,0.0,0.0,0.0,0.0,0.0,0.0,0.0,0.0,0.0,0.0,0.0,0.0,0.0,0.0,0.0,0.0,0.0,0.0,0.0,0.0,0.0,0.0,0.0,0.0,0.0,0.0,0.0,0.0,0.0,0.0,0.0,0.0,0.0,0.0,0.0,0.0,0.0,0.0,0.0,0.0,0.0,0.0,0.0,0.0,0.0,0.0,0.0,0.0,0.0,0.0,0.0,0.0,0.0,0.0,0.0,0.0,0.0,0.0,0.0,0.0,0.0,0.0,0.0,0.0,0.0,0.0,0.0,0.0,0.0,0.0,0.0,0.0,0.0,0.0,0.0,0.0,0.0,0.0,0.0,0.0,0.0,0.0,0.0,0.0,0.0,0.0,0.0,0.0,0.0,0.0,0.0,0.0,0.0,0.0,0.0,0.0,0.0,0.0,0.0,0.0,0.0,0.0,0.0,0.0,0.0,0.0,0.0,0.0,0.0,0.0,0.0,0.0,0.0,0.0,0.0,0.0,0.0,0.0,0.0,0.0,0.0,0.0,0.0,0.0,0.0,0.0,0.0,0.0,0.0,0.0,0.0,0.0,0.0,0.0,0.0,0.0,0.0,0.0,0.0,0.0,0.0,0.0,0.0,0.0,0.0,0.0,0.0,0.0,0.0,0.0,0.0,0.0,0.0,0.0,0.0,0.0,0.0,0.0,0.0,0.0,0.0,0.0,0.0,0.0,0.0,0.0,0.0,0.0,0.0,0.0,0.0,0.0,0.0,0.0,0.0,0.0,0.0,0.0,0.0,0.0,0.0,0.0,0.0,0.0,0.0,0.0,0.0,0.0,0.0,0.0,0.0,0.0,0.0,0.0,0.0,0.0,0.0,0.0,0.0,0.0,0.0,0.0,0.0,0.0,0.0,0.0,0.0,0.0,0.0,0.0,0.0,0.0,0.0,0.0,0.0,0.0,0.0,0.0,0.0,0.0,0.0,0.0,0.0,0.0,0.0,0.0,0.0,0.0,0.0,0.0,0.0,0.0,0.0,0.0,0.0,0.0,0.0,0.0,0.0,0.0,0.0,0.0,0.0,0.0,0.0,0.0,0.0,0.0,0.0,0.0,0.0,0.0,0.0,0.0,0.0,0.0,0.0,0.0,0.0,0.0,0.0,0.0,0.0,0.0,0.0,0.0,0.0,0.0,0.0,0.0,0.0,0.0,0.0,0.0,0.0,0.0,0.0,0.0,0.0,0.0,0.0,0.0,0.0,0.0,0.0,0.0,0.0,0.0,0.0,0.0,0.0,0.0,0.0,0.0,0.0,0.0,0.0,0.0,0.0,0.0,0.0,0.0,0.0,0.0,0.0,0.0,0.0,0.0,0.0,0.0,0.0,0.0,0.0,0.0,0.0,0.0,0.0,0.0,0.0,0.0,0.0,0.0,0.0,0.0,0.0,0.0,0.0,0.0,0.0,0.0,0.0,0.0,0.0,0.0,0.0,0.0,0.0,0.0,0.0,0.0,0.0,0.0,0.0,0.0,0.0,0.0,0.0,0.0,0.0,0.0,0.0,0.0,0.0,0.0,0.0,0.0,0.0,0.0,0.0,0.0,0.0,0.0,0.0,0.0,0.0,0.0,0.0,0.0,0.0,0.0,0.0,0.0,0.0,0.0,0.0,0.0,0.0,0.0,0.0,0.0,0.0,0.0,0.0,0.0,0.0,0.0,0.0,0.0,0.0,0.0,0.0,0.0,0.0,0.0,0.0,0.0,0.0,0.0,0.0,0.0,0.0,0.0,0.0,0.0,0.0,0.0,0.0,0.0,0.0,0.0,0.0,0.0,0.0,0.0,0.0,0.0,0.0,0.0,0.0,0.0,0.0,0.0,0.0,0.0,0.0,0.0,0.0,0.0,0.0,0.0,0.0,0.0,0.0,0.0,0.0,0.0,0.0,0.0,0.0,6.9843,7.0152,0.0,0.0,0.0,0.0,0.0,0.0,0.0,0.0,0.0,0.0,0.0,0.0,0.0,0.0,0.0,0.0,0.0,0.0,0.0,0.0,0.0,0.0,0.0,0.0,0.0,0.0,0.0,0.0,0.0,0.0,0.0,0.0,0.0,0.0,0.0,0.0,0.0,0.0,0.0,0.0,0.0,0.0,0.0,0.0,0.0,0.0,0.0,0.0,0.0,0.0,0.0,0.0,0.0,0.0,0.0,0.0,0.0,0.0,0.0,0.0,0.0,0.0,0.0,0.0,0.0,0.0,0.0,0.0,0.0,0.0,0.0,0.0,0.0,0.0,0.0,0.0,0.0,0.0,0.0,0.0,0.0,0.0,0.0,0.0,0.0,0.0,0.0,0.0,0.0,0.0,0.0,0.0,0.0,0.0,0.0,0.0,0.0,0.0,0.0,0.0,0.0,0.0,0.0,0.0,0.0,0.0,0.0,0.0,0.0,0.0,0.0,0.0,0.0,0.0,7.0251,7.0388,0.0,0.0,0.0,0.0,0.0,0.0,0.0,0.0,0.0,0.0,0.0,0.0,0.0,0.0,0.0,0.0,0.0,0.0,0.0,0.0,0.0,0.0,0.0,0.0,0.0,0.0,0.0,0.0,0.0,0.0,0.0,0.0,0.0,0.0,0.0,0.0,0.0,0.0,0.0,0.0,0.0,0.0,0.0,0.0,0.0,0.0,0.0,0.0,0.0,0.0,0.0,0.0,0.0,0.0,0.0,0.0,0.0,0.0,0.0,0.0,0.0,0.0,0.0,0.0,0.0,0.0,0.0,0.0,0.0,0.0,0.0,0.0,0.0,0.0,0.0,0.0,0.0,0.0,0.0,0.0,0.0,0.0,0.0,0.0,0.0,0.0,0.0,0.0,0.0,0.0,0.0,0.0,0.0,0.0,0.0,0.0,0.0,0.0,0.0,0.0,0.0,0.0,0.0,0.0,0.0,0.0,0.0,0.0,7.1066,7.1063,7.1098,7.1214,7.0905,7.0264,7.0986,7.0813,7.0078,7.0771,0.0,0.0,0.0,0.0,0.0,0.0,0.0,0.0,0.0,0.0,0.0,0.0,0.0,0.0,0.0,0.0,0.0,0.0,0.0,0.0,0.0,0.0,0.0,0.0,0.0,0.0,0.0,0.0,0.0,0.0,0.0,0.0,0.0,0.0,0.0,0.0,0.0,0.0,0.0,0.0,0.0,0.0,0.0,0.0,0.0,0.0,0.0,0.0,0.0,0.0,0.0,0.0,0.0,0.0,0.0,0.0,0.0,0.0,0.0,0.0,0.0,0.0,0.0,0.0,0.0,0.0,0.0,0.0,0.0,0.0,0.0,0.0,0.0,0.0,0.0,0.0,0.0,0.0,0.0,0.0,0.0,0.0,0.0,0.0,0.0,0.0,7.1291,7.1291,0.0,0.0,0.0,0.0,0.0,0.0,0.0,0.0,0.0,0.0,0.0,0.0,0.0,7.1239,7.1137,7.0496,7.0148,7.017,7.017,7.0148,7.0187,7.0943,7.1253,7.1137,7.1253,0.0,7.0015,7.0109,0.0,0.0,0.0,0.0,0.0,0.0,0.0,0.0,0.0,0.0,0.0,0.0,0.0,0.0,0.0,0.0,0.0,0.0,0.0,0.0,0.0,0.0,0.0,0.0,0.0,0.0,0.0,0.0,0.0,0.0,0.0,0.0,0.0,0.0,0.0,0.0,0.0,0.0,0.0,0.0,0.0,0.0,0.0,0.0,0.0,0.0,0.0,0.0,0.0,0.0,0.0,0.0,0.0,0.0,0.0,0.0,0.0,0.0,0.0,0.0,0.0,0.0,0.0,0.0,0.0,0.0,0.0,0.0,0.0,0.0,0.0,0.0,0.0,0.0,0.0,0.0,0.0,0.0,0.0,0.0,0.0,0.0,0.0,0.0,0.0,7.1291,7.1291,7.1291,7.1291,7.1291,0.0,0.0,0.0,0.0,0.0,0.0,0.0,0.0,0.0,7.0032,7.0849,7.1042,7.0573,7.0672,7.075,7.075,7.075,7.075,7.075,7.1137,7.1291,7.1291,7.1291,7.1098,7.075,7.075,7.0982,7.1291,0.0,0.0,0.0,0.0,7.1291,7.1291,0.0,0.0,0.0,0.0,0.0,0.0,0.0,0.0,0.0,0.0,0.0,0.0,0.0,0.0,0.0,6.8203,0.0,0.0,0.0,0.0,0.0,0.0,0.0,0.0,0.0,0.0,0.0,0.0,0.0,0.0,0.0,0.0,0.0,0.0,0.0,0.0,0.0,0.0,0.0,0.0,0.0,0.0,0.0,0.0,0.0,0.0,0.0,0.0,0.0,0.0,0.0,0.0,0.0,0.0,0.0,0.0,0.0,0.0,0.0,0.0,0.0,0.0,0.0,0.0,0.0,0.0,0.0,0.0,0.0,0.0,0.0,0.0,0.0,0.0,0.0,0.0,0.0,7.1291,7.1291,7.1291,7.1291,7.1291,0.0,0.0,0.0,0.0,0.0,0.0,6.9993,7.0831,7.0909,7.0032,7.0866,7.0982,7.0341,7.0982,7.1291,7.1291,7.133,7.133,7.133,7.1369,7.1369,7.133,7.133,7.133,7.1291,7.1291,7.1291,7.1291,7.1291,7.1291,7.1291,7.1291,7.1291,7.1291,0.0,0.0,0.0,0.0,0.0,0.0,0.0,0.0,0.0,0.0,0.0,0.0,0.0,0.0,6.8203,6.8203,6.8984,6.914,0.0,0.0,0.0,0.0,0.0,0.0,0.0,0.0,0.0,0.0,0.0,0.0,0.0,0.0,0.0,0.0,0.0,0.0,0.0,0.0,0.0,0.0,0.0,0.0,0.0,0.0,0.0,0.0,0.0,0.0,0.0,0.0,0.0,0.0,0.0,0.0,0.0,0.0,0.0,0.0,0.0,0.0,0.0,0.0,0.0,0.0,0.0,0.0,0.0,0.0,0.0,0.0,0.0,0.0,0.0,0.0,0.0,0.0,0.0,0.0,0.0,7.1291,7.1291,0.0,0.0,0.0,0.0,7.1221,7.1221,7.0891,7.0032,7.0827,7.0905,7.0032,7.0866,7.1291,7.1253,7.1291,7.1291,7.1291,7.1407,7.1485,7.1485,7.1601,7.1601,7.1485,7.1485,7.1407,7.1291,7.1291,7.1291,7.1291,7.1291,7.1291,7.1291,7.1291,7.1291,7.1291,0.0,0.0,0.0,0.0,0.0,0.0,0.0,0.0,0.0,0.0,0.0,0.0,0.0,6.8125,6.9219,6.9765,7.0625,7.0742,6.9883,0.0,0.0,0.0,0.0,0.0,0.0,0.0,0.0,0.0,0.0,0.0,0.0,0.0,0.0,0.0,0.0,0.0,0.0,0.0,0.0,0.0,0.0,0.0,0.0,0.0,0.0,0.0,0.0,0.0,0.0,0.0,0.0,0.0,0.0,0.0,0.0,0.0,0.0,0.0,0.0,0.0,0.0,0.0,0.0,0.0,0.0,0.0,0.0,0.0,0.0,0.0,0.0,0.0,0.0,0.0,0.0,0.0,0.0,0.0,0.0,7.1214,7.1291,0.0,7.1291,7.0789,7.0479,7.0462,7.0462,7.0324,7.0032,7.0827,7.1214,7.0982,7.1253,7.1446,7.1562,7.1562,7.1562,7.1562,7.1601,7.162,7.1628,7.1589,7.155,7.1503,7.1413,7.133,7.1291,7.1291,7.1291,7.1291,7.1291,7.1291,7.1291,7.1291,7.1291,7.1291,0.0,0.0,0.0,0.0,0.0,0.0,0.0,0.0,0.0,0.0,0.0,6.6055,6.7226,6.8555,6.9765,7.0625,7.1484,7.1523,7.0351,0.0,0.0,0.0,0.0,0.0,0.0,0.0,0.0,0.0,0.0,0.0,0.0,0.0,0.0,0.0,0.0,0.0,0.0,0.0,0.0,0.0,0.0,0.0,6.8594,0.0,0.0,0.0,0.0,0.0,0.0,0.0,0.0,0.0,0.0,0.0,0.0,0.0,0.0,0.0,0.0,0.0,0.0,0.0,0.0,0.0,0.0,0.0,0.0,0.0,0.0,0.0,0.0,0.0,0.0,0.0,0.0,0.0,0.0,7.0634,7.0672,7.1214,7.1291,7.1291,7.1291,7.0789,7.0419,7.0419,7.0457,7.0496,7.0496,7.1098,7.1485,7.1562,7.1564,7.1612,7.169,7.169,7.169,7.169,7.1729,7.175,7.1719,7.168,7.163,7.155,7.1452,7.1369,7.1291,7.1291,7.1291,7.1291,7.1291,7.1291,7.1291,7.1291,7.1291,7.1291,0.0,0.0,0.0,0.0,0.0,0.0,0.0,0.0,0.0,0.0,6.5039,6.6211,6.8008,6.8906,6.9765,7.0664,7.1523,7.1289,6.9531,6.9414,0.0,0.0,0.0,0.0,0.0,0.0,0.0,0.0,0.0,0.0,0.0,0.0,0.0,0.0,0.0,0.0,0.0,0.0,0.0,0.0,0.0,0.0,6.9375,0.0,0.0,0.0,0.0,0.0,0.0,0.0,0.0,0.0,0.0,0.0,0.0,0.0,0.0,0.0,0.0,0.0,0.0,0.0,0.0,0.0,0.0,0.0,0.0,0.0,0.0,0.0,0.0,0.0,0.0,0.0,0.0,0.0,6.9962,7.0733,7.1291,7.1291,7.1291,7.1291,7.1291,7.1291,7.1291,7.1291,7.1407,7.1507,7.1489,7.1605,7.1683,7.1683,7.1714,7.1719,7.1719,7.1719,7.1719,7.1719,7.1797,7.1797,7.1797,7.1953,7.1901,7.1683,7.17,7.1523,7.1291,7.1291,7.1291,7.1291,7.1291,7.1291,7.1291,7.1291,7.1291,7.1291,0.0,0.0,0.0,0.0,0.0,0.0,0.0,0.0,0.0,0.0,6.4101,6.5547,6.793,6.8906,7.0,7.1523,7.1875,7.1523,7.043,0.0,0.0,0.0,0.0,0.0,0.0,0.0,0.0,0.0,0.0,0.0,0.0,0.0,0.0,0.0,0.0,0.0,0.0,0.0,0.0,0.0,0.0,0.0,7.0312,0.0,0.0,0.0,0.0,0.0,0.0,0.0,0.0,0.0,0.0,0.0,0.0,0.0,0.0,0.0,0.0,0.0,0.0,0.0,0.0,0.0,0.0,0.0,0.0,0.0,0.0,0.0,0.0,0.0,0.0,0.0,7.0926,7.1105,7.1218,7.0789,7.0789,7.1485,7.1485,7.1446,7.1446,7.1446,7.1446,7.1446,7.1485,7.1525,7.1657,7.1663,7.1702,7.178,7.1751,7.1836,7.1914,7.1914,7.1914,7.1914,7.1953,7.1953,7.1953,7.1875,7.183,7.1774,7.1642,7.1485,7.1446,7.133,7.1291,7.1291,7.1291,7.1291,7.1291,7.1291,7.1291,7.1291,0.0,0.0,0.0,0.0,0.0,0.0,0.0,0.0,0.0,0.0,6.3984,6.543,6.8398,6.9101,7.0117,7.1836,7.168,7.1094,7.0195,0.0,0.0,0.0,0.0,0.0,0.0,0.0,0.0,0.0,0.0,0.0,0.0,0.0,0.0,0.0,0.0,0.0,0.0,0.0,0.0,0.0,0.0,0.0,7.0703,7.0703,7.0156,6.9453,7.0,7.0195,7.0234,7.0742,0.0,0.0,0.0,0.0,0.0,0.0,0.0,0.0,0.0,0.0,0.0,0.0,0.0,0.0,0.0,0.0,0.0,0.0,0.0,0.0,0.0,0.0,0.0,0.0,7.0987,7.1471,7.1758,7.1251,7.1038,7.1626,7.1636,7.1563,7.1563,7.1589,7.1562,7.1562,7.1614,7.1681,7.1757,7.1797,7.1836,7.1875,7.1875,7.1914,7.1992,7.1992,7.1992,7.1992,7.1992,7.1992,7.1992,7.1914,7.1836,7.1796,7.1645,7.1523,7.1485,7.1369,7.1291,7.1291,0.0,0.0,0.0,0.0,7.1291,7.1291,0.0,0.0,0.0,0.0,0.0,0.0,0.0,0.0,0.0,0.0,0.0,6.5586,6.9023,6.9414,7.0117,7.1836,7.1211,7.0312,0.0,0.0,0.0,7.0625,7.0781,7.1211,7.1992,7.1992,0.0,0.0,0.0,0.0,0.0,0.0,0.0,0.0,0.0,0.0,0.0,0.0,0.0,0.0,0.0,0.0,7.0859,7.0859,7.0351,6.9687,6.9765,6.9726,6.9687,6.9687,0.0,0.0,0.0,0.0,0.0,0.0,0.0,0.0,0.0,0.0,0.0,0.0,0.0,0.0,0.0,0.0,0.0,0.0,0.0,0.0,0.0,0.0,0.0,0.0,7.0781,7.1133,7.1875,7.1836,7.1724,7.1723,7.1706,7.1719,7.1719,7.1716,7.1727,7.1727,7.176,7.1797,7.1836,7.1953,0.0,0.0,0.0,7.2031,7.2148,7.2148,7.2187,7.2305,7.2305,7.2305,7.2305,7.2305,7.2226,7.2109,7.2034,7.1932,7.1816,7.1678,7.1601,7.1562,7.1369,7.1291,7.1291,7.1291,7.1369,7.1446,0.0,0.0,0.0,0.0,0.0,0.0,0.0,0.0,0.0,6.4062,6.4297,6.5586,6.9023,6.9453,7.0156,7.1836,7.1211,7.0351,0.0,0.0,7.0351,7.0703,7.1367,7.1836,7.1992,7.1992,7.1992,7.1992,7.1992,7.1992,7.1992,0.0,0.0,0.0,0.0,0.0,0.0,0.0,0.0,0.0,0.0,0.0,7.1758,7.1758,7.164,7.1484,7.1523,7.1523,7.1484,7.1484,7.1601,7.1719,7.1562,0.0,0.0,0.0,0.0,0.0,0.0,0.0,0.0,0.0,0.0,0.0,0.0,0.0,0.0,0.0,0.0,0.0,0.0,0.0,0.0,7.0664,7.1289,7.1797,7.1992,7.1953,7.1951,7.1932,7.1831,7.1797,7.1797,7.1788,7.1772,7.1772,7.1792,7.1836,7.1953,7.1992,7.1992,7.1992,7.1992,7.2344,7.3047,7.3047,7.3398,7.4101,7.4101,0.0,7.4101,7.4101,7.4062,7.4062,7.3916,7.3812,7.3657,7.3579,7.3502,7.327,7.1855,7.1291,7.1291,7.1291,7.1739,7.2358,0.0,0.0,0.0,0.0,0.0,0.0,0.0,0.0,0.0,0.0,6.3632,6.4805,6.7812,6.8164,6.8867,7.0547,7.0312,0.0,0.0,7.0234,7.0898,7.1328,7.1758,7.1992,7.1992,7.1992,7.1992,7.1992,7.1992,7.1992,7.1992,7.1992,7.1992,7.1992,7.1992,0.0,0.0,0.0,0.0,0.0,0.0,0.0,7.1992,7.1992,7.1992,7.1992,7.1992,7.1992,7.1992,7.1992,7.1992,7.1992,7.1992,7.1719,7.1172,0.0,0.0,0.0,0.0,0.0,0.0,0.0,0.0,0.0,0.0,0.0,0.0,0.0,0.0,7.043,6.957,0.0,7.0703,7.0703,7.1445,7.1992,7.1992,7.1992,7.1992,7.1992,7.1953,7.1914,7.1914,7.1914,7.1914,7.1914,7.1914,7.1914,7.1992,7.1992,7.2187,7.2656,7.2656,7.3086,7.3945,7.3945,7.418,7.4609,7.4609,7.4609,7.4609,7.4609,7.4609,7.4609,7.4445,7.4359,7.4293,7.4154,7.3999,7.3806,7.2932,7.2607,7.259,7.259,7.2861,7.327,0.0,0.0,0.0,0.0,0.0,0.0,0.0,0.0,0.0,0.0,6.3119,6.3984,6.6601,6.6914,6.75,0.0,0.0,0.0,0.0,7.0351,7.1289,7.1953,7.1992,7.1992,7.1992,7.1992,7.1992,7.1992,7.1992,7.1992,7.1992,7.1992,7.1992,7.1992,7.1992,7.1992,7.1992,7.1992,7.1992,7.1992,7.1992,7.1992,7.1992,7.1992,7.1992,7.1992,7.1992,7.1875,7.1758,7.1953,7.1875,7.1797,7.1953,7.1992,7.164,6.9922,7.039,0.0,0.0,0.0,0.0,0.0,0.0,0.0,0.0,7.0469,7.0117,7.0586,7.0703,7.043,6.957,7.0117,7.0703,7.0703,7.1445,7.1992,7.1992,7.1992,7.1992,7.1992,7.1992,7.1992,7.1992,7.1992,7.1992,7.1992,7.1992,7.207,7.2226,7.2265,7.2656,7.3515,7.3555,7.3984,7.4844,7.4844,7.4922,7.5117,7.5117,7.5117,7.5117,7.5117,7.5117,7.5117,7.4961,7.4928,7.4887,7.4663,7.4518,7.444,7.4402,7.4386,7.4353,7.4044,7.4005,7.4138,0.0,0.0,0.0,0.0,0.0,0.0,0.0,0.0,0.0,0.0,0.0,0.0,0.0,0.0,0.0,0.0,0.0,0.0,6.9453,7.0937,7.1914,7.1992,7.1992,7.1992,7.1992,7.1992,7.1992,7.1992,7.1992,7.1992,7.1992,7.1992,7.1992,7.1992,7.1992,7.1992,7.1992,7.1992,7.1992,7.1992,7.1992,7.1992,7.1992,7.1992,7.1992,7.1992,7.1992,7.1484,7.0976,7.1758,7.1484,7.0976,7.1758,7.1992,7.164,6.9922,0.0,6.9297,6.7539,6.8359,6.9687,6.957,7.0586,7.1601,0.0,7.1797,7.1523,7.0859,7.0703,7.0469,6.9648,7.0156,7.0703,7.0703,7.1445,7.1992,7.1992,7.1992,7.1992,7.1992,7.1992,7.1992,7.1992,7.1992,7.1992,7.1992,7.1992,7.2344,7.3125,7.3164,7.3555,7.4414,7.4453,7.4883,7.5742,7.5742,7.6133,7.6914,7.6914,7.6914,7.6914,7.6914,7.6914,7.6914,7.6758,7.6717,7.67,7.6415,7.632,7.6281,7.6165,7.6127,7.5933,7.444,7.4363,7.4943,0.0,0.0,0.0,0.0,0.0,0.0,0.0,0.0,0.0,0.0,0.0,0.0,0.0,0.0,0.0,0.0,0.0,0.0,6.9414,7.1015,7.1992,7.1992,7.1992,7.1992,7.1992,7.1992,7.1992,7.1992,7.1992,7.1992,7.1992,7.1992,7.1992,7.1992,7.1992,7.1992,7.1992,7.1992,7.1992,7.1992,7.1992,7.1992,7.1992,7.1992,7.1992,7.1914,7.1445,7.1015,0.0,0.0,7.1015,7.0859,7.1719,7.164,7.1015,6.9805,6.9414,0.0,6.914,6.9258,6.9531,7.0039,7.0703,7.125,7.125,7.125,7.1289,7.1445,7.1445,7.1367,7.1015,7.1211,7.1445,7.1445,7.1758,7.1992,7.1992,7.1992,7.1992,7.1992,7.1992,7.1992,7.1992,7.1992,7.2226,7.2734,7.2773,7.3125,7.4023,7.4062,7.4453,7.5312,7.5351,7.5781,7.664,7.664,7.6836,7.7187,7.7187,7.7187,7.7187,7.7187,7.7187,7.7187,7.7148,7.707,7.6992,7.6887,7.6762,7.6591,7.6514,7.6475,7.632,7.5624,7.5585,7.5856,0.0,0.0,0.0,0.0,0.0,0.0,0.0,0.0,0.0,0.0,0.0,0.0,0.0,0.0,0.0,0.0,0.0,0.0,0.0,7.0819,7.1758,7.1992,7.1992,7.1992,7.1992,7.1992,7.1992,7.1992,7.1992,7.1992,7.1992,7.1992,7.1992,7.1992,7.1992,7.1992,7.1992,7.1992,7.1992,7.1992,7.1992,7.1992,7.1992,7.1992,7.1836,7.1562,7.0937,7.0547,0.0,0.0,7.0195,7.0156,7.1015,7.0859,7.0195,6.9375,6.8945,6.8906,6.9765,6.9726,6.9648,7.0508,7.0898,7.1055,7.1055,7.1055,7.125,7.1875,7.1992,7.1992,7.1992,7.1992,7.1992,7.1992,7.1992,7.1992,7.1992,7.1992,7.2109,7.2344,7.2344,7.2461,7.2695,7.25,7.2734,7.3594,7.3672,7.4023,7.4922,7.4961,7.5351,7.6211,7.625,7.6562,7.7187,7.7187,7.7187,7.7187,7.7187,7.7187,7.7187,7.7187,7.7187,7.7187,7.7187,7.7148,7.7031,7.7031,7.6894,7.6704,7.6626,7.6514,7.6436,7.6397,7.6397,7.6397,0.0,0.0,0.0,0.0,0.0,0.0,0.0,0.0,0.0,0.0,0.0,0.0,0.0,0.0,0.0,0.0,0.0,0.0,0.0,7.0228,7.1133,7.1953,7.1992,7.1992,7.1992,7.1992,7.1992,7.1992,7.1992,7.1992,7.1992,7.1992,7.1992,7.1992,7.1992,7.1992,7.1992,7.1992,7.1992,7.1992,7.1992,7.1992,7.1992,7.1992,7.1484,7.0742,7.0703,0.0,0.0,0.0,6.8984,6.8437,6.9219,6.9492,0.0,6.8476,6.7656,0.0,6.8047,6.8867,6.9687,7.0508,7.1328,7.1953,7.1953,7.1953,7.1953,7.1992,7.1992,7.1992,7.1992,7.1992,7.1992,7.1992,7.1992,7.1992,7.1992,7.1992,7.2305,7.3164,7.3242,7.3594,7.4453,7.375,7.3633,7.4492,7.457,7.4922,7.582,7.5859,7.625,7.7148,7.7148,7.7187,7.7187,7.7187,7.7187,7.7187,7.7187,7.7187,7.7187,7.7187,7.7187,7.7187,7.7187,7.7187,7.7187,7.7031,7.6992,7.6946,7.6687,7.6591,7.6552,7.6436,7.6397,7.6397,0.0,0.0,0.0,0.0,0.0,0.0,0.0,0.0,0.0,0.0,0.0,0.0,0.0,0.0,0.0,0.0,0.0,0.0,0.0,6.9908,7.0809,7.1133,7.168,7.1992,7.1992,7.1992,7.1992,7.1992,7.1992,7.1992,7.1992,7.1992,7.1992,7.1992,7.1992,7.1992,7.1992,7.1992,7.1992,7.1992,7.1992,7.1992,7.1953,7.1367,7.0976,7.0547,0.0,0.0,0.0,0.0,0.0,0.0,6.914,0.0,0.0,6.7578,0.0,0.0,6.8789,6.9648,7.0508,7.1367,7.1797,7.1992,7.1992,7.1992,7.1992,7.1992,7.1523,7.1133,7.1133,7.1133,7.1133,7.1133,7.1601,7.2187,7.2773,7.2851,7.3203,7.4062,7.414,7.4492,7.539,7.4687,7.4531,7.539,7.5469,7.5859,7.6719,7.6758,7.6914,7.7187,7.7187,7.7187,7.7187,7.7187,7.7187,7.7187,7.7187,7.7187,7.7187,7.7187,7.7187,7.7187,7.7187,7.7187,7.7187,7.7148,7.707,7.6992,7.6789,7.6675,7.6552,7.6436,7.6397,7.6397,0.0,0.0,0.0,0.0,0.0,0.0,0.0,0.0,0.0,0.0,0.0,0.0,0.0,0.0,0.0,0.0,0.0,0.0,0.0,0.0,6.9902,7.0228,7.078,7.1094,7.1094,7.1094,7.1055,7.1055,7.1367,7.1523,7.1523,7.1836,7.1992,7.1992,7.1992,7.1992,7.1992,7.1992,7.1836,7.1523,7.1523,7.1367,7.1015,7.0469,7.0078,0.0,0.0,0.0,0.0,0.0,0.0,0.0,0.0,0.0,0.0,6.7422,6.7773,6.8437,6.957,7.0273,7.0898,7.1797,7.1992,7.1992,7.1992,7.1992,7.1992,7.1992,7.1328,7.0703,7.0703,7.0469,7.0273,7.0234,7.0976,7.1836,7.2695,7.3086,7.375,7.4922,7.5078,7.539,7.6289,7.5859,7.5742,7.6328,7.6367,7.6601,7.7187,7.7187,7.7187,7.7187,7.7187,7.7187,7.7187,7.7187,7.7187,7.7187,7.7187,7.7187,7.7187,7.7187,7.7187,7.7187,7.7187,7.7383,7.7656,7.7656,7.7773,7.7969,7.7851,7.7765,7.7659,7.7504,7.7465,7.7388,0.0,0.0,0.0,0.0,0.0,0.0,0.0,0.0,0.0,0.0,0.0,0.0,0.0,0.0,0.0,0.0,0.0,0.0,0.0,0.0,0.0,6.9294,6.9369,6.9414,6.9492,6.9453,6.9414,6.9414,7.0234,7.0625,7.0664,7.1484,7.1875,7.1875,7.1875,7.1875,7.1875,7.1875,7.1406,7.0625,7.0625,7.0156,6.9414,6.9414,0.0,0.0,0.0,0.0,0.0,0.0,0.0,0.0,0.0,6.7031,6.7187,6.8008,6.8281,6.8672,7.0273,7.0742,7.0976,7.1797,7.1992,7.1992,7.1992,7.1992,7.1992,7.1953,7.125,7.0625,7.0586,6.9961,6.9492,6.9453,7.0234,7.1133,7.207,7.289,7.4062,7.5742,7.5976,7.6289,7.7109,7.7187,7.7187,7.7187,7.7187,7.7187,7.7187,7.7187,7.7187,7.7187,7.7187,7.7187,7.7187,7.7187,7.7187,7.7187,7.7265,7.7265,7.7265,7.7305,7.7344,7.7344,7.7344,7.7812,7.8555,7.8555,7.9023,7.9687,7.9648,7.9617,7.9593,7.9447,7.9409,7.9114,0.0,0.0,0.0,0.0,0.0,0.0,0.0,0.0,0.0,0.0,0.0,0.0,0.0,0.0,0.0,0.0,0.0,0.0,0.0,0.0,0.0,0.0,0.0,0.0,0.0,0.0,0.0,0.0,0.0,6.9765,6.9805,7.0039,7.0156,7.0156,7.0156,7.0117,7.0078,7.0078,6.9922,6.9726,0.0,6.9609,6.9336,0.0,0.0,0.0,0.0,0.0,0.0,0.0,6.7344,6.7969,6.8633,6.8789,6.8828,6.9101,6.9609,7.0156,7.0586,7.1172,7.1719,7.1953,7.1992,7.1992,7.1992,7.1992,7.1836,7.1172,7.039,6.9609,6.8945,6.914,6.9648,7.0273,7.164,7.3164,7.4687,7.5117,7.5625,7.6758,7.6875,7.6953,7.7187,7.7187,7.7187,7.7187,7.7187,7.7187,7.7187,7.7187,7.7187,7.7187,7.7187,7.7187,7.7187,7.7187,7.7187,7.7226,7.7851,7.8164,7.8203,7.8789,7.9062,7.9062,7.9062,7.918,7.9375,7.9375,7.9492,7.9687,7.9648,7.9602,7.958,7.9447,7.9409,7.9331,0.0,0.0,0.0,0.0,0.0,0.0,0.0,0.0,0.0,0.0,0.0,0.0,0.0,0.0,0.0,0.0,0.0,0.0,0.0,0.0,0.0,0.0,0.0,0.0,0.0,0.0,0.0,0.0,0.0,0.0,0.0,6.9297,6.9453,6.9453,6.9492,6.9453,6.9414,6.9414,0.0,0.0,0.0,0.0,0.0,0.0,0.0,0.0,0.0,0.0,0.0,6.789,6.8359,6.8828,6.9336,6.9453,6.9492,6.9883,7.0351,7.0781,7.1172,7.164,7.1992,7.1992,7.1992,7.1914,7.1523,7.1445,7.1172,7.0351,6.9492,6.8789,6.8281,6.8555,6.914,7.0,7.1601,7.3359,7.5078,7.5664,7.6211,7.7109,7.7187,7.7187,7.7187,7.7187,7.7187,7.7187,7.7187,7.7187,7.7187,7.7187,7.7187,7.7187,7.7187,7.7383,7.7773,7.7773,7.7969,7.8281,7.8789,7.9023,7.9023,7.9492,7.9687,7.9687,7.9687,7.9922,8.0273,8.0273,8.0508,8.0859,8.0781,8.0781,8.0779,8.069,8.0676,8.0676,0.0,0.0,0.0,0.0,0.0,0.0,0.0,0.0,0.0,0.0,0.0,0.0,0.0,0.0,0.0,0.0,0.0,0.0,0.0,0.0,0.0,0.0,0.0,0.0,0.0,0.0,0.0,0.0,0.0,0.0,0.0,0.0,0.0,0.0,0.0,0.0,0.0,0.0,0.0,0.0,0.0,0.0,0.0,0.0,0.0,0.0,0.0,0.0,0.0,6.9219,6.9531,6.9609,6.9765,6.9805,6.9883,7.0664,7.0859,7.1055,7.1797,7.1992,7.1992,7.1992,7.1992,7.1758,7.0898,7.0703,7.043,6.9531,6.8711,6.8164,6.8047,6.8125,6.8555,6.957,7.1094,7.2812,7.4687,7.5586,7.6367,7.7109,7.7187,7.7187,7.7187,7.7187,7.7187,7.7187,7.7187,7.7187,7.7187,7.7187,7.7265,7.7383,7.7383,7.7773,7.8633,7.8672,7.9023,7.9687,7.9805,7.9883,7.9883,8.0,8.0039,8.0039,8.0039,8.0469,8.1172,8.1172,8.1601,8.2304,8.2304,8.2304,8.2304,8.2304,8.2304,8.2304,0.0,0.0,0.0,0.0,0.0,0.0,0.0,0.0,0.0,0.0,6.1408,6.1564,0.0,0.0,0.0,0.0,0.0,0.0,0.0,0.0,0.0,0.0,0.0,0.0,0.0,0.0,0.0,0.0,0.0,0.0,0.0,0.0,0.0,0.0,0.0,0.0,0.0,0.0,0.0,0.0,0.0,0.0,0.0,0.0,0.0,0.0,0.0,0.0,0.0,0.0,6.9922,7.0586,7.1328,7.1562,7.1562,7.1719,7.1758,7.1797,7.1953,7.1992,7.1992,7.1992,7.1992,7.1758,7.0898,7.0703,7.0273,6.875,6.832,6.7969,6.7265,6.7695,6.8945,7.1172,7.2422,7.3945,7.6406,7.6875,7.7031,7.7187,7.7187,7.7187,7.7187,7.7187,7.7187,7.7187,7.7187,7.7187,7.7187,7.7187,7.7539,7.8242,7.8281,7.8672,7.9492,7.9492,7.957,7.9726,8.0429,8.0781,8.0781,8.1523,8.1836,8.1836,8.1836,8.1914,8.207,8.207,8.2148,8.2304,8.2304,8.2304,8.2304,8.2304,8.2304,8.2304,0.0,0.0,0.0,0.0,0.0,0.0,0.0,0.0,6.1835,6.108,6.1158,6.1331,6.158,6.2017,0.0,0.0,0.0,0.0,0.0,0.0,0.0,0.0,0.0,0.0,0.0,6.6911,6.6914,6.6914,0.0,6.6914,6.6914,6.6914,6.6914,6.6914,6.6914,0.0,0.0,0.0,0.0,0.0,0.0,0.0,0.0,0.0,0.0,0.0,0.0,0.0,0.0,0.0,6.9648,7.0859,7.1719,7.1992,7.1992,7.1992,7.1992,7.1992,7.1992,7.1992,7.1992,7.1992,7.1992,7.164,7.0312,7.0039,6.9531,6.7851,6.7539,6.7383,6.6992,6.7969,6.9413,7.1046,7.281,7.457,7.6289,7.6914,7.7187,7.7187,7.7617,7.7694,7.7254,7.7566,7.7644,7.7176,7.7186,7.7187,7.7187,7.7617,7.8242,7.9101,7.9101,7.9531,8.0351,8.039,8.0586,8.1054,8.1484,8.1679,8.1679,8.2109,8.2304,8.2304,8.2304,8.2304,8.2304,8.2304,8.2304,8.2304,8.2304,8.2304,8.2304,8.2304,8.2304,8.2304,0.0,0.0,0.0,0.0,0.0,0.0,0.0,6.182,6.162,6.1021,6.0964,6.1109,6.1355,6.1534,6.1933,0.0,0.0,0.0,0.0,0.0,0.0,0.0,0.0,0.0,0.0,0.0,0.0,6.6914,6.6914,0.0,0.0,0.0,0.0,0.0,6.6914,6.6914,6.6914,0.0,0.0,0.0,0.0,6.6914,0.0,0.0,0.0,0.0,0.0,0.0,0.0,0.0,6.9062,7.0312,7.1172,7.1562,7.1719,7.1719,7.1719,7.1758,7.1953,7.1992,7.1992,7.1992,7.1992,7.1562,6.9805,6.9414,6.8906,6.7265,6.6914,6.6914,6.6914,6.8164,6.9569,7.0526,7.2569,7.449,7.5701,7.6483,7.7068,7.7421,7.789,7.8003,7.7508,7.7849,7.7921,7.7414,7.7608,7.7656,7.75,7.8281,7.914,7.9961,7.9961,8.039,8.1289,8.1289,8.1601,8.2304,8.2304,8.2304,8.2304,8.2304,8.2304,8.2304,8.2304,8.2304,8.2304,8.2304,8.2304,8.2304,8.2304,8.2304,8.2304,8.2304,8.2304,8.2344,0.0,0.0,0.0,0.0,0.0,0.0,0.0,6.0935,6.0896,6.0804,6.0923,6.102,6.1057,6.1331,6.1539,0.0,0.0,0.0,0.0,0.0,0.0,0.0,0.0,0.0,0.0,0.0,0.0,6.6914,6.6914,0.0,0.0,0.0,0.0,0.0,0.0,6.6914,6.6914,6.6914,0.0,0.0,0.0,0.0,0.0,0.0,0.0,0.0,0.0,6.6953,6.7148,6.793,6.8281,6.8594,6.9453,7.0234,7.082,7.082,7.082,7.0976,7.1797,7.1992,7.1992,7.1992,7.1992,7.1562,6.9883,6.9453,6.8906,6.7265,6.6914,6.6914,6.6914,6.7695,6.8828,7.0429,7.1588,7.3091,7.5545,7.5975,7.6571,7.8113,7.7647,7.753,7.823,7.7625,7.7492,7.8233,7.9001,7.9136,7.8437,7.914,8.0,8.0859,8.0898,8.1289,8.2187,8.2187,8.2226,8.2304,8.2304,8.2304,8.2304,8.2304,8.2304,8.2304,8.2304,8.2304,8.2304,8.2304,8.2304,8.2304,8.2304,8.2304,8.2304,8.2304,8.2304,8.2422,0.0,0.0,0.0,0.0,0.0,0.0,6.0858,6.0781,6.0781,6.0781,6.0872,6.0877,6.0877,6.1074,6.1291,0.0,0.0,0.0,0.0,0.0,0.0,0.0,0.0,0.0,0.0,0.0,6.6901,6.6914,6.6914,0.0,0.0,0.0,0.0,0.0,0.0,6.6914,6.6914,6.6914,0.0,0.0,0.0,0.0,0.0,0.0,0.0,0.0,0.0,0.0,6.6953,6.7305,6.7773,6.8164,6.8008,6.8515,6.9375,7.039,7.0703,7.0898,7.1758,7.1992,7.1992,7.1992,7.1601,7.0937,6.9765,6.9062,6.8359,6.7148,6.6914,6.6914,6.6914,6.8002,6.913,6.9804,7.1521,7.315,7.4179,7.4798,7.574,7.7464,7.7352,7.743,7.8328,7.8551,7.8819,7.917,8.0002,8.0324,8.002,8.0309,8.0898,8.1758,8.1797,8.1951,8.2285,8.2303,8.2304,8.2304,8.2304,8.2304,8.2304,8.2304,8.2304,8.2304,8.2304,8.2304,8.2344,8.2851,8.3086,8.3125,8.3672,8.3867,8.3867,8.3867,8.3867,8.3906,0.0,0.0,0.0,0.0,0.0,6.0781,6.0781,6.0781,6.0781,6.0781,6.0781,6.0781,6.0781,6.0899,6.1057,6.1331,0.0,0.0,0.0,0.0,0.0,0.0,0.0,0.0,0.0,0.0,6.6895,6.6913,6.6914,6.6914,0.0,0.0,6.6914,6.6914,0.0,0.0,0.0,0.0,0.0,0.0,0.0,0.0,0.0,0.0,0.0,0.0,0.0,0.0,0.0,0.0,0.0,6.7695,6.7109,0.0,0.0,6.9531,7.0117,7.0508,7.1367,7.1797,7.1992,7.1992,7.1328,7.0469,6.9648,6.8828,6.7969,6.707,6.6913,6.691,6.691,6.8268,6.9397,0.0,7.1366,7.3006,7.3264,7.4037,7.5238,7.6984,7.7134,7.7531,7.8663,7.9561,8.0068,8.0068,8.0888,8.1396,8.1396,8.139,8.1675,8.2261,8.23,8.2292,8.2293,8.23,8.2304,8.2304,8.2578,8.2695,8.2695,8.2969,8.3086,8.3086,8.3086,8.3086,8.3125,8.3711,8.3984,8.4062,8.4648,8.4883,8.4883,8.4883,8.4883,8.4922,0.0,0.0,0.0,0.0,0.0,0.0,0.0,6.0781,6.0781,6.0781,6.0781,6.0781,6.0781,6.0781,6.0856,6.0983,0.0,0.0,0.0,0.0,0.0,0.0,0.0,0.0,0.0,0.0,6.6887,6.6904,6.6912,6.6914,6.6914,6.6914,6.6914,6.6914,0.0,0.0,0.0,0.0,0.0,0.0,0.0,0.0,0.0,0.0,0.0,0.0,0.0,0.0,0.0,0.0,0.0,0.0,0.0,0.0,0.0,0.0,6.8789,6.9609,7.0469,7.1328,7.1992,7.1992,7.1328,7.0469,6.9609,6.8789,6.7969,6.707,6.6904,6.6912,6.6912,6.8273,6.9411,6.9416,7.0851,7.2305,7.3164,7.4058,7.5216,7.6912,7.7101,7.7765,7.9522,8.0459,8.1005,8.1005,8.1786,8.2293,8.2293,8.2293,8.2293,8.2293,8.2293,8.2293,8.2293,8.23,8.2304,8.2304,8.3164,8.3594,8.3633,8.4492,8.4883,8.4883,8.4883,8.4883,8.4883,8.4883,8.4883,8.4883,8.4883,8.4883,8.4883,8.4883,8.4883,8.5039,0.0,0.0,0.0,0.0,0.0,0.0,0.0,6.0781,6.0781,6.0781,6.0781,6.0781,6.0781,6.0781,6.0804,6.0856,0.0,0.0,0.0,0.0,0.0,0.0,0.0,0.0,0.0,0.0,6.6301,6.6904,6.6912,6.6914,6.6914,6.6914,6.6914,6.6914,6.6914,6.6914,0.0,0.0,0.0,0.0,0.0,0.0,0.0,0.0,0.0,0.0,0.0,0.0,0.0,0.0,0.0,0.0,0.0,0.0,0.0,0.0,0.0,6.8789,6.9648,7.0039,7.0234,7.0273,6.9648,6.8906,6.8633,6.793,6.7226,6.6979,6.6887,6.7068,6.7693,6.8683,6.9585,7.0191,7.126,7.2092,7.2376,7.3663,7.5216,7.6906,7.8663,7.999,8.0537,8.0849,8.1239,8.1825,8.2137,8.2293,8.2293,8.2293,8.2293,8.2293,8.2293,8.2606,8.3191,8.3209,8.3506,8.4062,8.4375,8.4492,8.4492,8.4765,8.4883,8.4883,8.4883,8.4883,8.4961,8.5547,8.5781,8.5859,8.6445,8.6679,8.6679,8.6679,8.6679,8.6719,0.0,0.0,0.0,0.0,0.0,0.0,0.0,6.0781,6.0781,6.0781,6.0781,6.0781,6.0781,6.0781,6.0781,6.0781,0.0,0.0,0.0,0.0,0.0,0.0,0.0,0.0,0.0,6.5468,6.6379,6.6904,6.6912,6.6914,6.6914,6.6914,6.6914,6.6914,6.6914,6.6914,0.0,0.0,0.0,0.0,0.0,0.0,6.6914,0.0,0.0,0.0,0.0,0.0,0.0,0.0,0.0,0.0,0.0,0.0,0.0,0.0,0.0,6.789,6.8789,6.9219,6.9414,6.9453,6.8828,6.8203,6.8203,6.7537,6.6904,6.6883,6.6912,6.7146,6.801,6.8825,6.9684,7.0543,7.1441,7.2232,7.2876,7.4162,7.579,7.7843,7.9795,8.1005,8.1005,8.1317,8.1825,8.2684,8.2489,8.245,8.2723,8.2762,8.2762,8.2762,8.2762,8.2996,8.3543,8.3894,8.4341,8.4914,8.5227,8.5387,8.539,8.5742,8.5898,8.5898,8.5898,8.5898,0.0,8.6484,8.6679,8.6758,8.7304,8.75,8.75,8.75,8.75,8.75,0.0,0.0,0.0,0.0,0.0,0.0,0.0,0.0,6.0781,6.0781,6.0781,6.0781,6.0781,6.0781,6.0781,6.0781,0.0,0.0,0.0,0.0,0.0,0.0,0.0,0.0,0.0,6.5936,6.6848,6.6904,6.6912,6.6914,6.6914,6.6914,6.6914,6.6914,6.6914,6.6914,0.0,0.0,0.0,0.0,0.0,0.0,0.0,0.0,0.0,0.0,0.0,0.0,0.0,0.0,0.0,0.0,0.0,0.0,0.0,0.0,0.0,0.0,0.0,6.8633,6.9219,6.9219,6.8672,6.8125,6.8125,6.749,0.0,6.6912,6.6951,6.7224,6.8044,6.8908,6.9767,7.066,7.1519,7.27,7.4357,7.5438,7.7023,7.96,8.0615,8.1083,8.1083,8.1864,8.2684,8.3426,8.2879,8.2801,8.3543,8.3582,8.3582,8.3582,8.366,8.3699,8.3699,8.448,8.4941,8.5097,8.5885,8.6307,8.6328,8.7148,8.75,8.75,8.75,8.75,8.75,8.75,8.75,8.75,8.75,8.75,8.75,8.75,8.75,8.75,0.0,0.0,0.0,0.0,0.0,0.0,0.0,0.0,0.0,0.0,6.0781,6.0781,6.0781,6.0781,6.0781,0.0,0.0,0.0,0.0,0.0,0.0,0.0,0.0,0.0,0.0,6.5351,6.6223,6.6904,6.6912,6.6914,6.6914,6.6914,6.6914,6.6914,6.6914,0.0,0.0,0.0,0.0,0.0,0.0,0.0,0.0,0.0,0.0,0.0,6.6914,6.6914,0.0,0.0,0.0,0.0,0.0,0.0,0.0,0.0,6.6914,0.0,0.0,0.0,6.75,6.75,6.7338,6.7203,0.0,0.0,0.0,0.0,0.0,6.8083,6.8942,6.9816,7.0675,7.1563,7.2417,7.3354,7.4379,7.699,7.9522,8.1474,8.1864,8.1981,8.1981,8.2723,8.3308,8.3504,8.3933,8.4284,8.448,8.448,8.448,8.448,8.5143,8.5495,8.5495,8.569,8.6158,8.6822,8.7001,8.7102,8.7148,8.7383,8.75,8.75,8.75,8.75,8.75,8.75,8.75,8.75,8.75,8.75,8.75,8.75,8.75,8.75,0.0,0.0,0.0,0.0,0.0,0.0,0.0,0.0,0.0,0.0,0.0,0.0,0.0,0.0,0.0,0.0,0.0,0.0,0.0,0.0,0.0,0.0,0.0,0.0,6.4762,6.5652,6.6418,6.6904,6.6912,6.6914,6.6914,6.6914,6.6914,6.6914,6.6914,0.0,0.0,0.0,0.0,0.0,6.6914,0.0,0.0,0.0,0.0,0.0,6.6914,6.6914,0.0,6.6914,6.6914,6.6914,0.0,0.0,0.0,0.0,6.6912,6.6906,6.6906,6.6911,6.6914,6.6908,6.6891,0.0,0.0,0.0,0.0,0.0,0.0,6.8952,6.984,7.0397,7.0982,7.187,7.3041,7.4408,7.6047,7.8272,8.0185,8.1552,8.1708,8.202,8.2762,8.323,8.3816,8.4636,8.4753,8.4987,8.5377,8.5416,8.5416,8.5416,8.6236,8.651,8.608,8.651,8.6939,8.7407,8.7397,8.7411,8.7418,8.7421,8.7461,8.7461,8.75,8.75,8.75,8.75,8.75,8.75,8.75,8.75,8.75,8.75,8.75,8.75,0.0,0.0,0.0,0.0,0.0,0.0,0.0,0.0,0.0,0.0,0.0,0.0,0.0,0.0,0.0,0.0,0.0,0.0,0.0,0.0,0.0,0.0,0.0,6.4421,6.5465,6.6336,6.6883,6.7096,6.7108,6.7031,6.6914,6.7031,6.7031,6.6914,6.6914,6.6484,0.0,0.0,0.0,0.0,6.6914,0.0,0.0,0.0,0.0,0.0,0.0,0.0,0.0,6.6914,6.6914,6.6914,6.6914,0.0,0.0,0.0,0.0,0.0,6.6912,6.6979,6.7068,6.6926,6.6878,0.0,0.0,0.0,0.0,0.0,0.0,0.0,7.0543,7.0816,7.1167,7.2065,7.3822,7.5969,7.8468,7.9561,8.0381,8.1122,8.1317,8.1942,8.3347,8.3738,8.4519,8.6002,8.5534,8.5534,8.6275,8.6314,8.6314,8.6314,8.7017,8.7056,8.6314,8.7017,8.7407,8.7407,8.7387,8.7397,8.7405,8.7416,8.7382,8.7382,8.7461,8.7461,8.75,8.75,8.75,8.75,8.75,8.75,8.75,8.75,8.75,8.75,0.0,0.0,0.0,0.0,0.0,0.0,0.0,0.0,0.0,0.0,0.0,0.0,0.0,0.0,0.0,0.0,0.0,0.0,0.0,0.0,0.0,0.0,6.3497,6.4536,6.6351,6.6571,6.7034,6.7937,6.7965,6.7617,6.6914,6.7656,6.7617,6.6914,6.6914,6.6836,6.6719,0.0,0.0,0.0,6.6914,0.0,0.0,0.0,0.0,0.0,0.0,0.0,0.0,6.6914,6.6914,6.6914,6.6914,0.0,0.0,0.0,0.0,0.0,6.6917,6.7386,6.7746,6.7054,0.0,0.0,0.0,0.0,0.0,0.0,0.0,0.0,7.0699,7.1285,7.2104,7.2963,7.5735,7.8468,8.0341,8.1356,8.1942,8.2098,8.2684,8.323,8.3465,8.4831,8.5807,8.608,8.6666,8.7056,8.7173,8.7212,8.7212,8.7212,8.7329,8.7329,8.7212,8.7329,8.7407,8.7407,8.7407,8.7414,8.7414,8.742,8.7397,8.7414,8.7421,8.7422,8.7422,8.7461,8.75,8.75,8.75,8.75,8.75,8.75,8.75,8.75,0.0,0.0,0.0,0.0,0.0,0.0,0.0,0.0,0.0,0.0,0.0,0.0,0.0,0.0,0.0,0.0,0.0,0.0,0.0,0.0,0.0,6.3935,6.4556,6.5314,6.6322,6.6953,6.7532,6.801,6.8574,6.8433,6.7617,6.7539,6.7031,6.6211,6.668,6.664,6.6211,6.6719,0.0,0.0,0.0,0.0,0.0,0.0,0.0,0.0,0.0,0.0,0.0,0.0,6.6901,6.6904,6.691,0.0,0.0,0.0,0.0,0.0,6.6839,6.7459,6.8122,6.8215,0.0,0.0,0.0,0.0,0.0,0.0,0.0,0.0,7.148,7.2456,7.4095,7.6399,7.7687,7.9014,8.0732,8.0927,8.1239,8.2176,8.2645,8.3386,8.4753,8.5612,8.6314,8.6783,8.7173,8.7407,8.7407,8.7407,8.7407,8.7407,8.7407,8.7407,8.7407,8.7407,8.7407,8.7407,8.7407,8.7407,8.7407,8.7407,8.7414,8.7392,8.7401,8.7416,8.7383,8.7422,8.7461,8.75,8.75,8.75,8.75,8.75,8.75,8.75,0.0,0.0,0.0,0.0,0.0,0.0,0.0,0.0,0.0,0.0,0.0,0.0,0.0,0.0,0.0,0.0,0.0,0.0,0.0,0.0,6.3051,6.4551,6.5664,6.6476,6.6998,6.7736,6.816,6.8209,6.9015,6.9007,6.8164,6.7305,6.6523,6.5937,6.6601,6.6523,6.5937,6.6601,6.6914,0.0,0.0,0.0,0.0,0.0,0.0,0.0,0.0,0.0,0.0,0.0,0.0,0.0,0.0,0.0,0.0,6.6878,6.6834,6.6795,6.6795,6.7576,6.8552,0.0,0.0,7.0543,7.1167,0.0,0.0,0.0,0.0,7.3393,7.2729,7.3978,7.6047,7.8936,7.917,7.9561,8.1083,8.0888,8.1083,8.2411,8.2957,8.3972,8.5924,8.6275,8.6666,8.7368,8.7407,8.7407,8.7407,8.7407,8.7407,8.7407,8.7407,8.7407,8.7407,8.7407,8.7407,8.7407,8.7407,8.7407,8.7407,8.7407,8.7407,8.7407,8.7407,8.7392,8.7418,8.7382,8.7421,8.7499,8.7499,8.7499,8.7499,8.7499,8.7461,8.7461,0.0,0.0,0.0,0.0,0.0,0.0,0.0,0.0,0.0,0.0,0.0,0.0,0.0,0.0,0.0,0.0,0.0,0.0,0.0,0.0,6.3628,6.4551,6.6328,6.8003,6.9589,6.9111,6.8924,6.911,6.9295,6.9007,6.8164,6.7305,6.6875,6.6797,6.6875,6.6875,6.6797,6.6875,6.6914,6.6914,0.0,0.0,0.0,0.0,0.0,0.0,0.0,0.0,0.0,0.0,0.0,0.0,0.0,0.0,6.68,0.0,6.6795,6.6795,6.6795,6.8044,6.9333,6.9372,0.0,0.0,7.2573,7.2573,0.0,7.4017,0.0,0.0,7.433,7.5735,7.7257,7.8311,7.9795,8.1122,8.2098,8.2801,8.3269,8.3386,8.4831,8.5885,8.608,8.6822,8.7329,8.7407,8.7407,8.7407,8.7407,8.7407,8.7407,8.7407,8.7407,8.7407,8.7407,8.7407,8.7407,8.7407,8.7407,8.7407,8.7407,8.7407,8.7407,8.7407,8.7407,8.7407,8.7414,8.7405,8.7411,8.7411,8.7411,8.7411,8.7411,8.7411,8.7418,8.7422,0.0,0.0,0.0,0.0,0.0,0.0,0.0,0.0,0.0,0.0,0.0,0.0,0.0,0.0,0.0,0.0,0.0,0.0,0.0,6.3974,6.5513,6.6898,6.8243,6.9241,6.9877,6.9904,6.9683,6.9214,6.882,6.8513,6.8164,6.7305,6.6914,6.6914,6.6914,6.6914,6.6914,6.6906,6.6898,6.6898,6.6908,0.0,0.0,0.0,0.0,0.0,0.0,0.0,0.0,0.0,6.6844,6.6834,0.0,0.0,0.0,0.0,0.0,6.6912,6.7459,6.8864,7.0348,7.0894,0.0,0.0,0.0,0.0,0.0,7.5188,7.5735,0.0,7.6828,7.7921,7.9014,7.9873,8.1005,8.1903,8.2254,8.2996,8.3699,8.4245,8.5377,8.6314,8.6861,8.7212,8.7407,8.7407,8.7407,8.7407,8.7407,8.7407,8.7407,8.7407,8.7407,8.7407,8.7407,8.7407,8.7407,8.7407,8.7407,8.7407,8.7407,8.7407,8.7407,8.7407,8.7407,8.7407,8.7407,8.7381,8.7387,8.7387,8.7387,8.7387,8.7387,8.7387,8.7392,8.7405,0.0,0.0,0.0,0.0,0.0,0.0,0.0,0.0,0.0,0.0,0.0,0.0,0.0,0.0,0.0,0.0,0.0,0.0,6.3666,6.559,6.709,6.7936,6.9224,6.9804,6.9595,6.992,6.9648,6.8774,6.8136,6.7773,6.7773,6.7187,6.6914,6.6914,6.6912,6.691,6.691,6.6895,6.6883,6.6917,6.6891,6.6895,0.0,0.0,0.0,0.0,0.0,0.0,0.0,0.0,6.6795,0.0,0.0,0.0,0.0,0.0,0.0,0.0,6.7927,6.9372,7.0894,0.0,0.0,0.0,0.0,0.0,0.0,7.6477,7.7296,7.8116,7.8702,7.9522,8.0302,8.0888,8.1747,8.2371,8.2645,8.3386,8.4245,8.5104,8.5963,8.6744,8.7329,8.7407,8.7407,8.7407,8.7407,8.7407,8.7407,8.7407,8.7407,8.7407,8.7407,8.7407,8.7407,8.7407,8.7407,8.7407,8.7407,8.7407,8.7407,8.7407,8.7407,8.7407,8.7407,8.7407,8.7407,8.7407,8.7407,8.7407,8.7407,8.7407,8.7407,8.7407,8.7407,8.7414,0.0,0.0,0.0,0.0,0.0,0.0,0.0,0.0,0.0,0.0,0.0,0.0,0.0,0.0,0.0,0.0,0.0,0.0,6.4628,6.6974,6.8013,6.7128,6.8899,6.9576,6.8917,6.9071,6.8756,6.7878,6.7238,6.6914,6.6914,6.6914,6.6914,6.6914,6.6895,6.6912,6.6917,6.6898,6.6895,6.6912,6.6912,6.6912,6.6873,0.0,0.0,0.0,0.0,0.0,0.0,0.0,0.0,0.0,0.0,0.0,0.0,0.0,6.742,6.8083,6.8122,6.9372,7.0933,0.0,0.0,0.0,7.5423,7.5188,7.5345,7.7882,7.9092,7.9717,7.9717,8.042,8.1005,8.1005,8.1747,8.2606,8.3386,8.4245,8.5143,8.6002,8.6861,8.7407,8.7407,8.7407,8.7407,8.7407,8.7407,8.7407,8.7407,8.7407,8.7407,8.7407,8.7407,8.7407,8.7407,8.7407,8.7407,8.7407,8.7407,8.7407,8.7407,8.7407,8.7407,8.7407,8.7407,8.7407,8.7407,8.7407,8.7407,8.7407,8.7407,8.7407,8.7407,8.7407,8.7407,8.7407,0.0,0.0,0.0,0.0,0.0,0.0,0.0,0.0,0.0,0.0,0.0,0.0,0.0,0.0,0.0,0.0,0.0,0.0,6.5474,6.6744,6.7628,6.8013,6.8683,6.8702,6.7871,6.7541,6.7599,6.8039,6.7285,6.6908,6.6908,6.6908,6.6908,6.6908,6.6901,6.6891,6.6912,6.6844,6.6844,6.6834,6.6834,6.6834,6.6834,0.0,0.0,0.0,0.0,0.0,0.0,0.0,0.0,0.0,0.0,0.0,0.0,6.6795,6.742,6.8239,6.8864,7.0738,0.0,7.2846,0.0,0.0,0.0,7.6516,0.0,0.0,8.042,8.0615,8.0615,8.1317,8.1708,8.1083,8.2215,8.323,8.3465,8.4792,8.5807,8.608,8.6861,8.7407,8.7407,8.7407,8.7407,8.7407,8.7407,8.7407,8.7407,8.7407,8.7407,8.7407,8.7407,8.7407,8.7407,8.7407,8.7407,8.7407,8.7407,8.7407,8.7407,8.7407,8.7407,8.7407,8.7407,8.7407,8.7407,8.7407,8.7407,8.7407,8.7407,8.7407,8.7407,8.7407,8.7407,8.7407,0.0,0.0,0.0,0.0,0.0,0.0,0.0,0.0,0.0,0.0,0.0,0.0,0.0,0.0,0.0,0.0,0.0,0.0,0.0,6.7359,6.7705,6.7898,6.7972,6.7686,6.692,6.6697,6.6897,6.75,6.7073,6.6856,6.6895,6.6895,6.6895,6.6895,6.6856,6.6848,6.6873,6.6834,6.6795,6.6795,6.6795,6.6795,6.6795,0.0,0.0,0.0,0.0,0.0,0.0,0.0,0.0,0.0,0.0,0.0,0.0,6.6795,6.7654,6.8825,6.9684,7.1558,0.0,7.4134,7.5032,7.6203,7.7765,0.0,0.0,8.0693,8.1278,8.1513,8.1513,8.1942,8.2215,8.202,8.284,8.3738,8.4441,8.5456,8.6236,8.6588,8.7095,8.7407,8.7407,8.7407,8.7407,8.7407,8.7407,8.7407,8.7407,8.7407,8.7407,8.7407,8.7407,8.7407,8.7407,8.7407,8.7407,8.7407,8.7407,8.7407,8.7407,8.7407,8.7407,8.7407,8.7407,8.7407,8.7407,8.7407,8.7407,8.7407,8.7407,8.7407,8.7407,8.7407,8.7407,8.7407,0.0,0.0,0.0,0.0,0.0,0.0,0.0,0.0,0.0,0.0,6.3435,0.0,0.0,0.0,0.0,0.0,0.0,0.0,0.0,0.0,6.7821,6.7013,6.6974,6.6714,6.6108,6.6397,6.6574,6.6595,6.6727,6.6834,6.6873,6.6873,6.6873,6.6873,6.6834,6.6795,6.6795,6.6795,6.6795,6.6795,6.6795,6.6795,6.6795,6.679,0.0,0.0,0.0,0.0,0.0,0.0,0.0,0.0,0.0,0.0,6.6834,6.6912,6.8161,6.9723,7.0582,7.2143,7.39,7.5423,7.5963,7.6783,7.9236,8.0446,8.1063,8.107,8.174,8.228,8.228,8.2365,8.2645,8.3386,8.3621,8.4284,8.5885,8.6158,8.651,8.7329,8.7407,8.7407,8.7407,8.7407,8.7407,8.7407,8.7407,8.7407,8.7407,8.7407,8.7407,8.7407,8.7407,8.7407,8.7407,8.7407,8.7407,8.7407,8.7407,8.7407,8.7407,8.7407,8.7407,8.7407,8.7407,8.7407,8.7407,8.7407,8.7407,8.7407,8.7407,8.7407,8.7407,8.7407,8.7407,8.7407,0.0,0.0,0.0,0.0,0.0,0.0,0.0,0.0,0.0,0.0,0.0,0.0,0.0,0.0,0.0,0.0,0.0,0.0,0.0,0.0,6.6359,6.6167,6.6167,6.6136,6.6108,6.6148,6.6338,6.6595,6.6727,6.6795,6.6834,6.6834,6.6834,6.6834,6.6795,6.6795,6.6795,6.6795,6.6795,6.6795,6.6795,6.6795,6.679,6.6697,6.6624,0.0,0.0,0.0,0.0,0.0,0.0,0.0,6.6795,6.6795,6.6912,6.7615,6.9059,7.0621,7.148,7.3432,7.5345,7.5696,7.7215,7.8943,8.0191,8.1052,8.1579,8.1738,8.1917,8.2073,8.2073,8.2717,8.3308,8.3465,8.4636,8.5651,8.6041,8.6705,8.7173,8.7368,8.7407,8.7407,8.7407,8.7407,8.7407,8.7407,8.7407,8.7407,8.7407,8.7407,8.7407,8.7407,8.7407,8.7407,8.7407,8.7407,8.7407,8.7407,8.7407,8.7407,8.7407,8.7407,8.7407,8.7407,8.7407,8.7407,8.7407,8.7407,8.7407,8.7407,8.7407,8.7407,8.7407,8.7407,8.7407,8.7407,0.0,0.0,0.0,0.0,0.0,0.0,0.0,0.0,0.0,0.0,0.0,0.0,0.0,0.0,0.0,0.0,0.0,0.0,0.0,0.0,6.5897,6.5897,6.5897,6.5933,6.6013,6.6046,6.6167,6.6353,6.6605,6.6727,6.6795,6.6795,6.6795,6.6795,6.6795,6.6795,6.6795,6.6795,6.6778,6.6705,6.6705,6.6642,6.6566,6.6595,6.6595,6.6595,0.0,0.0,0.0,0.0,0.0,0.0,0.0,0.0,6.6861,6.7758,6.8856,7.0201,7.2002,7.37,7.5218,7.6454,7.8001,7.9462,8.0357,8.1077,8.1579,8.1698,8.1851,8.1974,8.1851,8.2662,8.3479,8.3917,8.5078,8.615,8.6659,8.7095,8.7407,8.7407,8.7407,8.7407,8.7407,8.7407,8.7407,8.7407,8.7407,8.7407,8.7407,8.7407,8.7407,8.7407,8.7407,8.7407,8.7407,8.7407,8.7407,8.7407,8.7407,8.7407,8.7407,8.7407,8.7407,8.7407,8.7407,8.7407,8.7407,8.7407,8.7407,8.7407,8.7407,8.7407,8.7407,8.7407,8.7407,8.7407,0.0,0.0,0.0,0.0,0.0,0.0,0.0,0.0,0.0,0.0,0.0,0.0,0.0,0.0,0.0,0.0,0.0,0.0,0.0,0.0,0.0,6.5897,6.5897,6.5897,6.5897,6.6036,6.6067,6.6108,6.6383,6.6595,0.0,6.6784,6.679,6.6778,6.6778,6.6733,6.6727,6.6727,6.6642,6.6563,6.6585,6.6477,6.6329,6.6489,6.6513,6.654,6.6642,0.0,0.0,0.0,0.0,0.0,0.0,0.0,6.6953,6.7798,6.867,6.9881,7.2303,7.3688,7.5016,7.7425,7.8631,7.9505,8.0359,8.0965,8.135,8.135,8.164,8.1875,8.1873,8.2682,8.3662,8.4518,8.5375,8.6286,8.7221,8.7347,8.7354,8.7407,8.7407,8.7407,8.7407,8.7407,8.7407,8.7407,8.7407,8.7407,8.7407,8.7407,8.7407,8.7407,8.7407,8.7407,8.7407,8.7407,8.7407,8.7407,8.7407,8.7407,8.7407,8.7407,8.7407,8.7407,8.7407,8.7407,8.7407,8.7407,8.7407,8.7407,8.7407,8.7407,8.7407,8.7407,8.7407,8.7407,0.0,0.0,0.0,0.0,0.0,0.0,0.0,0.0,0.0,0.0,6.6936,0.0,0.0,0.0,0.0,0.0,0.0,0.0,0.0,0.0,0.0,6.5897,6.5897,6.5897,6.5897,6.5947,6.599,6.6108,6.6129,0.0,0.0,0.0,0.0,6.6615,6.6615,6.6524,6.6373,6.6373,6.6358,6.6358,6.6513,6.6477,6.6314,6.6329,6.6251,6.6148,6.6185,6.6185,6.6221,6.6329,6.6373,0.0,0.0,0.0,6.7627,6.8521,6.9904,7.1365,7.2446,7.445,7.6687,7.8474,7.9463,8.0198,8.105,8.1192,8.1116,8.1116,8.1323,8.1678,8.2366,8.3346,8.4339,8.5233,8.6088,8.6783,8.7105,8.7157,8.7192,8.7401,8.7407,8.7407,8.7407,8.7407,8.7407,8.7407,8.7407,8.7407,8.7407,8.7407,8.7407,8.7407,8.7407,8.7407,8.7407,8.7407,8.7407,8.7407,8.7407,8.7407,8.7407,8.7407,8.7407,8.7407,8.7407,8.7407,8.7407,8.7407,8.7407,8.7407,8.7407,8.7407,8.7407,8.7407,8.7407,8.7407,0.0,0.0,0.0,0.0,0.0,0.0,0.0,0.0,0.0,0.0,0.0,6.7282,0.0,0.0,0.0,0.0,0.0,0.0,0.0,0.0,0.0,6.5897,6.5897,6.5897,6.5897,6.5897,6.5909,6.599,6.6046,0.0,0.0,6.6413,6.6501,0.0,0.0,0.0,6.6314,6.6314,6.6251,6.6203,6.629,6.6475,6.6706,6.6322,6.6458,6.6786,6.6358,6.62,6.6217,6.6283,6.6314,6.6392,6.6858,0.0,0.0,0.0,6.9941,7.086,7.2677,7.4763,7.6803,7.837,7.9339,8.0183,8.1031,8.1146,8.1093,8.1093,8.1522,8.1996,8.2381,8.3683,8.4886,8.5274,8.6049,8.6683,8.6899,8.7035,8.7118,8.7203,8.7338,8.7407,8.7407,8.7407,8.7407,8.7407,8.7407,8.7407,8.7407,8.7407,8.7407,8.7407,8.7407,8.7407,8.7407,8.7407,8.7407,8.7407,8.7407,8.7407,8.7407,8.7407,8.7407,8.7407,8.7407,8.7407,8.7407,8.7407,8.7407,8.7407,8.7407,8.7407,8.7407,8.7407,8.7407,8.7407,0.0,0.0,0.0,0.0,0.0,0.0,0.0,0.0,0.0,0.0,0.0,0.0,0.0,0.0,0.0,0.0,0.0,0.0,0.0,0.0,0.0,6.5897,6.5897,6.5897,6.5897,6.5897,6.5897,6.5897,0.0,0.0,6.6063,6.6148,6.6221,0.0,6.6234,6.6217,0.0,0.0,0.0,0.0,6.632,6.6714,6.7039,6.6604,6.6801,6.7205,6.6477,6.6221,6.6221,6.6454,6.6493,6.6687,6.7521,6.789,0.0,0.0,0.0,7.0475,7.2591,7.4487,7.625,7.7805,7.9015,8.0054,8.09,8.1093,8.117,8.1362,8.2054,8.2708,8.2901,8.4126,8.5187,8.538,8.5921,8.6416,8.6661,8.6845,8.6966,8.7078,8.7214,8.7347,8.7401,8.7407,8.7407,8.7407,8.7407,8.7407,8.7407,8.7407,8.7407,8.7407,8.7407,8.7407,8.7407,8.7407,8.7407,8.7407,8.7407,8.7407,8.7407,8.7407,8.7407,8.7407,8.7407,8.7407,8.7407,8.7407,8.7407,8.7407,8.7407,8.7407,8.7407,8.7407,8.7407,8.7407,0.0,0.0,0.0,0.0,0.0,0.0,0.0,0.0,0.0,0.0,0.0,0.0,0.0,0.0,6.6744,6.6013,6.5897,6.5897,6.5897,6.5897,6.5897,6.5897,6.5897,0.0,6.5897,6.5897,6.5897,0.0,0.0,0.0,6.5923,6.5947,6.5909,6.5909,6.6063,6.6041,6.5909,0.0,0.0,0.0,0.0,6.7255,6.7116,6.7261,6.7255,6.7,6.6217,6.5909,6.6063,6.6794,6.7064,6.7218,6.8078,6.8924,6.9617,0.0,0.0,0.0,7.2014,7.3476,7.5197,7.6938,7.8592,8.0054,8.09,8.1093,8.1323,8.2093,8.2939,8.3785,8.4632,8.4824,8.5164,8.5934,8.6088,8.6184,8.6389,8.6442,8.6599,8.7064,8.7092,8.7192,8.7401,8.7407,8.7407,8.7407,8.7407,8.7407,8.7407,8.7407,8.7407,8.7407,8.7407,8.7407,8.7407,8.7407,8.7407,8.7407,8.7407,8.7407,8.7407,8.7407,8.7407,8.7407,8.7407,8.7407,8.7407,8.7407,8.7407,8.7407,8.7407,8.7407,8.7407,8.7407,8.7407,8.7407,0.0,0.0,0.0,0.0,0.0,0.0,0.0,0.0,0.0,0.0,0.0,0.0,0.0,6.6628,6.6205,6.5936,6.5897,6.5897,6.5897,6.5897,6.5897,6.5897,6.5897,6.5897,6.5897,6.5897,0.0,0.0,0.0,6.5897,6.5897,6.5897,6.5897,6.5897,6.5958,6.5958,6.5897,6.5897,0.0,0.0,0.0,6.7474,6.7859,6.7383,6.7859,6.8667,6.7821,0.0,6.7628,6.8475,6.8398,6.809,6.8975,6.9436,6.9821,7.0321,7.0667,7.1206,7.2668,7.386,7.513,7.6861,7.8554,7.99,8.0208,8.0708,8.1323,8.2131,8.2978,8.3862,8.4747,8.5324,8.5747,8.6055,8.6094,8.6126,8.6215,8.6317,8.6455,8.6622,8.6933,8.7105,8.7192,8.7338,8.7407,8.7407,8.7407,8.7407,8.7407,8.7407,8.7407,8.7407,8.7407,8.7407,8.7407,8.7407,8.7407,8.7407,8.7407,8.7407,8.7407,8.7407,8.7407,8.7407,8.7407,8.7407,8.7407,8.7407,8.7407,8.7407,8.7407,8.7407,8.7407,8.7407,8.7407,8.7407,0.0,0.0,0.0,0.0,0.0,0.0,0.0,0.0,0.0,0.0,0.0,0.0,0.0,0.0,6.5897,6.5897,6.5897,6.5897,6.5897,6.5897,6.5897,6.5897,6.5897,6.5897,6.5897,6.5897,6.5897,0.0,0.0,0.0,0.0,6.5897,6.5897,6.5897,6.5897,6.5897,0.0,0.0,0.0,6.6013,0.0,6.7898,6.8359,6.809,6.8706,6.9629,6.9052,0.0,6.9013,7.0167,7.0167,6.9783,7.036,7.0321,7.0206,7.0744,7.1091,7.1591,7.2745,7.386,7.5053,7.6515,7.79,7.9131,7.9669,8.0246,8.1054,8.2439,8.3208,8.3939,8.5093,8.5747,8.6094,8.6094,8.6094,8.6094,8.6094,8.6208,8.6346,8.6389,8.6666,8.6933,8.7078,8.7203,8.7338,8.7401,8.7407,8.7407,8.7407,8.7407,8.7407,8.7407,8.7407,8.7407,8.7407,8.7407,8.7407,8.7407,8.7407,8.7407,8.7407,8.7407,8.7407,8.7407,8.7407,8.7407,8.7407,8.7407,8.7407,8.7407,8.7407,8.7407,8.7407,8.7407,8.7407,8.7407,0.0,0.0,0.0,0.0,0.0,0.0,0.0,0.0,0.0,0.0,0.0,0.0,0.0,0.0,0.0,6.5897,6.5897,6.5897,6.5897,6.5897,6.5897,6.5897,6.5897,6.5897,6.5936,6.5936,6.5936,0.0,0.0,0.0,0.0,0.0,6.5897,6.5897,6.5897,6.5897,6.5897,0.0,6.5897,6.6051,6.7744,6.8436,6.8552,6.9398,6.9783,6.9821,6.9821,6.9821,7.0052,7.1706,7.2245,7.2206,7.2168,7.1591,7.0898,7.0937,7.1552,7.2206,0.0,0.0,0.0,7.5784,7.6669,7.7746,7.94,7.9785,8.0516,8.3054,8.3593,8.4093,8.5786,8.6094,8.6094,8.6094,8.6094,8.6094,8.6094,8.6094,8.6184,8.6362,8.6389,8.6576,8.705,8.7092,8.7181,8.7401,8.7407,8.7407,8.7407,8.7407,8.7407,8.7407,8.7407,8.7407,8.7407,8.7407,8.7407,8.7407,8.7407,8.7407,8.7407,8.7407,8.7407,8.7407,8.7407,8.7407,8.7407,8.7407,8.7407,8.7407,8.7407,8.7407,8.7407,8.7407,8.7407,8.7407,0.0,0.0,0.0,0.0,0.0,0.0,0.0,0.0,0.0,0.0,0.0,0.0,6.5897,6.5897,6.5897,6.5897,6.5897,6.5897,6.5897,6.5897,6.5897,6.5897,6.5897,6.6167,6.6744,6.6782,6.6782,0.0,0.0,0.0,0.0,0.0,0.0,0.0,6.5897,6.5897,6.5897,6.5897,6.5897,6.6051,6.7744,6.8783,6.9436,7.0244,7.136,7.2437,7.2437,7.2437,7.2629,7.3668,7.3206,7.2091,7.1475,7.1091,0.0,7.1668,7.2014,7.2437,7.3668,0.0,0.0,0.0,0.0,0.0,7.8631,7.9361,8.0516,8.3054,8.3593,8.4093,8.5786,8.6094,8.6094,8.6094,8.6094,8.6094,8.6094,8.6094,8.6126,8.6184,8.6317,8.6468,8.6576,8.6917,8.7105,8.7181,8.733,8.7407,8.7407,8.7407,8.7407,8.7407,8.7407,8.7407,8.7407,8.7407,8.7407,8.7407,8.7407,8.7407,8.7407,8.7407,8.7407,8.7407,8.7407,8.7407,8.7407,8.7407,8.7407,8.7407,8.7407,8.7407,8.7407,8.7407,8.7407,8.7407,0.0,0.0,0.0,0.0,0.0,0.0,0.0,0.0,0.0,0.0,0.0,0.0,6.6359,6.6397,6.6551,6.6898,6.6936,6.6936,6.6936,6.6936,6.6936,6.6936,6.6936,6.7167,6.7628,6.7628,6.7475,0.0,0.0,0.0,0.0,0.0,0.0,0.0,0.0,0.0,0.0,6.5897,6.5897,6.609,6.8129,6.9244,6.986,7.1398,7.2629,7.3553,7.3899,7.4014,7.413,7.4976,7.4361,7.3129,7.2668,7.2245,7.2091,7.2591,7.2976,0.0,0.0,0.0,7.5361,7.5861,0.0,0.0,7.8207,7.89,8.0092,8.2978,8.3593,8.4093,8.5786,8.6094,8.6094,8.6094,8.6094,8.6094,8.6094,8.6094,8.6094,8.6094,8.6177,8.6317,8.6389,8.6728,8.702,8.7092,8.7282,8.7407,8.7407,8.7407,8.7407,8.7407,8.7407,8.7407,8.7407,8.7407,8.7407,8.7407,8.7407,8.7407,8.7407,8.7407,8.7407,8.7407,8.7407,8.7407,8.7407,8.7407,8.7407,8.7407,8.7407,8.7407,8.7407,8.7407,8.7407,8.7407,0.0,0.0,0.0,0.0,0.0,0.0,0.0,0.0,0.0,0.0,6.6128,6.6436,6.7167,6.7244,6.7552,6.8321,6.8398,6.8398,6.8398,6.8398,6.8398,6.8398,6.8398,6.8475,6.8552,6.8475,6.8013,6.7244,0.0,0.0,0.0,0.0,0.0,0.0,0.0,0.0,0.0,6.6013,6.609,6.6359,6.8744,6.9821,7.0244,7.2706,7.3707,7.386,7.4591,7.4899,7.513,7.5861,7.563,7.4938,7.4784,7.4284,7.3783,7.3668,7.4207,7.4861,0.0,0.0,0.0,7.6015,7.6015,0.0,7.813,7.8477,7.9438,8.2747,8.3439,8.3939,8.5517,8.5824,8.5824,8.5824,8.5901,8.6017,8.6094,8.6094,8.6094,8.6094,8.6094,8.6184,8.6389,8.6661,8.6882,8.7078,8.7282,8.7407,8.7407,8.7407,8.7407,8.7407,8.7407,8.7407,8.7407,8.7407,8.7407,8.7407,8.7407,8.7407,8.7407,8.7407,8.7407,8.7407,8.7407,8.7407,8.7407,8.7407,8.7407,8.7407,8.7407,8.7407,8.7407,8.7407,8.7407,8.7407,0.0,0.0,0.0,0.0,0.0,0.0,0.0,0.0,0.0,0.0,6.7475,6.7975,6.8129,6.8167,6.8205,6.8398,6.8398,6.8398,6.8398,6.8398,6.8398,6.8398,6.8398,6.8744,6.9436,6.8783,6.8321,6.8167,0.0,0.0,0.0,0.0,0.0,0.0,0.0,0.0,0.0,6.659,6.7282,6.8013,6.9206,7.0514,7.1898,7.3745,7.4899,7.5515,7.5707,7.6207,7.6823,7.6976,7.6938,7.6553,7.513,7.5091,7.5361,7.4668,7.5091,7.5745,7.5745,7.5861,7.6015,7.6015,7.6015,0.0,7.813,7.8477,7.9246,8.1977,8.2554,8.2862,8.3901,8.4093,8.4093,8.4093,8.467,8.5363,8.6017,8.6094,8.6094,8.6094,8.6094,8.6184,8.6389,8.6661,8.6882,8.7078,8.7282,8.7407,8.7407,8.7407,8.7407,8.7407,8.7407,8.7407,8.7407,8.7407,8.7407,8.7407,8.7407,8.7407,8.7407,8.7407,8.7407,8.7407,8.7407,8.7407,8.7407,8.7407,8.7407,8.7407,8.7407,8.7407,8.7407,8.7407,8.7407,8.7407,0.0,0.0,0.0,0.0,0.0,0.0,0.0,0.0,6.7744,6.7744,6.8129,6.859,6.9013,6.8667,6.859,6.9013,6.8667,6.8398,6.8398,6.8398,6.8398,6.8398,6.8398,6.859,6.9052,6.8629,6.8205,6.7744,0.0,0.0,0.0,0.0,0.0,0.0,0.0,0.0,0.0,6.6936,6.809,6.9706,7.0591,7.1706,7.3014,7.4707,7.563,7.6053,7.6476,7.7169,7.79,7.79,7.79,7.7746,7.6861,7.6899,7.7092,7.6245,7.6322,7.6553,7.613,7.6015,7.6015,7.6015,7.6322,0.0,0.0,7.8823,7.9746,8.1862,8.2285,8.2554,8.3439,8.3593,8.3593,8.3593,8.4324,8.4901,8.4863,8.5555,8.6094,8.6094,8.6094,8.612,8.6238,8.6592,8.6917,8.7253,8.7347,8.7407,8.7407,8.7407,8.7407,8.7407,8.7407,8.7407,8.7407,8.7407,8.7407,8.7407,8.7407,8.7407,8.7407,8.7407,8.7407,8.7407,8.7407,8.7407,8.7407,8.7407,8.7407,8.7407,8.7407,8.7407,8.7407,8.7407,8.7407,8.7407,0.0,0.0,0.0,0.0,0.0,0.0,0.0,0.0,6.8706,6.8859,6.8898,6.9167,6.986,6.9321,6.9167,6.986,6.9283,6.8821,6.8667,6.8667,6.859,6.8398,6.8398,6.8398,6.8398,6.8244,6.7782,6.709,0.0,0.0,0.0,0.0,0.0,0.0,0.0,0.0,0.0,6.7628,6.9129,7.1245,7.2091,7.2976,7.3899,7.5438,7.6092,7.6361,7.74,7.8207,7.8784,7.8938,7.89,7.8746,7.8746,7.8746,7.8554,7.7592,7.74,7.7323,7.6284,7.613,7.6245,7.6245,7.6899,7.7746,0.0,0.0,0.0,8.1747,8.2054,8.2285,8.2978,8.3131,8.3016,8.267,8.3632,8.4055,8.3016,8.4439,8.567,8.5863,8.6017,8.6126,8.6153,8.6544,8.6933,8.7291,8.7347,8.7354,8.7407,8.7407,8.7407,8.7407,8.7407,8.7407,8.7407,8.7407,8.7407,8.7407,8.7407,8.7407,8.7407,8.7407,8.7407,8.7407,8.7407,8.7407,8.7407,8.7407,8.7407,8.7407,8.7407,8.7407,8.7407,8.7407,8.7407,8.7407,6.8136,6.8191,0.0,0.0,0.0,0.0,0.0,0.0,6.9821,7.0514,7.0629,7.0667,7.0744,0.0,0.0,0.0,0.0,7.0321,6.959,6.9552,6.9206,6.8436,6.8398,6.8398,6.8398,6.7628,6.7205,6.709,0.0,0.0,0.0,0.0,0.0,0.0,6.7436,0.0,6.7244,6.9513,7.1091,7.2129,7.3014,7.386,7.4668,7.563,7.6476,7.7361,7.8938,7.9592,7.9785,8.0554,8.0285,7.9669,7.9669,7.9669,7.9323,7.7746,7.7784,7.8015,7.6438,7.6553,7.713,7.713,7.7746,7.8592,7.9477,0.0,8.0092,8.1054,0.0,8.1285,8.1362,0.0,0.0,7.9323,8.1054,8.2054,8.0439,8.2324,8.417,8.4939,8.567,8.6184,8.6335,8.6638,8.6882,8.7105,8.7118,8.7203,8.7401,8.7407,8.7407,8.7407,8.7407,8.7407,8.7407,8.7407,8.7407,8.7407,8.7407,8.7407,8.7407,8.7407,8.7407,8.7407,8.7407,8.7407,8.7407,8.7407,8.7407,8.7407,8.7407,8.7407,8.7407,8.7407,8.7407,8.7407,6.9011,6.8963,0.0,0.0,6.9778,6.9805,6.9805,7.014,7.0514,7.086,7.0898,7.0898,0.0,0.0,0.0,0.0,0.0,6.909,0.0,0.0,6.7821,6.6974,6.6936,6.6936,6.6936,6.659,6.6397,6.6397,6.6051,0.0,0.0,0.0,0.0,0.0,6.7859,6.8744,6.936,7.0437,7.1975,7.363,7.3553,7.4591,7.6245,7.663,7.7592,7.8823,7.9554,8.0131,8.0592,8.0977,8.0862,8.0554,8.0554,8.0554,8.0323,7.9092,7.8977,7.8977,7.7784,7.8092,7.8746,7.8746,7.9746,8.0785,8.117,8.1631,8.2093,8.2477,0.0,0.0,0.0,0.0,0.0,0.0,8.1593,8.19,8.0708,8.2324,8.3901,8.4786,8.5209,8.5683,8.6351,8.6093,8.6203,8.7039,8.6624,8.6646,8.7362,8.7407,8.7407,8.7407,8.7407,8.7407,8.7407,8.7407,8.7407,8.7407,8.7407,8.7407,8.7407,8.7407,8.7407,8.7407,8.7407,8.7407,8.7407,8.7407,8.7407,8.7407,8.7407,8.7407,8.7407,8.7407,8.7407,8.7407,0.0,0.0,0.0,0.0,7.0758,7.0815,7.0815,7.0679,7.0667,7.086,7.0706,7.0667,7.0898,7.0398,0.0,0.0,6.9436,6.8706,0.0,0.0,6.7205,6.659,6.6167,6.6013,6.6205,6.6013,6.5897,6.5897,6.5897,0.0,0.0,0.0,0.0,0.0,0.0,6.9975,7.0937,7.1668,7.3014,7.4668,7.4322,7.5553,7.763,7.79,7.8746,7.9823,8.0092,8.0554,8.1093,8.1093,8.0939,8.0785,8.1016,8.0939,8.0631,7.9977,7.9977,7.9977,7.9092,7.9631,8.0477,8.0477,8.1593,8.267,8.267,8.3131,8.3593,8.3593,8.3593,0.0,0.0,0.0,8.2439,8.1747,0.0,8.1862,8.0554,8.1862,8.3208,8.4093,8.4632,8.5267,8.624,8.5805,8.5885,8.6927,8.6451,8.6455,8.7362,8.7407,8.7407,8.7407,8.7407,8.7407,8.7407,8.7407,8.7407,8.7407,8.7407,8.7407,8.7407,8.7407,8.7407,8.7407,8.7407,8.7407,8.7407,8.7407,8.7407,8.7407,8.7407,8.7407,8.7407,8.7407,8.7407,8.7407,7.0381,7.057,0.0,0.0,7.0843,7.0898,7.0898,7.0244,7.0014,7.0783,7.0206,7.0052,0.0,0.0,0.0,0.0,0.0,7.0475,6.9667,0.0,6.8359,6.8321,6.6782,6.6244,6.7051,6.6282,6.5897,6.5897,6.5897,0.0,0.0,0.0,0.0,0.0,7.0975,7.1629,7.1052,7.3514,7.463,7.4784,7.5592,7.6938,7.8554,7.94,7.9746,7.99,8.0746,8.1093,8.1093,8.1093,8.0554,7.9977,8.0823,8.0516,7.9862,7.9823,8.04,8.0862,8.0015,8.0977,8.2208,8.2208,8.2901,8.3555,8.3555,8.3555,8.3593,8.3593,8.3593,8.3593,8.3593,8.3555,8.2747,8.0285,8.1246,0.0,0.0,8.0092,8.1477,8.2285,8.3862,8.5209,8.6017,8.6094,8.6259,8.6767,8.6768,8.6966,8.7401,8.7407,8.7407,8.7407,8.7407,8.7407,8.7407,8.7407,8.7407,8.7407,8.7407,8.7407,8.7407,8.7407,8.7407,8.7407,8.7407,8.7407,8.7407,8.7407,8.7407,8.7407,8.7407,8.7407,8.7407,8.7407,8.7407,8.7407,0.0,0.0,0.0,0.0,7.0609,7.0737,7.0815,7.0584,7.0508,7.0777,7.0584,7.0508,0.0,7.1324,7.1689,0.0,0.0,7.2014,7.0591,7.0206,0.0,6.9283,6.8167,6.7936,6.8783,6.7975,6.7552,6.7552,6.7552,0.0,0.0,0.0,0.0,0.0,0.0,7.1755,7.2582,7.4004,7.5272,7.6348,7.7232,7.7946,7.8592,7.9477,7.9823,7.99,8.0785,8.1093,8.1093,8.1093,8.09,8.0708,8.1016,8.1246,8.1439,8.1439,8.2054,8.267,8.2401,8.3131,8.4016,8.4016,8.4632,8.5247,8.5247,8.5247,8.5247,8.5247,8.5247,8.5247,8.5247,8.4824,8.417,8.3324,8.267,8.2016,0.0,8.1054,8.14,8.2208,8.3824,8.5016,8.5286,8.5324,8.5719,8.6728,8.6282,8.6382,8.7362,8.7407,8.7407,8.7407,8.7407,8.7407,8.7407,8.7407,8.7407,8.7407,8.7407,8.7407,8.7407,8.7407,8.7407,8.7407,8.7407,8.7407,8.7407,8.7407,8.7407,8.7407,8.7407,8.7407,8.7407,8.7407,8.7407,8.7486,7.0419,0.0,0.0,0.0,7.0585,7.0678,7.0729,7.0489,7.0412,7.0719,7.0758,7.0882,7.1091,7.1986,7.2515,7.2515,7.3111,7.3014,7.1898,7.1514,0.0,7.1052,6.9937,6.9706,7.0552,6.9436,6.8859,6.8859,6.8552,6.8552,0.0,0.0,0.0,0.0,0.0,7.2237,7.376,7.4605,7.5948,7.756,7.8168,7.8391,7.85,7.9345,7.9722,7.9876,8.069,8.0997,8.0997,8.0997,8.0997,8.1036,8.1343,8.1798,8.233,8.2638,8.333,8.4055,8.4055,8.467,8.5324,8.5324,8.5709,8.6094,8.6094,8.6094,8.6094,8.6094,8.6094,8.6094,8.6094,8.567,8.5247,8.4939,8.3978,8.3016,0.0,8.1593,8.1285,8.1823,8.3401,8.4555,8.4863,8.517,8.5757,8.6728,8.6282,8.6382,8.7362,8.7407,8.7407,8.7407,8.7407,8.7407,8.7407,8.7407,8.7407,8.7407,8.7407,8.7407,8.7407,8.7407,8.7407,8.7407,8.7407,8.7407,8.7407,8.7407,8.7407,8.7407,8.7407,8.7407,8.7407,8.7407,8.7603,8.7954,0.0,0.0,7.0451,7.0554,7.0647,7.0708,7.0708,6.9979,6.9787,7.0631,7.0746,7.1061,7.1866,7.2801,7.336,7.336,7.3495,7.3563,7.3524,7.2783,0.0,7.3486,7.1937,7.1437,7.2283,7.0667,6.9821,0.0,0.0,0.0,0.0,0.0,0.0,0.0,7.1708,7.2993,7.4619,7.5386,7.6728,7.8267,7.83,7.83,7.8377,7.9182,7.956,7.978,8.052,8.0792,8.0792,8.0831,8.0869,8.0984,8.1828,8.2203,8.2463,8.3231,8.4181,8.4978,8.4978,8.5517,8.6094,8.6094,8.6094,8.6094,8.6094,8.6094,8.6094,8.6094,8.6094,8.6094,8.6094,8.6094,8.5863,8.5093,8.4939,8.4324,8.2593,8.1708,8.1208,8.1208,8.267,8.3978,8.4747,8.5593,8.6298,8.6747,8.6767,8.695,8.7354,8.7401,8.7401,8.7407,8.7407,8.7407,8.7407,8.7407,8.7407,8.7407,8.7407,8.7407,8.7407,8.7407,8.7407,8.7407,8.7407,8.7407,8.7407,8.7407,8.7407,8.7407,8.7407,8.7407,8.7407,8.7446,8.7993,8.8696,7.0419,7.0419,7.0419,7.0451,7.0451,7.0515,7.0616,7.0425,7.0578,7.142,7.1535,7.181,7.2625,7.3565,7.4095,7.4095,7.4765,7.4873,7.4298,7.4029,7.4029,7.4221,7.3185,7.3031,7.3875,7.2323,7.1468,7.1468,7.0623,0.0,7.0508,0.0,0.0,0.0,7.185,7.3169,7.5327,7.5556,7.659,7.816,7.816,7.8194,7.8377,7.9083,7.9389,7.9574,8.0486,8.0792,8.0907,8.1483,8.1713,8.1828,8.2741,8.347,8.4045,8.4412,8.4998,8.5616,8.5753,8.5906,8.6065,8.606,8.6094,8.6094,8.6094,8.6094,8.6094,8.6094,8.6094,8.6094,8.6094,8.6094,8.6017,8.5824,8.5286,8.4516,8.3401,8.3093,8.2939,8.2939,8.3901,8.4401,8.3978,8.5247,8.6177,8.6494,8.6519,8.6687,8.7169,8.7181,8.7263,8.7407,8.7407,8.7407,8.7407,8.7407,8.7407,8.7407,8.7407,8.7407,8.7407,8.7407,8.7407,8.7407,8.7407,8.7407,8.7407,8.7407,8.7407,8.7407,8.7407,8.7407,8.7486,8.8149,8.8501,8.8891,7.0419,7.0419,7.0419,7.0419,7.0724,7.0992,7.1057,7.1057,7.1363,7.2204,7.2625,7.3046,7.3476,7.4346,7.491,7.491,7.543,7.5501,7.5041,7.5002,7.5002,7.5002,7.4542,7.4542,7.5002,7.3768,7.2954,7.2571,7.1688,0.0,7.0767,0.0,0.0,0.0,7.2256,7.3603,7.5608,7.6717,7.752,7.8094,7.8476,7.8665,0.0,7.9549,8.0084,8.0542,8.1456,8.1569,8.1341,8.2145,8.2413,8.2603,8.352,8.4094,8.4629,8.512,8.5506,8.5852,8.5958,8.5958,8.6031,8.6065,8.606,8.6094,8.6094,8.6094,8.6094,8.6094,8.6094,8.6094,8.6094,8.6094,8.6094,8.6094,8.544,8.4747,8.4247,8.3824,8.3593,8.3593,8.4362,8.4555,8.367,8.5132,8.603,8.5887,8.5875,8.601,8.6389,8.648,8.6584,8.6687,8.6808,8.7017,8.7407,8.7017,8.7017,8.7407,8.7407,8.7407,8.7407,8.7407,8.7407,8.7407,8.7407,8.7407,8.7407,8.7407,8.7407,8.7407,8.7407,8.7407,8.7564,8.8813,8.9281,8.9477,7.0419,7.0495,7.0539,7.0506,7.1193,7.1769,7.1811,7.1769,7.2105,7.3055,7.3709,7.417,7.4354,7.5111,7.5566,7.5566,7.5666,7.566,7.566,7.566,7.566,7.566,7.566,7.566,7.566,7.4894,7.405,7.32,7.2402,0.0,0.0,7.1674,7.2065,7.2154,7.2887,7.4117,7.5806,7.8137,7.8672,7.8099,7.9054,7.9436,7.9551,8.0468,8.1308,8.2073,8.2875,8.2646,8.2073,8.2875,8.3181,8.3295,8.4213,8.4519,8.4672,8.5475,8.5742,8.5779,8.5815,8.5887,8.5961,8.5996,8.6065,8.606,8.606,8.6094,8.6094,8.6094,8.6094,8.6094,8.6094,8.6094,8.6094,8.6094,8.5517,8.5055,8.5055,8.4401,8.3939,8.3939,8.4593,0.0,8.367,8.5016,8.5683,8.5048,8.4971,8.5139,8.5427,8.5665,8.5818,8.5935,8.615,8.6581,8.7198,8.6581,8.6588,8.7212,8.7368,8.7407,8.7407,8.7407,8.7407,8.7407,8.7407,8.7407,8.7407,8.7407,8.7362,8.7354,8.7401,8.7362,8.7588,8.9359,8.9984,9.014,7.0419,7.0992,7.135,7.0952,7.156,7.2202,7.2472,7.2271,7.2585,7.3823,7.3763,7.403,7.516,7.5421,7.5535,7.5535,7.5535,7.557,7.557,7.557,7.557,7.557,7.557,7.557,7.557,7.4724,7.3915,7.3144,7.299,0.0,0.0,7.2434,7.3165,7.3815,7.3968,7.4927,7.657,7.7717,7.8137,7.8137,7.9665,8.0277,8.0468,8.1958,8.2646,8.2875,8.3754,8.3524,8.2913,8.3792,8.4059,8.4212,8.5169,8.5399,8.536,8.5704,8.5667,8.559,8.5779,8.5779,8.578,8.5815,8.5923,8.6031,8.6031,8.6026,8.6094,8.6094,8.6094,8.6094,8.6094,8.6094,8.6094,8.6094,8.5978,8.5901,8.5901,8.5747,8.567,8.567,8.5786,8.5286,8.3747,8.4516,8.478,8.3957,8.388,8.4301,8.5216,8.5445,8.5873,8.6612,8.6969,8.6831,8.6077,8.6823,8.69,8.6353,8.7056,8.7407,8.7407,8.7407,8.7407,8.7407,8.7407,8.7407,8.7407,8.7407,8.7291,8.7181,8.7338,8.7282,8.7376,8.9298,8.9984,9.0218,7.0951,7.1331,7.1517,7.1312,7.1912,7.2504,7.2695,7.2725,7.3093,7.3979,7.3893,7.4124,7.4981,7.5095,7.5208,7.5501,7.5883,7.6112,7.6112,7.6532,7.68,7.68,7.68,7.68,7.68,7.6415,7.5608,7.4346,7.4346,0.0,0.0,7.328,7.3819,7.424,7.5119,7.5959,7.68,7.8099,7.8901,7.9398,8.0659,8.1423,8.192,8.3181,8.3677,8.3792,8.4632,8.4632,8.4365,8.4785,8.4938,8.4976,8.5475,8.5551,8.5511,8.5628,8.559,8.5511,8.5628,8.5704,8.5742,8.5815,8.5923,8.6065,8.6065,8.606,8.6094,8.6094,8.6094,8.6094,8.6094,8.6094,8.6094,8.6094,8.6094,8.6094,8.6094,8.6094,8.6094,8.6094,8.6094,8.5632,8.4401,8.4247,8.4055,8.3632,8.3593,8.4003,8.4995,8.523,8.5529,8.5956,8.6255,8.6416,8.6468,8.6416,8.6529,8.6783,8.7087,8.7282,8.7407,8.7282,8.7263,8.7253,8.7118,8.7078,8.7078,8.7078,8.7035,8.6933,8.705,8.7035,8.7167,8.8973,8.965,8.9911,7.1524,7.1636,7.1779,7.1874,7.2548,7.31,7.3191,7.3476,7.3722,7.3954,7.4066,7.4281,7.4762,7.5081,7.5395,7.5815,7.6535,7.6991,7.6991,7.764,7.8022,7.8022,7.8022,7.8022,7.8022,7.8022,7.7258,7.5768,7.5768,7.4966,7.3552,7.4163,7.4584,7.4813,7.6112,7.6955,7.7417,7.8903,8.0087,8.0926,8.1765,8.2606,8.3372,8.4133,8.4439,8.4632,8.5282,8.5511,8.5511,8.5511,8.5511,8.5511,8.5511,8.5511,8.5511,8.5511,8.5511,8.5511,8.5511,8.5628,8.5742,8.5779,8.5923,8.6026,8.606,8.6094,8.6094,8.6094,8.6094,8.6094,8.6094,8.6094,8.6094,8.6094,8.6094,8.6094,8.6094,8.6094,8.6094,8.6094,8.594,8.5593,8.4978,8.3939,8.3401,8.3593,8.3439,8.3785,8.4863,8.4899,8.4997,8.5137,8.5358,8.5796,8.6405,8.599,8.6194,8.7,8.7027,8.7157,8.7338,8.7105,8.7064,8.7078,8.6882,8.6787,8.6787,8.6787,8.6767,8.6726,8.6767,8.6767,8.692,8.867,8.9313,8.9586,7.1524,7.2087,7.2698,7.2992,7.3759,7.4418,7.4638,7.4742,7.4589,7.4056,7.43,7.4597,7.5098,7.623,7.6979,7.7021,7.7532,7.787,7.787,7.7946,7.8022,7.8022,7.8022,7.8022,7.8022,7.8022,7.7526,7.657,7.657,7.6112,7.5271,7.5348,7.5768,7.6456,7.6647,7.7684,7.9448,8.0125,8.1037,8.2102,8.2899,8.3616,8.4211,8.4518,8.4991,8.5397,8.5473,8.5511,8.5511,8.5511,8.5511,8.5511,8.5511,8.5511,8.5511,8.5511,8.5511,8.5511,8.5511,8.5511,8.5551,8.5667,8.5779,8.5852,8.5996,8.6065,8.6094,8.6094,8.6094,8.6094,8.6094,8.6094,8.6094,8.6094,8.6094,8.6094,8.6094,8.6094,8.6094,8.6094,8.5478,8.4978,8.4901,8.3401,8.2747,8.3516,8.2862,8.3131,8.4824,8.4319,8.4298,8.4927,8.5328,8.5074,8.4209,8.5851,8.6341,8.5699,8.6477,8.6917,8.7105,8.6899,8.6917,8.7078,8.6882,8.6787,8.6787,8.6787,8.6661,8.6468,8.6704,8.6661,8.6662,8.8567,8.9313,8.9546,7.3569,7.3828,7.407,7.4162,7.4531,7.4806,7.4845,7.4918,7.4838,7.4552,7.4663,7.494,7.5455,7.6007,7.6545,7.7164,7.7865,7.8445,7.8787,7.9245,7.9513,7.9513,7.9513,7.9513,7.9513,7.9513,7.9092,7.8252,7.7755,7.7067,7.6227,7.5894,7.6,7.6582,7.79,7.8798,7.9293,8.0461,8.1557,8.2497,8.2798,8.3397,8.4117,8.4513,8.4627,8.4627,8.527,8.5311,8.5062,8.5393,8.5511,8.5511,8.5511,8.5511,8.5511,8.5511,8.5511,8.5511,8.5511,8.5551,8.5628,8.5742,8.5815,8.5923,8.6026,8.606,8.6094,8.6094,8.6094,8.6094,8.6094,8.6094,8.6094,8.6094,8.6094,8.6094,8.6094,8.6094,8.6094,8.6094,8.5824,8.5632,8.5632,8.4093,8.3439,8.4324,8.3093,8.2824,8.4055,8.4373,8.4373,8.4132,8.5227,8.5473,8.4675,8.5821,8.6339,8.6282,8.6444,8.6704,8.6899,8.6683,8.6544,8.6494,8.6428,8.6373,8.6373,8.6373,8.6327,8.6238,8.6356,8.6288,8.6392,8.7669,8.8499,8.9117,7.4918,7.4918,7.4992,7.5212,7.5249,7.5322,7.5579,7.5616,7.5616,7.5616,7.5616,7.5684,7.5791,7.6198,7.67,7.74,7.8321,7.9001,7.94,8.0087,8.0506,8.0506,8.0506,8.0506,8.0506,8.0506,8.0163,7.94,7.8561,7.7722,7.6996,7.6592,7.6655,7.719,7.9001,7.9763,7.9875,8.1154,8.2039,8.2719,8.2719,8.3201,8.3937,8.4105,8.4092,8.3989,8.4757,8.4803,8.4533,8.4892,8.5148,8.5311,8.5471,8.5511,8.5511,8.5511,8.5511,8.5511,8.5511,8.5551,8.5667,8.5742,8.5852,8.5958,8.6026,8.606,8.6094,8.6094,8.6094,8.6094,8.6094,8.6094,8.6094,8.6094,8.6094,8.6094,8.6094,8.6094,8.6094,8.6094,8.5901,8.5863,8.6094,8.4593,8.3939,8.4824,8.3516,8.3054,8.3939,8.4324,8.4362,8.3978,8.5132,8.5568,8.512,8.576,8.6268,8.6592,8.6389,8.6442,8.6683,8.6494,8.6288,8.6094,8.6094,8.6094,8.6094,8.6094,8.6094,8.6094,8.6094,8.6094,8.6209,8.7094,8.794,8.8825,7.4918,7.4918,7.5175,7.5946,7.6093,7.635,7.7157,7.7304,7.7304,7.7304,7.7304,7.6974,7.6166,7.7308,7.809,7.809,7.9085,7.9708,7.967,8.0199,8.0506,8.0506,8.0506,8.0506,8.0506,8.0506,8.0238,7.9708,7.8874,7.8195,7.7689,7.7603,7.8053,7.8916,7.9742,8.0704,8.1768,8.2345,8.2723,8.2994,8.2994,8.3396,8.3832,8.3227,8.3396,8.3885,8.3937,8.3937,8.3937,8.3937,8.4292,8.4803,8.5352,8.5511,8.5511,8.5511,8.5511,8.5511,8.5511,8.5511,8.5551,8.5667,8.5742,8.5852,8.5996,8.6026,8.6094,8.6094,8.6094,8.6094,8.6094,8.6094,8.6094,8.6094,8.6094,8.6094,8.6094,8.6094,8.6094,8.6094,8.5401,8.5247,8.6017,8.4593,8.3939,8.4824,8.4093,8.3939,8.4863,8.4093,8.4016,8.4863,8.4901,8.4901,8.4901,8.5709,8.6094,8.6094,8.6094,8.6208,8.6416,8.6416,8.6288,8.6094,8.6094,8.6094,8.6094,8.6094,8.6094,8.6094,8.6094,8.6094,8.6209,8.7094,8.794,8.8825,7.5616,7.5726,7.5983,7.679,7.6937,7.7011,7.7268,7.7304,7.7304,7.7304,7.7304,7.7231,7.6974,7.7303,7.771,7.8072,7.8416,7.8741,7.9133,7.9665,7.9958,7.9958,8.0277,8.0354,7.9958,7.9958,7.9708,7.9133,7.8342,7.7978,7.7974,7.8353,7.8842,7.9564,8.0748,8.1244,8.1292,8.2055,8.2363,8.2434,8.2434,8.256,8.2769,8.2913,8.2913,8.283,8.3618,8.3618,8.334,8.3779,8.4041,8.4193,8.4341,8.4892,8.5511,8.5511,8.5511,8.5511,8.5511,8.5511,8.5551,8.5667,8.5742,8.5852,8.5996,8.6065,8.6094,8.6094,8.6094,8.6094,8.6094,8.6094,8.6094,8.6094,8.6094,8.6094,8.6094,8.5632,8.5286,8.5286,8.4516,8.4362,8.5209,8.4247,8.3708,8.3978,8.3208,8.3093,8.3978,8.4324,8.4324,8.4016,8.5132,8.544,8.4901,8.5709,8.6094,8.6094,8.6094,8.6159,8.6215,8.6215,8.6153,8.6094,8.6094,8.6094,8.6094,8.6094,8.6094,8.6094,8.6094,8.6094,8.6132,8.6401,8.7055,8.794,7.6387,7.657,7.6717,7.7231,7.7304,7.7304,7.7304,7.7304,7.7304,7.7304,7.7304,7.7304,7.7304,7.7304,7.7389,7.7768,7.796,7.8255,7.8588,7.9085,7.9403,7.9403,7.9708,7.9751,7.9403,7.9403,7.9171,7.8588,7.8229,7.8276,7.8729,7.9391,7.9866,8.0277,8.1452,8.1759,8.1489,8.2003,8.2186,8.2186,8.2186,8.2186,8.2251,8.256,8.2497,8.2316,8.2972,8.3032,8.2769,8.3148,8.3396,8.3563,8.3563,8.4193,8.4937,8.5148,8.5352,8.5511,8.5511,8.5511,8.5511,8.559,8.5704,8.5779,8.5961,8.6065,8.6094,8.6094,8.6094,8.6094,8.6094,8.6094,8.6094,8.6094,8.6094,8.5978,8.5709,8.5209,8.4901,8.4901,8.4439,8.4401,8.5286,8.4863,8.4555,8.4555,8.4016,8.3978,8.4516,8.4478,8.4439,8.4555,8.5555,8.5863,8.5363,8.5863,8.6094,8.6094,8.6094,8.6094,8.6094,8.6094,8.6094,8.6094,8.6094,8.6094,8.6094,8.6094,8.6094,8.6094,8.6094,8.6094,8.6094,8.6094,8.6632,8.7478,7.7084,7.7231,7.7268,7.7304,7.7304,7.7304,7.7304,7.7304,7.7304,7.7304,7.7304,7.7304,7.7304,7.7304,7.7304,7.7304,7.7768,7.8035,7.8035,7.8536,7.8841,7.8841,7.8891,7.8891,7.8841,7.8916,7.87,7.8221,7.8528,7.9103,7.9874,8.0645,8.1048,8.1122,8.1856,8.2186,8.2186,8.2186,8.2186,8.2186,8.2186,8.2186,8.2186,8.2186,8.2186,8.2186,8.2186,8.2186,8.2186,8.2186,8.256,8.2972,8.2972,8.334,8.3937,8.4533,8.5062,8.5433,8.5511,8.5511,8.5511,8.5511,8.559,8.578,8.5961,8.6065,8.6094,8.6094,8.6094,8.6094,8.6094,8.6094,8.6094,8.6094,8.6094,8.5824,8.5016,8.4901,8.4901,8.4824,8.4824,8.5132,8.594,8.6017,8.6017,8.6017,8.6017,8.6017,8.6017,8.4555,8.4439,8.6055,8.6094,8.6094,8.6094,8.6094,8.6094,8.6094,8.6094,8.6094,8.6094,8.6094,8.6094,8.6094,8.6094,8.6094,8.6094,8.6094,8.6094,8.6094,8.6094,8.6094,8.6094,8.6094,8.6594,8.7325,7.624,7.6387,7.6607,7.7194,7.7304,7.7304,7.7304,7.7304,7.7304,7.7304,7.7304,7.7304,7.7304,7.7304,7.7304,7.7304,7.7426,7.745,7.745,7.8016,7.8309,7.8309,7.869,7.869,7.8309,7.8905,7.924,7.9425,7.9459,7.991,8.0718,8.0901,8.1342,8.1929,8.2113,8.2186,8.2186,8.2186,8.2186,8.2186,8.2186,8.2186,8.2186,8.2186,8.2186,8.2186,8.2186,8.2186,8.2186,8.2186,8.2279,8.2407,8.2407,8.2769,8.3396,8.4438,8.4803,8.498,8.5393,8.5511,8.5511,8.5511,8.5628,8.5815,8.5961,8.6065,8.6094,8.6094,8.6094,8.6094,8.6094,8.6094,8.6094,8.6094,8.6094,8.5824,8.5016,8.4901,8.467,8.3978,8.3901,8.4247,8.5093,8.517,8.517,8.517,8.517,8.517,8.517,8.4824,8.5055,8.6055,8.6094,8.6094,8.6094,8.6094,8.6094,8.6094,8.6094,8.6094,8.6094,8.6094,8.6094,8.6094,8.6094,8.6094,8.6094,8.6094,8.6094,8.6094,8.6094,8.6094,8.6094,8.6094,8.6247,8.6517,7.6497,7.6644,7.679,7.7231,7.7304,7.7304,7.7304,7.7671,7.7892,7.7892,7.8222,7.8442,7.8442,7.8442,7.8442,7.8442,7.7745,7.7304,7.7304,7.757,7.771,7.771,7.8387,7.8666,7.8359,7.9135,7.9805,8.0351,8.0351,8.0571,8.1012,8.1012,8.1232,8.1636,8.1636,8.1856,8.2186,8.2186,8.2186,8.2186,8.2186,8.2186,8.2186,8.2186,8.2186,8.2186,8.2186,8.2186,8.2186,8.2186,8.2186,8.2186,8.2186,8.2407,8.2793,8.3634,8.4292,8.4757,8.5062,8.5311,8.5511,8.5511,8.5628,8.5779,8.5887,8.5958,8.606,8.6094,8.6094,8.6094,8.6094,8.6094,8.6094,8.6094,8.6094,8.5824,8.5016,8.4901,8.4709,8.4247,8.417,8.4516,8.5363,8.544,8.544,8.544,8.544,8.544,8.544,8.544,8.567,8.6094,8.6094,8.6094,8.6094,8.6094,8.6094,8.6094,8.6094,8.6094,8.6094,8.6094,8.6094,8.6094,8.6094,8.6094,8.6094,8.6094,8.6094,8.6094,8.6094,8.6094,8.6094,8.6094,8.6094,8.617,7.7194,7.7414,7.7524,7.7524,7.7598,7.7708,7.7708,7.8222,7.8589,7.8589,7.9066,7.9396,7.9396,7.9396,7.9396,7.9396,7.8112,7.7414,7.7671,7.7708,7.7708,7.7708,7.8259,7.8589,7.8589,7.925,8.0021,8.0828,8.0828,8.0828,8.0828,8.0938,8.1012,8.1012,8.1122,8.1562,8.2186,8.2186,8.2186,8.2186,8.2186,8.2186,8.2186,8.2186,8.2186,8.2186,8.2186,8.2186,8.2186,8.2186,8.2186,8.2186,8.2186,8.2186,8.2316,8.2769,8.3634,8.4486,8.4533,8.4937,8.5393,8.5471,8.559,8.5743,8.5779,8.5887,8.6031,8.606,8.6094,8.6094,8.6094,8.6094,8.6094,8.6094,8.6094,8.5824,8.5016,8.5016,8.5055,8.4901,8.5016,8.5363,8.6017,8.6094,8.6094,8.6094,8.6094,8.6094,8.6094,8.6094,8.6094,8.6094,8.6094,8.6094,8.6094,8.6094,8.6094,8.6094,8.6094,8.6094,8.6094,8.6094,8.6094,8.6094,8.6094,8.6094,8.6094,8.6094,8.6094,8.6094,8.6094,8.6094,8.6094,8.6094,8.6094,8.6094,7.7304,7.7892,7.8405,7.8405,7.8956,7.9396,7.9396,7.8956,7.8589,7.8589,7.8075,7.7708,7.7708,7.7708,7.7708,7.7708,7.7451,7.7928,7.9323,7.9396,7.9396,7.9396,7.8883,7.8589,7.8589,7.8699,7.9176,7.9984,7.9984,7.9984,7.9984,8.0681,8.1012,8.1048,8.1709,8.2076,8.2186,8.2186,8.2186,8.2186,8.2186,8.2186,8.2186,8.2186,8.2186,8.2186,8.2186,8.2186,8.2186,8.2186,8.2186,8.2186,8.2186,8.2186,8.2186,8.2279,8.2769,8.3396,8.3885,8.439,8.4937,8.5393,8.559,8.5743,8.5779,8.5887,8.6031,8.606,8.6094,8.6094,8.6094,8.6094,8.6094,8.6094,8.6094,8.5824,8.5016,8.5478,8.567,8.4978,8.5517,8.5978,8.6094,8.6094,8.6094,8.6094,8.6094,8.6094,8.6094,8.6094,8.6094,8.6094,8.6094,8.6094,8.6094,8.6094,8.6094,8.6094,8.6094,8.6094,8.6094,8.6094,8.6094,8.6094,8.6094,8.6094,8.6094,8.6094,8.6094,8.6094,8.6094,8.6094,8.6094,8.6094,8.6094,8.6094,7.7414,7.7635,7.7892,7.7892,7.8222,7.8442,7.8442,7.8552,7.8589,7.8589,7.8626,7.8662,7.8662,7.8662,7.8662,7.8662,7.8662,7.8956,7.9727,7.8956,7.8442,7.8442,7.8552,7.8809,7.9213,7.925,7.9433,7.98,8.0241,8.0204,7.98,8.0608,8.1012,8.1012,8.1379,8.1782,8.2186,8.2186,8.2186,8.2186,8.2186,8.2186,8.2186,8.2186,8.2186,8.2186,8.2186,8.2186,8.2186,8.2186,8.2186,8.2186,8.2186,8.2186,8.2186,8.2186,8.2622,8.3169,8.4092,8.4486,8.4848,8.5352,8.5551,8.5628,8.5704,8.5815,8.5923,8.5992,8.606,8.6094,8.6094,8.6094,8.6094,8.6094,8.6094,8.5978,8.5593,8.5863,8.5978,8.5593,8.5863,8.6094,8.6094,8.6094,8.6094,8.6094,8.6094,8.6094,8.6094,8.6094,8.6094,8.6094,8.6094,8.6094,8.6094,8.6094,8.6094,8.6094,8.6094,8.6094,8.6094,8.6094,8.6094,8.6094,8.6094,8.6094,8.6094,8.6094,8.6094,8.6094,8.6094,8.6094,8.6094,8.6094,8.6094,8.6094,7.7451,7.7488,7.7598,7.7598,7.7781,7.7892,7.7892,7.8295,7.8589,7.8589,7.8956,7.9213,7.9213,7.9213,7.9213,7.9213,7.9213,7.9213,7.9213,7.8038,7.7488,7.7855,7.8332,7.8772,7.9213,7.9396,7.9507,7.9507,8.0314,8.0388,7.98,8.0608,8.1012,8.1012,8.1195,8.1636,8.2186,8.2186,8.2186,8.2186,8.2186,8.2186,8.2186,8.2186,8.2186,8.2186,8.2186,8.2186,8.2186,8.2186,8.2186,8.2186,8.2186,8.2186,8.2186,8.2186,8.2622,8.3227,8.4242,8.458,8.4848,8.5352,8.5511,8.5551,8.5705,8.5742,8.5815,8.5961,8.5992,8.606,8.606,8.6094,8.6094,8.6094,8.6094,8.6094,8.6094,8.6094,8.6094,8.6094,8.6094,8.6094,8.6094,8.6094,8.6094,8.6094,8.6094,8.6094,8.6094,8.6094,8.6094,8.6094,8.6094,8.6094,8.6094,8.6094,8.6094,8.6094,8.6094,8.6094,8.6094,8.6094,8.6094,8.6094,8.6094,8.6094,8.6094,8.6094,8.6094,8.6094,8.6094,8.6094,8.6094,8.6094,8.6094,8.6094,7.7341,7.7965,7.8516,7.8516,7.9103,7.9617,7.9617,7.9029,7.8589,7.8589,7.7965,7.7488,7.7488,7.7488,7.7488,7.7488,7.7488,7.7488,7.7488,7.7378,7.8002,7.9543,7.8956,7.8259,7.7524,7.8295,7.8699,7.8699,7.947,7.9837,7.98,8.0608,8.1012,8.1048,8.1782,8.215,8.2186,8.2186,8.2186,8.2186,8.2186,8.2186,8.2186,8.2186,8.2186,8.2186,8.2186,8.2186,8.2186,8.2186,8.2186,8.2186,8.2186,8.2186,8.2186,8.2186,8.2622,8.3111,8.3779,8.4341,8.4848,8.5352,8.5511,8.5551,8.5705,8.5705,8.5704,8.5815,8.5887,8.5996,8.5996,8.6065,8.6094,8.6094,8.6094,8.6094,8.6094,8.6094,8.6094,8.6094,8.6094,8.6094,8.6094,8.6094,8.6094,8.6094,8.6094,8.6094,8.6094,8.6094,8.6094,8.6094,8.6094,8.6094,8.6094,8.6094,8.6094,8.6094,8.6094,8.6094,8.6094,8.6094,8.6094,8.6094,8.6094,8.6094,8.6094,8.6094,8.6094,8.6094,8.6094,8.6094,8.6094,8.6094,8.6094,8.6094,7.7414,7.7598,7.7818,7.7818,7.8075,7.8259,7.8259,7.8002,7.7818,7.7818,7.8002,7.8112,7.8112,7.8552,7.8846,7.8846,7.8846,7.8846,7.8846,7.8846,7.8919,7.9029,7.8772,7.8662,7.8846,7.9176,7.9323,7.9323,8.0131,8.0534,8.0571,8.1379,8.1746,8.1746,8.2039,8.2186,8.2186,8.2186,8.2186,8.2186,8.2186,8.2186,8.2186,8.2186,8.2186,8.2186,8.2186,8.2186,8.2186,8.2186,8.2186,8.2186,8.2186,8.2186,8.2186,8.2186,8.283,8.3618,8.3832,8.4292,8.4848,8.5352,8.5511,8.5511,8.5551,8.5628,8.5705,8.5704,8.5815,8.5887,8.5996,8.6031,8.6065,8.6094,8.6094,8.6094,8.6094,8.6094,8.6094,8.6094,8.6094,8.6094,8.6094,8.6094,8.6094,8.6094,8.6094,8.6094,8.6094,8.6094,8.6094,8.6094,8.6094,8.6094,8.6094,8.6094,8.6094,8.6094,8.6094,8.6094,8.6094,8.6094,8.6094,8.6094,8.6094,8.6094,8.6094,8.6094,8.6094,8.6094,8.6094,8.6094,8.6094,8.6094,8.6094,8.6094,7.7451,7.7304,7.7304,7.7304,7.7304,7.7304,7.7304,7.7561,7.7708,7.7708,7.8442,7.8993,7.8993,7.947,7.98,7.98,7.98,7.98,7.98,7.98,7.9543,7.8993,7.8993,7.9213,7.9764,8.0021,8.0167,8.0167,8.0975,8.1379,8.1379,8.1929,8.2186,8.2186,8.2186,8.2186,8.2186,8.2186,8.2186,8.2186,8.2186,8.2186,8.2186,8.2186,8.2186,8.2186,8.2186,8.2186,8.2186,8.2186,8.2186,8.2186,8.2186,8.2186,8.2186,8.2186,8.2972,8.3885,8.3885,8.439,8.5062,8.5393,8.5511,8.5511,8.5511,8.5551,8.5628,8.5628,8.5704,8.5815,8.5926,8.5996,8.6031,8.606,8.6094,8.6094,8.6094,8.6094,8.6094,8.6094,8.6094,8.6094,8.6094,8.6094,8.6094,8.6094,8.6094,8.6094,8.6094,8.6094,8.6094,8.6094,8.6094,8.6094,8.6094,8.6094,8.6094,8.6094,8.6094,8.6094,8.6094,8.6094,8.6094,8.6094,8.6094,8.6094,8.6094,8.6094,8.6094,8.6094,8.6094,8.6094,8.6094,8.6094,8.6094,8.6094,7.7304,7.7304,7.7304,7.7304,7.7341,7.7341,7.7341,7.8075,7.8589,7.8589,7.9286,7.98,7.98,7.98,7.98,7.98,7.98,7.98,7.98,7.98,7.98,7.98,7.98,7.98,7.98,8.0608,8.1012,8.1012,8.1819,8.2186,8.2186,8.2186,8.2186,8.2186,8.2186,8.2186,8.2186,8.2186,8.2186,8.2186,8.2186,8.2186,8.2186,8.2186,8.2186,8.2186,8.2186,8.2186,8.2186,8.2186,8.2186,8.2186,8.2186,8.2186,8.2186,8.2186,8.2972,8.3885,8.3885,8.4711,8.5511,8.5511,8.5511,8.5511,8.5511,8.5511,8.5511,8.5511,8.559,8.5704,8.5779,8.5887,8.6031,8.606,8.6094,8.6094,8.6094,8.6094,8.6094,8.6094,8.6094,8.6094,8.6094,8.6094,8.6094,8.6094,8.6094,8.6094,8.6094,8.6094,8.6094,8.6094,8.6094,8.6094,8.6094,8.6094,8.6094,8.6094,8.6094,8.6094,8.6094,8.6094,8.6094,8.6094,8.6094,8.6094,8.6094,8.6094,8.6094,8.6094,8.6094,8.6094,8.6094,8.6094,8.6094,8.6094,7.7304,7.7304,7.7304,7.7304,7.7818,7.8222,7.8222,7.8919,7.9433,7.9433,8.0131,8.0645,8.0645,8.1158,8.1489,8.1489,8.1489,8.1489,8.1489,8.1489,8.1489,8.1489,8.0938,8.0901,8.1452,8.1709,8.1819,8.1819,8.2076,8.2186,8.2186,8.2186,8.2186,8.2186,8.2186,8.2186,8.2186,8.2186,8.2186,8.2186,8.2186,8.2186,8.2186,8.2186,8.2186,8.2186,8.2186,8.2186,8.2186,8.2186,8.2186,8.2186,8.2186,8.2186,8.2186,8.2186,8.2708,8.334,8.3779,8.439,8.5062,8.5393,8.5511,8.5511,8.5511,8.5511,8.5511,8.5511,8.5551,8.559,8.5704,8.5779,8.5887,8.6031,8.606,8.6094,8.6094,8.6094,8.6094,8.6094,8.6094,8.6094,8.6094,8.6094,8.6094,8.6094,8.6094,8.6094,8.6094,8.6094,8.6094,8.6094,8.6094,8.6094,8.6094,8.6094,8.6094,8.6094,8.6094,8.6094,8.6094,8.6094,8.6094,8.6094,8.6094,8.6094,8.6094,8.6094,8.6094,8.6094,8.6094,8.6094,8.6094,8.6094,8.6094,8.6094,7.7304,7.7304,7.7414,7.7781,7.8259,7.8699,7.9029,7.9764,8.0277,8.0277,8.0975,8.1489,8.1489,8.1893,8.2186,8.2186,8.2186,8.2186,8.2186,8.2186,8.2186,8.2186,8.1746,8.1709,8.2186,8.2186,8.2186,8.2186,8.2186,8.2186,8.2186,8.2186,8.2186,8.2186,8.2186,8.2186,8.2186,8.2186,8.2186,8.2186,8.2186,8.2186,8.2186,8.2186,8.2186,8.2186,8.2186,8.2186,8.2186,8.2186,8.2186,8.2186,8.2186,8.2186,8.2186,8.2186,8.2622,8.3053,8.3452,8.4142,8.4803,8.5105,8.5352,8.5511,8.5511,8.5511,8.5511,8.5511,8.5511,8.5551,8.5705,8.5704,8.5779,8.5887,8.5958,8.5992,8.6026,8.6026,8.606,8.6094,8.6094,8.6094,8.6094,8.6094,8.6094,8.6094,8.6094,8.6094,8.6094,8.6094,8.6094,8.6094,8.6094,8.6094,8.6094,8.6094,8.6094,8.6094,8.6094,8.6094,8.6094,8.6094,8.6094,8.6094,8.6094,8.6094,8.6094,8.6094,8.6094,8.6094,8.6094,8.6094,8.6094,8.6094,8.6094,8.6094,7.7304,7.7378,7.7671,7.8479,7.8699,7.9066,7.98,8.0571,8.1122,8.1122,8.1746,8.2186,8.2186,8.2186,8.2186,8.2186,8.2186,8.2186,8.2186,8.2186,8.2186,8.2186,8.2186,8.2186,8.2186,8.2186,8.2186,8.2186,8.2186,8.2186,8.2186,8.2186,8.2186,8.2186,8.2186,8.2186,8.2186,8.2186,8.2186,8.2186,8.2186,8.2186,8.2186,8.2186,8.2186,8.2186,8.2186,8.2186,8.2186,8.2186,8.2186,8.2186,8.2186,8.2186,8.2186,8.2186,8.256,8.2972,8.3032,8.3795,8.4627,8.4711,8.5105,8.5511,8.5511,8.5511,8.5511,8.5511,8.5511,8.5551,8.5628,8.5705,8.5704,8.5779,8.5815,8.5852,8.5961,8.5996,8.6031,8.606,8.6094,8.6094,8.6094,8.6094,8.6094,8.6094,8.6094,8.6094,8.6094,8.6094,8.6094,8.6094,8.6094,8.6094,8.6094,8.6094,8.6094,8.6094,8.6094,8.6094,8.6094,8.6094,8.6094,8.6094,8.6094,8.6094,8.6094,8.6094,8.6094,8.6094,8.6094,8.6094,8.6094,8.6094,8.6094,8.6094,7.7304,7.7855,7.8369,7.8552,7.9653,8.0534,8.0718,8.1415,8.1929,8.1929,8.2076,8.2186,8.2186,8.2186,8.2186,8.2186,8.2186,8.2186,8.2186,8.2186,8.2186,8.2186,8.2186,8.2186,8.2186,8.2186,8.2186,8.2186,8.2186,8.2186,8.2186,8.2186,8.2186,8.2186,8.2186,8.2186,8.2186,8.2186,8.2186,8.2186,8.2186,8.2186,8.2186,8.2186,8.2186,8.2186,8.2186,8.2186,8.2186,8.2186,8.2186,8.2186,8.2186,8.2186,8.2186,8.2186,8.2316,8.2434,8.2913,8.3563,8.4193,8.458,8.5105,8.5511,8.5511,8.5511,8.5511,8.5511,8.5511,8.5511,8.5551,8.5628,8.5705,8.5704,8.5779,8.5815,8.5852,8.5923,8.5996,8.6031,8.606,8.6094,8.6094,8.6094,8.6094,8.6094,8.6094,8.6094,8.6094,8.6094,8.6094,8.6094,8.6094,8.6094,8.6094,8.6094,8.6094,8.6094,8.6094,8.6094,8.6094,8.6094,8.6094,8.6094,8.6094,8.6094,8.6094,8.6094,8.6094,8.6094,8.6094,8.6094,8.6094,8.6094,8.6094,8.6094,7.7855,7.8295,7.8846,7.9617,8.0461,8.1122,8.1525,8.1929,8.2186,8.2186,8.2186,8.2186,8.2186,8.2186,8.2186,8.2186,8.2186,8.2186,8.2186,8.2186,8.2186,8.2186,8.2186,8.2186,8.2186,8.2186,8.2186,8.2186,8.2186,8.2186,8.2186,8.2186,8.2186,8.2186,8.2186,8.2186,8.2186,8.2186,8.2186,8.2186,8.2186,8.2186,8.2186,8.2186,8.2186,8.2186,8.2186,8.2186,8.2186,8.2186,8.2186,8.2186,8.2186,8.2186,8.2186,8.2186,8.2186,8.2251,8.256,8.3264,8.3989,8.4242,8.4892,8.5511,8.5511,8.5511,8.5511,8.5511,8.5511,8.5511,8.5511,8.5551,8.559,8.559,8.5628,8.5704,8.5742,8.5779,8.589,8.5887,8.5992,8.606,8.6094,8.606,8.6099,8.6094,8.6094,8.6094,8.6094,8.6094,8.6094,8.6094,8.6094,8.6094,8.6094,8.6094,8.6094,8.6094,8.6094,8.6094,8.6094,8.6094,8.6094,8.6094,8.6094,8.6094,8.6094,8.6094,8.6094,8.6094,8.6094,8.6094,8.6094,8.6094,8.6094,8.6094,7.8479,7.8809,7.9433,8.0791,8.1122,8.1415,8.2113,8.2186,8.2186,8.2186,8.2186,8.2186,8.2186,8.2186,8.2186,8.2186,8.2186,8.2186,8.2186,8.2186,8.2186,8.2186,8.2186,8.2186,8.2186,8.2186,8.2186,8.2186,8.2186,8.2186,8.2186,8.2186,8.2186,8.2186,8.2186,8.2186,8.2186,8.2186,8.2186,8.2186,8.2186,8.2186,8.2186,8.2186,8.2186,8.2186,8.2186,8.2186,8.2186,8.2186,8.2186,8.2186,8.2186,8.2186,8.2186,8.2186,8.2186,8.2186,8.2186,8.2913,8.3779,8.3885,8.4665,8.5393,8.5471,8.5511,8.5511,8.5511,8.5511,8.5511,8.5511,8.5511,8.5511,8.5511,8.5511,8.5551,8.5628,8.5705,8.5704,8.5779,8.5887,8.5996,8.6099,8.6031,8.6031,8.6094,8.6094,8.6094,8.6094,8.6094,8.6094,8.6094,8.6094,8.6094,8.6094,8.6094,8.6094,8.6094,8.6094,8.6094,8.6094,8.6094,8.6094,8.6094,8.6094,8.6094,8.6094,8.6094,8.6094,8.6094,8.6094,8.6094,8.6094,8.6094,8.6094,8.6094,7.8589,7.9727,8.0755,8.0975,8.1562,8.2076,8.2186,8.2186,8.2186,8.2186,8.2186,8.2186,8.2186,8.2186,8.2186,8.2186,8.2186,8.2186,8.2186,8.2186,8.2186,8.2186,8.2186,8.2186,8.2186,8.2186,8.2186,8.2186,8.2186,8.2186,8.2186,8.2186,8.2186,8.2186,8.2186,8.2186,8.2186,8.2186,8.2186,8.2186,8.2186,8.2186,8.2186,8.2186,8.2186,8.2186,8.2186,8.2186,8.2186,8.2186,8.2186,8.2186,8.2186,8.2186,8.2186,8.2186,8.2186,8.2186,8.2186,8.2647,8.3227,8.3779,8.4341,8.4937,8.5393,8.5511,8.5511,8.5511,8.5511,8.5511,8.5511,8.5511,8.5511,8.5511,8.5511,8.5511,8.5511,8.5628,8.5705,8.5704,8.5779,8.5887,8.5996,8.5996,8.6031,8.6094,8.6094,8.6094,8.6094,8.6094,8.6094,8.6094,8.6094,8.6094,8.6094,8.6094,8.6094,8.6094,8.6094,8.6094,8.6094,8.6094,8.6094,8.6094,8.6094,8.6094,8.6094,8.6094,8.6094,8.6094,8.6094,8.6094,8.6094,8.6094,8.6094,8.6094,7.9837,8.0498,8.1158,8.1599,8.1966,8.2186,8.2186,8.2186,8.2186,8.2186,8.2186,8.2186,8.2186,8.2186,8.2186,8.2186,8.2186,8.2186,8.2186,8.2186,8.2186,8.2186,8.2186,8.2186,8.2186,8.2186,8.2186,8.2186,8.2186,8.2186,8.2186,8.2186,8.2186,8.2186,8.2186,8.2186,8.2186,8.2186,8.2186,8.2186,8.2186,8.2186,8.2186,8.2186,8.2186,8.2186,8.2186,8.2186,8.2186,8.2186,8.2186,8.2186,8.2186,8.2186,8.2186,8.2186,8.2186,8.2186,8.2186,8.2585,8.3111,8.3779,8.4292,8.4848,8.5352,8.5511,8.5511,8.5511,8.5511,8.5511,8.5511,8.5511,8.5511,8.5511,8.5511,8.5511,8.5511,8.5551,8.559,8.5705,8.5667,8.5704,8.5852,8.5887,8.5923,8.6065,8.606,8.6094,8.6094,8.6094,8.6094,8.6094,8.6094,8.6094,8.6094,8.6094,8.6094,8.6094,8.6094,8.6094,8.6094,8.6094,8.6094,8.6094,8.6094,8.6094,8.6094,8.6094,8.6094,8.6094,8.6094,8.6094,8.6094,8.6094,8.6094,8.6094]},{"header":{"parameterUnit":"m.s-1","parameterCategory":1,"la1":30.6,"la2":28.766,"lo1":-90.7593,"lo2":-88.6598,"dy":0.0162,"dx":0.0183,"nx":116,"ny":114,"refTime":"2023-03-10T06:00:00:Z","depth":0,"parameterNumber":3,"parameterNumberName":"V-component_of_WINDS"},"data":[0.0,0.0,0.0,0.0,0.0,0.0,0.0,0.0,0.0,0.0,0.0,0.0,0.0,0.0,0.0,0.0,0.0,0.0,0.0,0.0,0.0,0.0,0.0,0.0,0.0,0.0,0.0,0.0,0.0,0.0,0.0,0.0,0.0,0.0,0.0,0.0,0.0,0.0,0.0,0.0,0.0,0.0,0.0,0.0,0.0,0.0,0.0,0.0,0.0,0.0,0.0,0.0,0.0,0.0,0.0,0.0,0.0,0.0,0.0,0.0,0.0,0.0,0.0,0.0,0.0,0.0,0.0,0.0,0.0,0.0,0.0,0.0,0.0,0.0,0.0,0.0,0.0,0.0,0.0,0.0,0.0,0.0,0.0,0.0,0.0,0.0,0.0,0.0,0.0,0.0,0.0,0.0,0.0,0.0,0.0,0.0,0.0,0.0,0.0,0.0,0.0,0.0,0.0,0.0,0.0,0.0,0.0,0.0,0.0,0.0,0.0,0.0,0.0,0.0,0.0,0.0,0.0,0.0,0.0,0.0,0.0,0.0,0.0,0.0,0.0,0.0,0.0,0.0,0.0,0.0,0.0,0.0,0.0,0.0,0.0,0.0,0.0,0.0,0.0,0.0,0.0,0.0,0.0,0.0,0.0,0.0,0.0,0.0,0.0,0.0,0.0,0.0,0.0,0.0,0.0,0.0,0.0,0.0,0.0,0.0,0.0,0.0,0.0,0.0,0.0,0.0,0.0,0.0,0.0,0.0,0.0,0.0,0.0,0.0,0.0,0.0,0.0,0.0,0.0,0.0,0.0,0.0,0.0,0.0,0.0,0.0,0.0,0.0,0.0,0.0,0.0,0.0,0.0,0.0,0.0,0.0,0.0,0.0,0.0,0.0,0.0,0.0,0.0,0.0,0.0,0.0,0.0,0.0,0.0,0.0,0.0,0.0,0.0,0.0,0.0,0.0,0.0,0.0,0.0,0.0,0.0,0.0,0.0,0.0,0.0,0.0,0.0,0.0,0.0,0.0,0.0,0.0,0.0,0.0,0.0,0.0,0.0,0.0,0.0,0.0,0.0,0.0,0.0,0.0,0.0,0.0,0.0,0.0,0.0,0.0,0.0,0.0,0.0,0.0,0.0,0.0,0.0,0.0,0.0,0.0,0.0,0.0,0.0,0.0,0.0,0.0,0.0,0.0,0.0,0.0,0.0,0.0,0.0,0.0,0.0,0.0,0.0,0.0,0.0,0.0,0.0,0.0,0.0,0.0,0.0,0.0,0.0,0.0,0.0,0.0,0.0,0.0,0.0,0.0,0.0,0.0,0.0,0.0,0.0,0.0,0.0,0.0,0.0,0.0,0.0,0.0,0.0,0.0,0.0,0.0,0.0,0.0,0.0,0.0,0.0,0.0,0.0,0.0,0.0,0.0,0.0,0.0,0.0,0.0,0.0,0.0,0.0,0.0,0.0,0.0,0.0,0.0,0.0,0.0,0.0,0.0,0.0,0.0,0.0,0.0,0.0,0.0,0.0,0.0,0.0,0.0,0.0,0.0,0.0,0.0,0.0,0.0,0.0,0.0,0.0,0.0,0.0,0.0,0.0,0.0,0.0,0.0,0.0,0.0,0.0,0.0,0.0,0.0,0.0,0.0,0.0,0.0,0.0,0.0,0.0,0.0,0.0,0.0,0.0,0.0,0.0,0.0,0.0,0.0,0.0,0.0,0.0,0.0,0.0,0.0,0.0,0.0,0.0,0.0,0.0,0.0,0.0,0.0,0.0,0.0,0.0,0.0,0.0,0.0,0.0,0.0,0.0,0.0,0.0,0.0,0.0,0.0,0.0,0.0,0.0,0.0,0.0,0.0,0.0,0.0,0.0,0.0,0.0,0.0,0.0,0.0,0.0,0.0,0.0,0.0,0.0,0.0,0.0,0.0,0.0,0.0,0.0,0.0,0.0,0.0,0.0,0.0,0.0,0.0,0.0,0.0,0.0,0.0,0.0,0.0,0.0,0.0,0.0,0.0,0.0,0.0,0.0,0.0,0.0,0.0,0.0,0.0,0.0,0.0,0.0,0.0,0.0,0.0,0.0,0.0,0.0,0.0,0.0,0.0,0.0,0.0,0.0,0.0,0.0,0.0,0.0,0.0,0.0,0.0,0.0,0.0,0.0,0.0,0.0,0.0,0.0,0.0,0.0,0.0,0.0,0.0,0.0,0.0,0.0,0.0,0.0,0.0,0.0,0.0,0.0,0.0,0.0,0.0,0.0,0.0,0.0,0.0,0.0,0.0,0.0,0.0,0.0,0.0,0.0,0.0,0.0,0.0,0.0,0.0,0.0,0.0,0.0,0.0,0.0,0.0,0.0,0.0,0.0,0.0,0.0,0.0,0.0,0.0,0.0,0.0,0.0,0.0,0.0,0.0,0.0,0.0,0.0,0.0,0.0,0.0,0.0,0.0,0.0,0.0,0.0,0.0,0.0,0.0,0.0,0.0,0.0,0.0,0.0,0.0,0.0,0.0,0.0,0.0,0.0,0.0,0.0,0.0,0.0,0.0,0.0,0.0,0.0,0.0,0.0,0.0,0.0,0.0,0.0,0.0,0.0,0.0,0.0,0.0,0.0,0.0,0.0,0.0,0.0,0.0,0.0,0.0,0.0,0.0,0.0,0.0,0.0,0.0,0.0,0.0,0.0,0.0,0.0,0.0,0.0,0.0,0.0,0.0,0.0,0.0,0.0,0.0,0.0,0.0,0.0,0.0,0.0,0.0,0.0,0.0,0.0,0.0,0.0,0.0,0.0,0.0,0.0,0.0,0.0,0.0,0.0,0.0,0.0,0.0,0.0,0.0,0.0,0.0,0.0,0.0,0.0,0.0,0.0,0.0,0.0,0.0,0.0,0.0,0.0,0.0,0.0,0.0,0.0,0.0,0.0,0.0,0.0,0.0,0.0,0.0,0.0,0.0,0.0,0.0,0.0,0.0,0.0,0.0,0.0,0.0,0.0,0.0,0.0,0.0,0.0,0.0,0.0,0.0,0.0,0.0,0.0,0.0,0.0,0.0,0.0,0.0,0.0,0.0,0.0,0.0,0.0,0.0,0.0,0.0,0.0,0.0,0.0,0.0,0.0,0.0,0.0,0.0,0.0,0.0,0.0,0.0,0.0,0.0,0.0,0.0,0.0,0.0,0.0,0.0,0.0,0.0,0.0,0.0,0.0,0.0,0.0,0.0,0.0,0.0,0.0,0.0,0.0,0.0,0.0,0.0,0.0,0.0,0.0,0.0,0.0,0.0,0.0,0.0,0.0,0.0,0.0,0.0,0.0,0.0,0.0,0.0,0.0,0.0,0.0,0.0,0.0,0.0,0.0,0.0,0.0,0.0,0.0,0.0,0.0,0.0,0.0,0.0,0.0,0.0,0.0,0.0,0.0,0.0,0.0,0.0,0.0,0.0,0.0,0.0,0.0,0.0,0.0,0.0,0.0,0.0,0.0,0.0,0.0,0.0,0.0,0.0,0.0,0.0,0.0,0.0,0.0,0.0,0.0,0.0,0.0,0.0,0.0,0.0,0.0,0.0,0.0,0.0,0.0,0.0,0.0,0.0,0.0,0.0,0.0,0.0,0.0,0.0,0.0,0.0,0.0,0.0,0.0,0.0,0.0,0.0,0.0,0.0,0.0,0.0,0.0,0.0,0.0,0.0,0.0,0.0,0.0,0.0,0.0,0.0,0.0,0.0,0.0,0.0,0.0,0.0,0.0,0.0,0.0,0.0,0.0,0.0,0.0,0.0,0.0,0.0,0.0,0.0,0.0,0.0,0.0,0.0,0.0,0.0,0.0,0.0,0.0,0.0,0.0,0.0,0.0,0.0,0.0,0.0,0.0,0.0,0.0,0.0,0.0,0.0,0.0,0.0,0.0,0.0,0.0,0.0,0.0,0.0,0.0,0.0,0.0,0.0,0.0,0.0,0.0,0.0,0.0,0.0,0.0,0.0,0.0,0.0,0.0,0.0,0.0,0.0,0.0,0.0,0.0,0.0,0.0,0.0,0.0,0.0,0.0,0.0,0.0,0.0,0.0,0.0,0.0,0.0,0.0,0.0,0.0,0.0,0.0,0.0,0.0,0.0,0.0,0.0,0.0,0.0,0.0,0.0,0.0,0.0,0.0,0.0,0.0,0.0,0.0,0.0,0.0,0.0,0.0,0.0,0.0,0.0,0.0,0.0,0.0,0.0,0.0,0.0,0.0,0.0,0.0,0.0,0.0,0.0,0.0,0.0,0.0,0.0,0.0,0.0,0.0,0.0,0.0,0.0,0.0,0.0,0.0,0.0,0.0,0.0,0.0,0.0,0.0,0.0,0.0,0.0,0.0,0.0,0.0,0.0,0.0,0.0,0.0,0.0,0.0,0.0,0.0,0.0,0.0,0.0,0.0,0.0,0.0,0.0,0.0,0.0,0.0,0.0,0.0,0.0,0.0,0.0,0.0,0.0,0.0,0.0,0.0,0.0,0.0,0.0,0.0,0.0,0.0,0.0,0.0,0.0,0.0,0.0,0.0,0.0,0.0,0.0,0.0,0.0,0.0,0.0,0.0,0.0,0.0,0.0,0.0,0.0,0.0,0.0,0.0,0.0,0.0,0.0,0.0,0.0,0.0,0.0,0.0,0.0,0.0,0.0,0.0,0.0,0.0,0.0,0.0,0.0,0.0,0.0,0.0,0.0,0.0,0.0,0.0,0.0,0.0,0.0,0.0,0.0,0.0,0.0,0.0,0.0,0.0,0.0,0.0,0.0,0.0,0.0,0.0,0.0,0.0,0.0,0.0,0.0,0.0,0.0,0.0,0.0,0.0,0.0,0.0,0.0,0.0,0.0,0.0,0.0,0.0,0.0,0.0,0.0,0.0,0.0,0.0,0.0,0.0,0.0,0.0,0.0,0.0,0.0,0.0,0.0,0.0,0.0,0.0,0.0,0.0,0.0,0.0,0.0,0.0,0.0,0.0,0.0,0.0,0.0,0.0,0.0,0.0,0.0,0.0,0.0,0.0,0.0,0.0,0.0,0.0,0.0,0.0,0.0,0.0,0.0,0.0,0.0,0.0,0.0,0.0,0.0,0.0,0.0,0.0,0.0,0.0,0.0,0.0,0.0,0.0,0.0,0.0,0.0,0.0,0.0,0.0,0.0,0.0,0.0,0.0,0.0,0.0,0.0,0.0,0.0,0.0,0.0,0.0,0.0,0.0,0.0,0.0,0.0,0.0,0.0,0.0,0.0,0.0,0.0,0.0,0.0,0.0,0.0,0.0,0.0,0.0,0.0,0.0,0.0,0.0,0.0,0.0,0.0,0.0,0.0,0.0,0.0,0.0,0.0,0.0,0.0,0.0,0.0,0.0,0.0,0.0,0.0,0.0,0.0,0.0,0.0,0.0,0.0,0.0,0.0,0.0,0.0,0.0,0.0,0.0,0.0,0.0,0.0,0.0,0.0,0.0,0.0,0.0,0.0,0.0,0.0,0.0,0.0,0.0,0.0,0.0,0.0,0.0,0.0,0.0,0.0,0.0,0.0,0.0,0.0,0.0,0.0,0.0,0.0,0.0,0.0,0.0,0.0,0.0,0.0,0.0,0.0,0.0,0.0,0.0,0.0,0.0,0.0,0.0,0.0,0.0,0.0,0.0,0.0,0.0,0.0,0.0,0.0,0.0,0.0,0.0,0.0,0.0,0.0,0.0,0.0,0.0,0.0,0.0,0.0,0.0,0.0,0.0,0.0,0.0,0.0,0.0,0.0,0.0,0.0,0.0,0.0,0.0,0.0,0.0,0.0,0.0,0.0,0.0,0.0,0.0,0.0,0.0,0.0,0.0,0.0,0.0,0.0,0.0,0.0,0.0,0.0,0.0,0.0,0.0,0.0,0.0,0.0,0.0,0.0,0.0,0.0,0.0,0.0,0.0,0.0,0.0,0.0,0.0,0.0,0.0,0.0,0.0,0.0,0.0,0.0,0.0,0.0,0.0,0.0,0.0,0.0,0.0,0.0,0.0,0.0,0.0,0.0,0.0,0.0,0.0,0.0,0.0,0.0,0.0,0.0,0.0,0.0,0.0,0.0,0.0,0.0,0.0,0.0,0.0,0.0,-0.966,-0.9703,0.0,0.0,0.0,0.0,0.0,0.0,0.0,0.0,0.0,0.0,0.0,0.0,0.0,0.0,0.0,0.0,0.0,0.0,0.0,0.0,0.0,0.0,0.0,0.0,0.0,0.0,0.0,0.0,0.0,0.0,0.0,0.0,0.0,0.0,0.0,0.0,0.0,0.0,0.0,0.0,0.0,0.0,0.0,0.0,0.0,0.0,0.0,0.0,0.0,0.0,0.0,0.0,0.0,0.0,0.0,0.0,0.0,0.0,0.0,0.0,0.0,0.0,0.0,0.0,0.0,0.0,0.0,0.0,0.0,0.0,0.0,0.0,0.0,0.0,0.0,0.0,0.0,0.0,0.0,0.0,0.0,0.0,0.0,0.0,0.0,0.0,0.0,0.0,0.0,0.0,0.0,0.0,0.0,0.0,0.0,0.0,0.0,0.0,0.0,0.0,0.0,0.0,0.0,0.0,0.0,0.0,0.0,0.0,0.0,0.0,0.0,0.0,0.0,0.0,-0.9561,-0.9423,0.0,0.0,0.0,0.0,0.0,0.0,0.0,0.0,0.0,0.0,0.0,0.0,0.0,0.0,0.0,0.0,0.0,0.0,0.0,0.0,0.0,0.0,0.0,0.0,0.0,0.0,0.0,0.0,0.0,0.0,0.0,0.0,0.0,0.0,0.0,0.0,0.0,0.0,0.0,0.0,0.0,0.0,0.0,0.0,0.0,0.0,0.0,0.0,0.0,0.0,0.0,0.0,0.0,0.0,0.0,0.0,0.0,0.0,0.0,0.0,0.0,0.0,0.0,0.0,0.0,0.0,0.0,0.0,0.0,0.0,0.0,0.0,0.0,0.0,0.0,0.0,0.0,0.0,0.0,0.0,0.0,0.0,0.0,0.0,0.0,0.0,0.0,0.0,0.0,0.0,0.0,0.0,0.0,0.0,0.0,0.0,0.0,0.0,0.0,0.0,0.0,0.0,0.0,0.0,0.0,0.0,0.0,0.0,-0.9356,-0.9671,-0.9992,-1.0008,-0.9965,-1.0031,-0.9661,-0.948,-0.9381,-0.9789,0.0,0.0,0.0,0.0,0.0,0.0,0.0,0.0,0.0,0.0,0.0,0.0,0.0,0.0,0.0,0.0,0.0,0.0,0.0,0.0,0.0,0.0,0.0,0.0,0.0,0.0,0.0,0.0,0.0,0.0,0.0,0.0,0.0,0.0,0.0,0.0,0.0,0.0,0.0,0.0,0.0,0.0,0.0,0.0,0.0,0.0,0.0,0.0,0.0,0.0,0.0,0.0,0.0,0.0,0.0,0.0,0.0,0.0,0.0,0.0,0.0,0.0,0.0,0.0,0.0,0.0,0.0,0.0,0.0,0.0,0.0,0.0,0.0,0.0,0.0,0.0,0.0,0.0,0.0,0.0,0.0,0.0,0.0,0.0,0.0,0.0,-1.0019,-1.0019,0.0,0.0,0.0,0.0,0.0,0.0,0.0,0.0,0.0,0.0,0.0,0.0,0.0,-0.9537,-0.9998,-1.0064,-1.0015,-0.9862,-0.9862,-1.0015,-1.002,-0.997,-1.0014,-0.9998,-1.0014,0.0,-0.984,-1.0009,0.0,0.0,0.0,0.0,0.0,0.0,0.0,0.0,0.0,0.0,0.0,0.0,0.0,0.0,0.0,0.0,0.0,0.0,0.0,0.0,0.0,0.0,0.0,0.0,0.0,0.0,0.0,0.0,0.0,0.0,0.0,0.0,0.0,0.0,0.0,0.0,0.0,0.0,0.0,0.0,0.0,0.0,0.0,0.0,0.0,0.0,0.0,0.0,0.0,0.0,0.0,0.0,0.0,0.0,0.0,0.0,0.0,0.0,0.0,0.0,0.0,0.0,0.0,0.0,0.0,0.0,0.0,0.0,0.0,0.0,0.0,0.0,0.0,0.0,0.0,0.0,0.0,0.0,0.0,0.0,0.0,0.0,0.0,0.0,0.0,-1.0019,-1.0019,-1.0019,-1.0019,-1.0019,0.0,0.0,0.0,0.0,0.0,0.0,0.0,0.0,0.0,-0.9998,-0.98,-0.9826,-1.0075,-0.9932,-0.9943,-0.9943,-0.9943,-0.9943,-0.9943,-0.9998,-1.0019,-1.0019,-1.0019,-0.9992,-0.9943,-0.9943,-0.9976,-1.0019,0.0,0.0,0.0,0.0,-1.0019,-1.0019,0.0,0.0,0.0,0.0,0.0,0.0,0.0,0.0,0.0,0.0,0.0,0.0,0.0,0.0,0.0,0.0,0.0,0.0,0.0,0.0,0.0,0.0,0.0,0.0,0.0,0.0,0.0,0.0,0.0,0.0,0.0,0.0,0.0,0.0,0.0,0.0,0.0,0.0,0.0,0.0,0.0,0.0,0.0,0.0,0.0,0.0,0.0,0.0,0.0,0.0,0.0,0.0,0.0,0.0,0.0,0.0,0.0,0.0,0.0,0.0,0.0,0.0,0.0,0.0,0.0,0.0,0.0,0.0,0.0,0.0,0.0,0.0,0.0,0.0,0.0,0.0,0.0,-1.0019,-1.0019,-1.0019,-1.0019,-1.0019,0.0,0.0,0.0,0.0,0.0,0.0,-0.9993,-0.964,-0.965,-0.9998,-0.996,-0.9976,-1.0042,-0.9976,-1.0019,-1.0019,-1.0025,-1.0025,-1.0025,-1.003,-1.003,-1.0025,-1.0025,-1.0025,-1.0019,-1.0019,-1.0019,-1.0019,-1.0019,-1.0019,-1.0019,-1.0019,-1.0019,-1.0019,0.0,0.0,0.0,0.0,0.0,0.0,0.0,0.0,0.0,0.0,0.0,0.0,0.0,0.0,0.0,0.0,0.0,0.0,0.0,0.0,0.0,0.0,0.0,0.0,0.0,0.0,0.0,0.0,0.0,0.0,0.0,0.0,0.0,0.0,0.0,0.0,0.0,0.0,0.0,0.0,0.0,0.0,0.0,0.0,0.0,0.0,0.0,0.0,0.0,0.0,0.0,0.0,0.0,0.0,0.0,0.0,0.0,0.0,0.0,0.0,0.0,0.0,0.0,0.0,0.0,0.0,0.0,0.0,0.0,0.0,0.0,0.0,0.0,0.0,0.0,0.0,0.0,0.0,0.0,-1.0019,-1.0019,0.0,0.0,0.0,0.0,-0.9376,-0.9376,-0.949,-0.9998,-0.9954,-0.9965,-0.9998,-0.996,-1.0019,-1.0014,-1.0019,-1.0019,-1.0019,-1.0036,-1.0047,-1.0047,-1.0063,-1.0063,-1.0047,-1.0047,-1.0036,-1.0019,-1.0019,-1.0019,-1.0019,-1.0019,-1.0019,-1.0019,-1.0019,-1.0019,-1.0019,0.0,0.0,0.0,0.0,0.0,0.0,0.0,0.0,0.0,0.0,0.0,0.0,0.0,0.0,0.0,0.0,0.0,0.0,0.0,0.0,0.0,0.0,0.0,0.0,0.0,0.0,0.0,0.0,0.0,0.0,0.0,0.0,0.0,0.0,0.0,0.0,0.0,0.0,0.0,0.0,0.0,0.0,0.0,0.0,0.0,0.0,0.0,0.0,0.0,0.0,0.0,0.0,0.0,0.0,0.0,0.0,0.0,0.0,0.0,0.0,0.0,0.0,0.0,0.0,0.0,0.0,0.0,0.0,0.0,0.0,0.0,0.0,0.0,0.0,0.0,0.0,0.0,0.0,0.0,-1.0008,-1.0019,0.0,-1.0019,-0.9949,-0.9905,-0.9746,-0.9746,-0.9883,-0.9998,-0.9954,-1.0008,-0.9976,-1.0014,-1.0041,-1.0057,-1.0057,-1.0057,-1.0057,-1.0063,-0.7686,-0.3597,-0.3595,-0.3593,-0.3747,-0.8136,-1.0025,-1.0019,-1.0019,-1.0019,-1.0019,-1.0019,-1.0019,-1.0019,-1.0019,-1.0019,-1.0019,0.0,0.0,0.0,0.0,0.0,0.0,0.0,0.0,0.0,0.0,0.0,0.0,0.0,0.0,0.0,0.0,0.0,0.0,0.0,0.0,0.0,0.0,0.0,0.0,0.0,0.0,0.0,0.0,0.0,0.0,0.0,0.0,0.0,0.0,0.0,0.0,0.0,0.0,0.0,0.0,0.0,0.0,0.0,0.0,0.0,0.0,0.0,0.0,0.0,0.0,0.0,0.0,0.0,0.0,0.0,0.0,0.0,0.0,0.0,0.0,0.0,0.0,0.0,0.0,0.0,0.0,0.0,0.0,0.0,0.0,0.0,0.0,0.0,0.0,0.0,0.0,0.0,-0.9927,-0.9932,-1.0008,-1.0019,-1.0019,-1.0019,-0.9949,-1.0053,-1.0053,-1.0059,-1.0064,-1.0064,-0.9992,-1.0047,-1.0057,-0.7838,-0.658,-0.6587,-0.6587,-0.6587,-0.6587,-0.6591,-0.4231,0.0,0.0,-0.125,-0.3593,-0.8141,-1.003,-1.0019,-1.0019,-1.0019,-1.0019,-1.0019,-1.0019,-1.0019,-1.0019,-1.0019,-1.0019,0.0,0.0,0.0,0.0,0.0,0.0,0.0,0.0,0.0,0.0,0.0,0.0,0.0,0.0,0.0,0.0,0.0,0.0,0.0,0.0,0.0,0.0,0.0,0.0,0.0,0.0,0.0,0.0,0.0,0.0,0.0,0.0,0.0,0.0,0.0,0.0,0.0,0.0,0.0,0.0,0.0,0.0,0.0,0.0,0.0,0.0,0.0,0.0,0.0,0.0,0.0,0.0,0.0,0.0,0.0,0.0,0.0,0.0,0.0,0.0,0.0,0.0,0.0,0.0,0.0,0.0,0.0,0.0,0.0,0.0,0.0,0.0,0.0,0.0,0.0,0.0,-0.9366,-0.9784,-1.0019,-1.0019,-1.0019,-1.0019,-1.0019,-1.0019,-1.0019,-1.0019,-1.0036,-0.9891,-0.9729,-0.9745,-0.9756,-0.9756,-0.3445,0.0,0.0,0.0,0.0,0.0,0.0,0.0,0.0,0.0,-0.3611,-0.9756,-0.9917,-1.0052,-1.0019,-1.0019,-1.0019,-1.0019,-1.0019,-1.0019,-1.0019,-1.0019,-1.0019,-1.0019,0.0,0.0,0.0,0.0,0.0,0.0,0.0,0.0,0.0,0.0,0.0,0.0,0.0,0.0,0.0,0.0,0.0,0.0,0.0,0.0,0.0,0.0,0.0,0.0,0.0,0.0,0.0,0.0,0.0,0.0,0.0,0.0,0.0,0.0,0.0,0.0,0.0,0.0,0.0,0.0,0.0,0.0,0.0,0.0,0.0,0.0,0.0,0.0,0.0,0.0,0.0,0.0,0.0,0.0,0.0,0.0,0.0,0.0,0.0,0.0,0.0,0.0,0.0,0.0,0.0,0.0,0.0,0.0,0.0,0.0,0.0,0.0,0.0,0.0,-0.6361,-0.9361,-0.9692,-0.9949,-0.9949,-1.0047,-1.0047,-1.0041,-1.0041,-1.0041,-1.0041,-1.0041,-1.0047,-0.7833,-0.2972,-0.2816,-0.2817,-0.282,-0.0939,0.0,0.0,0.0,0.0,0.0,0.0,0.0,0.0,0.0,-0.094,-0.2977,-0.7846,-1.0047,-1.0041,-1.0025,-1.0019,-1.0019,-1.0019,-1.0019,-1.0019,-1.0019,-1.0019,-1.0019,0.0,0.0,0.0,0.0,0.0,0.0,0.0,0.0,0.0,0.0,0.0,0.0,0.0,0.0,0.0,0.0,0.0,0.0,0.0,0.0,0.0,0.0,0.0,0.0,0.0,0.0,0.0,0.0,0.0,0.0,0.0,0.0,0.0,0.0,0.0,0.0,0.0,0.0,0.0,0.0,0.0,0.0,0.0,0.0,0.0,0.0,0.0,0.0,0.0,0.0,0.0,0.0,0.0,0.0,0.0,0.0,0.0,0.0,0.0,0.0,0.0,0.0,0.0,0.0,0.0,0.0,0.0,0.0,0.0,0.0,0.0,0.0,0.0,0.0,-0.3099,-0.5468,-0.5805,-0.5764,-0.684,-0.9589,-0.7529,-0.5789,-0.5789,-0.8315,-1.0057,-1.0057,-0.7369,-0.407,-0.0157,0.0,0.0,0.0,0.0,0.0,0.0,0.0,0.0,0.0,0.0,0.0,0.0,0.0,0.0,-0.0313,-0.7056,-1.0052,-1.0047,-1.003,-1.0019,-1.0019,0.0,0.0,0.0,0.0,-1.0019,-1.0019,0.0,0.0,0.0,0.0,0.0,0.0,0.0,0.0,0.0,0.0,0.0,0.0,0.0,0.0,0.0,0.0,0.0,0.0,0.0,0.0,0.0,0.0,0.0,0.0,0.0,0.0,0.0,0.0,0.0,0.0,0.0,0.0,0.0,0.0,0.0,0.0,0.0,0.0,0.0,0.0,0.0,0.0,0.0,0.0,0.0,0.0,0.0,0.0,0.0,0.0,0.0,0.0,0.0,0.0,0.0,0.0,0.0,0.0,0.0,0.0,0.0,0.0,0.0,0.0,0.0,0.0,0.0,0.0,0.0,0.0,0.0,0.0,0.0,0.0,0.0,0.0,0.0,0.0,-0.2191,-0.8172,-0.3601,0.0,0.0,-0.5329,-0.8807,-0.8807,-0.329,0.0,0.0,0.0,0.0,0.0,0.0,0.0,0.0,0.0,0.0,0.0,0.0,0.0,0.0,0.0,0.0,-0.0315,-0.7095,-0.9949,-0.9933,-1.0074,-1.0063,-1.0057,-1.003,-1.0019,-1.0019,-1.0019,-1.003,-1.0041,0.0,0.0,0.0,0.0,0.0,0.0,0.0,0.0,0.0,0.0,0.0,0.0,0.0,0.0,0.0,0.0,0.0,0.0,0.0,0.0,0.0,0.0,0.0,0.0,0.0,0.0,0.0,0.0,0.0,0.0,0.0,0.0,0.0,0.0,0.0,0.0,0.0,0.0,0.0,0.0,0.0,0.0,0.0,0.0,0.0,0.0,0.0,0.0,0.0,0.0,0.0,0.0,0.0,0.0,0.0,0.0,0.0,0.0,0.0,0.0,0.0,0.0,0.0,0.0,0.0,0.0,0.0,0.0,0.0,0.0,0.0,0.0,0.0,0.0,0.0,0.0,0.0,0.0,-0.0471,-0.1727,-0.0784,0.0,0.0,-0.1096,-0.1879,-0.1879,-0.0783,0.0,0.0,0.0,0.0,0.0,0.0,0.0,0.0,0.0,0.0,0.0,0.0,0.0,0.0,0.0,0.0,-0.0323,-0.7117,-1.0045,-1.0024,-1.0014,-1.0003,-0.9972,-0.9939,-1.0019,-1.0019,-1.0019,-0.9923,-1.0008,0.0,0.0,0.0,0.0,0.0,0.0,0.0,0.0,0.0,0.0,0.0278,0.0,0.0,0.0,0.0,0.0,0.0,0.0,0.0,0.0,0.0,0.0,0.0,0.0,0.0,0.0,0.0,0.0,0.0,0.0,0.0,0.0,0.0,0.0,0.0,0.0,0.0,0.0,0.0,0.0,0.0,0.0,0.0,0.0,0.0,0.0,0.0,0.0,0.0,0.0,0.0,0.0,0.0,0.0,0.0,0.0,0.0,0.0,0.0,0.0,0.0,0.0,0.0,0.0,0.0,0.0,0.0,0.0,0.0,0.0,0.0,0.0,0.0,0.0,0.0,0.0,0.0,0.0,0.0,0.0,0.0,0.0,0.0,0.0,0.0,0.0,0.0,0.0,0.0,0.0,0.0,0.0,0.0,0.0,0.0,0.0,0.0,0.0,0.0,0.0,0.0,0.0,0.0,-0.0163,-0.3576,-0.6996,-1.0276,-1.0422,-1.04,-1.0373,-1.0412,-1.0204,-1.004,-1.004,-1.0078,-0.9972,0.0,0.0,0.0,0.0,0.0,0.0,0.0,0.0,0.0,0.0,0.0826,0.0279,0.0,0.0,0.0,0.0,0.0,0.0,0.0,0.0,0.0,0.0,0.0,0.0,0.0,0.0,0.0,0.0,0.0,0.0,0.0,0.0,0.0,0.0,0.0,0.0,0.0,0.0,0.0,0.0,0.0,0.0,0.0,0.0,0.0,0.0,0.0,0.0,0.0,0.0,0.0,0.0,0.0,0.0,0.0,0.0,0.0,0.0,0.0,0.0,0.0,0.0,0.0,0.0,0.0,0.0,0.0,0.0,0.0,0.0,0.0,0.0,0.0,0.0,0.0,0.0,0.0,0.0,0.0,0.0,0.0,0.0,0.0,0.0,0.0,0.0,0.0,0.0,0.0,0.0,0.0,0.0,0.0,0.0,0.0,0.0,0.0,0.0,0.0,0.0,0.0,0.0,0.0,0.0,0.0,-0.3271,-0.8698,-1.0161,-1.0639,-1.0628,-1.0622,-1.0454,-1.0119,-1.0077,-1.0072,-1.0254,0.0,0.0,0.0,0.0,0.0,0.0,0.0,0.0,0.0,0.0,0.0,0.0,0.0,0.0,0.0,0.0,0.0,0.0,0.0,0.0,0.0,0.0,0.0,0.0,0.0,0.0,0.0,0.0,0.0,0.0,0.0,0.0,0.0,0.0,0.0,0.0,0.0,0.0,0.0,0.0,0.0,0.0,0.0,0.0,0.0,0.0,0.0,0.0,0.0,0.0,0.0,0.0,0.0,0.0,0.0,0.0,0.0,0.0,0.0,0.0,0.0,0.0,0.0,0.0,0.0,0.0,0.0,0.0,0.0,0.0,0.0,0.0,0.0,0.0,0.0,0.0,0.0,0.0,0.0,0.0,0.0,0.0,0.0,0.0,0.0,0.0,0.0,0.0,0.0,0.0,0.0,0.0,0.0,0.0,0.0,0.0,0.0,0.0,0.0,0.0,0.0,0.0,0.0,0.0,0.0,-0.0502,-0.1674,-0.8032,-1.0726,-1.0721,-1.0704,-1.0699,-1.0672,-1.0628,-1.0617,-1.0699,0.0,0.0,0.0,0.0,0.0,0.0,0.0,0.0,0.0,0.0,0.0,0.0,0.0,0.0,0.0,0.0,0.0,0.0,0.0,0.0,0.0,0.0,0.0,0.0,0.0,0.0,0.0,0.0,0.0,0.0,0.0,0.0,0.0,0.0,0.0,0.0,0.0,0.0,0.0,0.0,0.0,0.0,0.0,0.0,0.0,0.0,0.0,0.0,0.0,0.0,0.0,0.0,0.0,0.0,0.0,0.0,0.0,0.0,0.0,0.0,0.0,0.0,0.0,0.0,0.0,0.0,0.0,0.0,0.0,0.0,0.0,0.0,0.0,0.0,0.0,0.0,0.0,0.0,0.0,0.0,0.0,0.0,0.0,0.0,0.0,0.0,0.0,0.0,0.0,0.0,0.0,0.0,0.0,0.0,0.0,0.0,0.0,0.0,0.0,0.0,0.0,0.0,0.0,0.0,0.0,0.0,-0.0168,-0.3189,-0.6885,-1.0764,-1.0753,-1.0748,-1.0726,-1.0628,-1.0623,-1.0661,0.0,0.0,0.0,0.0,0.0,0.0,0.0,0.0,0.0,0.0,0.0,0.0,0.0,0.0,0.0,0.0,0.0,0.0,0.0,0.0309,0.0,0.0,0.0,0.0,0.0,0.0,0.0,0.0,0.0,0.0,0.0,0.0,0.0,0.0,0.0,0.0,0.0,0.0,0.0,0.0,0.0,0.0,0.0,0.0,0.0,0.0,0.0,0.0,0.0,0.0,0.0,0.0,0.0,0.0,0.0,0.0,0.0,0.0,0.0,0.0,0.0,0.0,0.0,0.0,0.0,0.0,0.0,0.0,0.0,0.0,0.0,0.0,0.0,0.0,0.0,0.0,0.0,0.0,0.0,0.0,0.0,0.0,0.0,0.0,0.0,0.0,0.0,0.0,0.0,0.0,0.0,0.0,0.0,0.0,0.0,0.0,0.0,0.0,0.0,0.0,0.0,0.0,0.0,0.0,0.0,0.0,0.0,0.0,-0.3021,-0.7893,-0.9918,-1.0753,-1.0742,-1.0737,-1.0737,-1.0737,0.0,0.0,0.0,0.0,0.0,0.0,0.0,0.0,0.0,0.0,0.0,0.0,0.0,0.0,0.0,0.0,0.0,0.0,0.0,0.0919,0.0,0.0,0.0,0.0,0.0,0.0,0.0,0.0,0.0,0.0,0.0,0.0,0.0,0.0,0.0,0.0,0.0,0.0,0.0,0.0,0.0,0.0,0.0,0.0,0.0,0.0,0.0,0.0,0.0,0.0,0.0,0.0,0.0,0.0,0.0,0.0,0.0,0.0,0.0,0.0,0.0,0.0,0.0,0.0,0.0,0.0,0.0,0.0,0.0,0.0,0.0,0.0,0.0,0.0,0.0,0.0,0.0,0.0,0.0,0.0,0.0,0.0,0.0,0.0,0.0,0.0,0.0,0.0,0.0,0.0,0.0,0.0,0.0,0.0,0.0,0.0,0.0,0.0,0.0,0.0,0.0,0.0,0.0,0.0,0.0,0.0,0.0,0.0,-0.0168,-0.1007,-0.806,-1.0764,-1.0759,-1.0742,-1.0737,-1.0737,0.0,0.0,0.0,0.0,0.0,0.0,0.0,0.0,0.0,0.0,0.0,0.0,0.0,0.0,0.0,0.0,0.0,0.0,0.0,0.1373,0.1236,0.0,0.0,0.0,0.0,0.0,0.0,0.0,0.0,0.0,0.0,0.0,0.0,0.0,0.0,0.0,0.0,0.0,0.0,0.0,0.0,0.0,0.0,0.0,0.0,0.0,0.0,0.0,0.0,0.0,0.0,0.0,0.0,0.0,0.0,0.0,0.0,0.0,0.0,0.0,0.0,0.0,0.0,0.0,0.0,0.0,0.0,0.0,0.0,0.0,0.0,0.0,0.0,0.0,0.0,0.0,0.0,0.0,0.0,0.0,0.0,0.0,0.0,0.0,0.0,0.0,0.0,0.0,0.0,0.0,0.0,0.0,0.0,0.0,0.0,0.0,0.0,0.0,0.0,0.0,0.0,0.0,0.0,0.0,0.0,0.0,0.0,0.0,0.0,-0.0168,-0.2682,-0.654,-1.0759,-1.0742,-1.0737,-1.0737,0.0,0.0,0.0,0.0,0.0,0.0,0.0,0.0,0.0,0.0,0.0,0.0,0.0,0.0,0.0,0.0,0.0,0.0,0.0,0.0,0.1678,0.0919,0.0309,0.0,0.0,0.0,0.0,0.0,0.0,0.0,0.0,0.0,0.0,0.0,0.0,0.0,0.0,0.0,0.0,0.0,0.0,0.0,0.0,0.0,0.0,0.0,0.0,0.0,0.0,0.0,0.0,0.0,0.0,0.0,0.0,0.0,0.0,0.0,0.0,0.0,0.0,0.0,0.0,0.0,0.0,0.0,0.0,0.0,0.0,0.0,0.0,0.0,0.0,0.0,0.0,0.0,0.0,0.0,0.0,0.0,0.0,0.0,0.0,0.0,0.0,0.0,0.0,0.0,0.0,0.0,0.0,0.0,0.0,0.0,0.0,0.0,0.0,0.0,0.0,0.0,0.0,0.0,0.0,0.0,0.0,0.0,0.0,0.0,0.0,0.0,0.0,-0.4416,-1.0742,-1.072,-1.0715,-1.0704,0.0,0.0,0.0,0.0,0.0,0.0,0.0,0.0,0.0,0.0,0.0,0.0,0.0,0.0,0.0,0.0,0.0,0.0,0.0,0.0,0.0,0.242,0.0908,0.0,0.0,0.0,0.0,0.0,0.0,0.0,0.0,0.0,0.0,0.0,0.0,0.0,0.0,0.0,0.0,0.0,0.0,0.0,0.0,0.0,0.0,0.0,0.0,0.0,0.0,0.0,0.0,0.0,0.0,0.0,0.0,0.0,0.0,0.0,0.0,0.0,0.0,0.0,0.0,0.0,0.0,0.0,0.0,0.0,0.0,0.0,0.0,0.0,0.0,0.0,0.0,0.0,0.0,0.0,0.0,0.0,0.0,0.0,0.0,0.0,0.0,0.0,0.0,0.0,0.0,0.0,0.0,0.0,0.0,0.0,0.0,0.0,0.0,0.0,0.0,0.0,0.0,0.0,0.0,0.0,0.0,0.0,0.0,0.0,0.0,0.0,0.0,-0.4173,-1.0125,-1.0636,-1.0631,-1.0767,0.0,0.0,0.0,0.0,0.0,0.0,0.0,0.0,0.0,0.0,0.0,0.0,0.0,0.0,0.0,0.0,0.0,0.0,0.0,0.0,0.0,0.0,0.0,0.0,0.0,0.0,0.0,0.0,0.0,0.0,0.0,0.0,0.0,0.0,0.0,0.0,0.0,0.0,0.0,0.0,0.0,0.0,0.0,0.0,0.0,0.0,0.0,0.0,0.0,0.0,0.0,0.0,0.0,0.0,0.0,0.0,0.0,0.0,0.0,0.0,0.0,0.0,0.0,0.0,0.0,0.0,0.0,0.0,0.0,0.0,0.0,0.0,0.0,0.0,0.0,0.0,0.0,0.0,0.0,0.0,0.0,0.0,0.0,0.0,0.0,0.0,0.0,0.0,0.0,0.0,0.0,0.0,0.0,0.0,0.0,0.0,0.0,0.0,0.0,0.0,0.0,0.0,0.0,0.0,0.0,0.0,0.0,0.0,0.0,0.0,0.0,-0.1042,-0.3301,-0.8701,-1.0631,-1.062,0.0,0.0,0.0,0.0,0.0,0.0,0.0,0.0,0.0,0.0,0.0,0.0,0.0,0.0,0.0,0.0,0.0,0.0,0.0,0.0,0.0,0.0,0.0,0.0,0.0,0.0,0.0,0.0,0.0,0.0,0.0,0.0,0.0,0.0,0.0,0.0,0.0,0.0,0.0,0.0,0.0,0.0,0.0,0.0,0.0,0.0,0.0,0.0,0.0,0.0,0.0,0.0,0.0,0.0,0.0,0.0,0.0,0.0,0.0,0.0,0.0,0.0,0.0,0.0,0.0,0.0,0.0,0.0,0.0,0.0,0.0,0.0,0.0,0.0,0.0,0.0,0.0,0.0,0.0,0.0,0.0,0.0,0.0,0.0,0.0,0.0,0.0,0.0,0.0,0.0,0.0,0.0,0.0,0.0,0.0,0.0,0.0,0.0,0.0,0.0,0.0,0.0,0.0,0.0,0.0,0.0,0.0,0.0,0.0,0.0,0.0,0.0,-0.0529,-0.4582,-0.5995,-0.5995,0.0,0.0,0.0,0.0,0.0,0.0,0.0,0.0,0.0,0.0,0.0,0.0,0.0,0.0,0.0,0.0,0.0,0.0,0.0,0.0,0.0,0.0,0.0,0.0,0.0,0.0,0.0,0.0,0.0,0.0,0.0,0.0,0.0,0.0,0.0,0.0,0.0,0.0,0.0,0.0,0.0,0.0,0.0,0.0,0.0,0.0,0.0,0.0,0.0,0.0,0.0,0.0,0.0,0.0,0.0,0.0,0.0,0.0,0.0,0.0,0.0,0.0,0.0,0.0,0.0,0.0,0.0,0.0,0.0,0.0,0.0,0.0,0.0,0.0,0.0,0.0,0.0,0.0,0.0,0.0,0.0,0.0,0.0,0.0,0.0,0.0,0.0,0.0,0.0,0.0,0.0,0.0,0.0,0.0,0.0,0.0,0.0,0.0,0.0,0.0,0.0,0.0,0.0,0.0,0.0,0.0,0.0,0.0,0.0,0.0,0.0,0.0,0.0,0.0,0.0,0.0,0.0,0.0,0.0,0.0,0.0,0.0,0.0,0.0,0.0,0.0,0.5778,0.3765,0.0,0.0,0.0,0.0,0.0,0.0,0.0,0.0,0.0,0.0,0.0,0.0,0.0,0.0,0.0,0.0,0.0,0.0,0.0,0.0,0.0,0.0,0.0,0.0,0.0,0.0,0.0,0.0,0.0,0.0,0.0,0.0,0.0,0.0,0.0,0.0,0.0,0.0,0.0,0.0,0.0,0.0,0.0,0.0,0.0,0.0,0.0,0.0,0.0,0.0,0.0,0.0,0.0,0.0,0.0,0.0,0.0,0.0,0.0,0.0,0.0,0.0,0.0,0.0,0.0,0.0,0.0,0.0,0.0,0.0,0.0,0.0,0.0,0.0,0.0,0.0,0.0,0.0,0.0,0.0,0.0,0.0,0.0,0.0,0.0,0.0,0.0,0.0,0.0,0.0,0.0,0.0,0.0,0.0,0.0,0.0,0.0,0.0,0.0,0.0,0.0,0.0,0.0,0.0,0.0,0.0,0.0,0.0,0.0,0.0,0.0,0.0,1.0348,0.8856,0.7374,0.577,0.3497,0.2572,0.0,0.0,0.0,0.0,0.0,0.0,0.0,0.0,0.0,0.0,0.0,0.0584,0.0,0.0,0.0,0.0,0.0,0.0,0.0,0.0,0.0,0.0,0.0,0.0,0.0,0.0,0.0,0.0,0.0,0.0,0.0,0.0,0.0,0.0,0.0,0.0,0.0,0.0,0.0,0.0,0.0,0.0,0.0,0.0,0.0,0.0,0.0,0.0,0.0,0.0,0.0,0.0,0.0,0.0,0.0,0.0,0.0,0.0,0.0303,0.1085,0.0635,0.0,0.0,0.0,0.0,0.0,0.0,0.0339,0.1348,0.1354,0.1355,0.1347,0.0505,0.0,0.0,0.0,0.0,0.0,0.0,0.0,0.0,0.0,0.0,0.0,0.0,0.0,0.0,0.0,0.0,0.0,0.0,0.0,0.0,0.0,0.0,0.0,0.0,0.0,0.0,0.0,0.0,0.0,0.0,0.0,0.0,0.0,0.0,0.0,0.0,1.09,1.045,0.9256,0.8839,0.7774,0.5503,0.3629,0.2704,0.0,0.0,0.0,0.0,0.0,0.0,0.0,0.0,0.0,0.0,0.0,0.0,0.0,0.0,0.0,0.0,0.0,0.0,0.0,0.0,0.0,0.0,0.0,0.0,0.0,0.0,0.0,0.0,0.0,0.0,0.0,0.0,0.0,0.0,0.0,0.0,0.0,0.0,0.0,0.0,0.0,0.0,0.0,0.0,0.0,0.0,0.0,0.0,0.0,0.0,0.0,0.0,0.0,0.0,0.0,0.0,0.0,0.0455,0.1693,0.1108,0.0488,0.0495,0.0501,0.0504,0.0338,0.034,0.0851,0.2199,0.2549,0.2721,0.2703,0.1185,0.0169,0.0,0.0,0.0,0.0,0.0,0.0,0.0,0.0,0.0,0.0,0.0,0.0,0.0,0.0,0.0,0.0,0.0,0.0,0.0,0.0,0.0,0.0,0.0,0.0,0.0,0.0,0.0,0.0,0.0,0.0,0.0,0.0,0.0,0.0,0.0,1.0744,1.0738,1.0585,0.9377,0.844,0.8174,0.577,0.4168,0.0,0.0,0.0,0.0,0.0,0.0,0.0,0.0,0.0,0.0,0.0,0.0,0.0,0.0,0.0,0.0,0.0,0.0,0.0,0.0,0.0,0.0,0.0,0.0,0.0,0.0,0.0,0.0,0.0,0.0,0.0,0.0,0.0,0.0,0.0,0.0,0.0,0.0,0.0,0.0,0.0,0.0,0.0,0.0,0.0,0.0,0.0,0.0,0.0,0.0,0.0,0.0,0.0,0.0,0.0,0.0,0.0,0.0,0.0154,0.1406,0.2233,0.2473,0.2487,0.2172,0.1363,0.1186,0.1184,0.1366,0.2202,0.2706,0.2732,0.1896,0.0863,0.0,0.0,0.0,0.0,0.0,0.0,0.0,0.0,0.0,0.0,0.0,0.0,0.0,0.0,0.0,0.0,0.0,0.0,0.0,0.0,0.0,0.0,0.0,0.0,0.0,0.0,0.0,0.0,0.0,0.0,0.0,0.0,0.0,0.0,1.0731,1.0717,1.0717,1.0717,1.0187,0.9915,0.9915,0.8041,0.6172,0.0,0.0,0.0,0.0,0.0,0.0,0.0,0.0,0.0,0.0,0.0,0.1314,0.0,0.0,0.0,0.0,0.0,0.0,0.0,0.0,0.0,0.0,0.0,0.0,0.0,0.0,0.0,0.0,0.0,0.0,0.0,0.0,0.0,0.0,0.0,0.0,0.0,0.0,0.0,0.0,0.0,0.0,0.0,0.0,0.0,0.0,0.0,0.0,0.0,0.0,0.0,0.0,0.0,0.0,0.0,0.0,0.089,0.1207,0.0152,0.0624,0.1436,0.2428,0.2612,0.2479,0.2367,0.2194,0.2197,0.2222,0.2572,0.2752,0.2765,0.2444,0.2103,0.1746,0.0701,0.0,0.0,0.0,0.0536,0.1795,0.0539,0.0,0.0,0.0,0.0,0.0,0.0,0.0,0.0,0.0,0.0,0.0,0.0,0.0,0.0,0.0,0.0,0.0,0.0,0.0,0.0,0.0,0.0,0.0,0.0,0.0,1.0717,1.0717,1.0717,1.0717,1.0717,1.0717,1.0717,1.0717,0.9782,0.8174,0.577,0.0,0.0,0.0,0.0,0.0,0.0,0.0,0.0,0.0,0.0,0.1606,0.0292,0.0146,0.0,0.0,0.0,0.0,0.0,0.0,0.0,0.0,0.0,0.0,0.0,0.0,0.0,0.0,0.0,0.0,0.0,0.0,0.0,0.0,0.0,0.0,0.0,0.0,0.0,0.0,0.0,0.0,0.0,0.0,0.0,0.0,0.0,0.0,0.0,0.0,0.0,0.0,0.0,0.0292,0.073,0.073,0.1341,0.1514,0.0,0.0311,0.0478,0.1599,0.1939,0.2299,0.2688,0.2862,0.2707,0.2747,0.2778,0.2796,0.2796,0.2825,0.2842,0.2842,0.1598,0.0891,0.0897,0.0898,0.1436,0.2874,0.0898,0.0,0.0,0.0,0.0,0.0,0.0,0.0,0.0,0.0,0.0,0.0,0.0,0.0,0.0,0.0,0.0,0.0,0.0,0.0,0.0,0.0,0.0,0.0,0.0,0.0,0.0,0.0,1.0717,1.0717,1.0717,1.0717,1.0717,1.0717,1.0717,1.0047,0.8706,0.0,0.0,0.0,0.0,0.0,0.0,0.0,0.0,0.0,0.0,0.1898,0.1168,0.0438,0.0,0.0,0.0,0.0,0.0,0.0,0.0,0.0,0.0,0.0,0.0,0.0,0.0,0.0,0.0,0.0,0.0,0.0,0.0,0.0,0.0,0.0,0.0,0.0,0.0,0.0,0.0,0.0,0.0,0.0,0.0,0.0,0.0,0.0,0.0,0.0,0.0,0.0,0.0,0.1168,0.2337,0.2337,0.1043,0.0606,0.2272,0.1082,0.0,0.0,0.0808,0.1641,0.2518,0.2692,0.2716,0.2777,0.281,0.2829,0.2829,0.2856,0.2874,0.2874,0.2874,0.2874,0.2874,0.2874,0.2874,0.2874,0.0898,0.0,0.0,0.0,0.0,0.0,0.0,0.0,0.0,0.0,0.0,0.0,0.0,0.0,0.0,0.0,0.0,0.0,0.0,0.0,0.0,0.0,0.0,0.0,0.0,0.0,0.0,0.0,1.0717,1.0717,1.0717,1.0717,1.0717,1.0717,1.0717,1.0585,1.0047,0.0,0.0,0.0,0.0,0.0,0.0,0.0,0.0,0.0,0.0,0.1881,0.1168,0.0438,0.0,0.0,0.0,0.0,0.0,0.0,0.0,0.0,0.0,0.0,0.0,0.0,0.0,0.0,0.0,0.0,0.0,0.0,0.0,0.0,0.0,0.0,0.0,0.0,0.0,0.0,0.0,0.0,0.0,0.0,0.0,0.0,0.0,0.0,0.0,0.0,0.0,0.0293,0.1315,0.1898,0.2342,0.2364,0.1948,0.1822,0.2451,0.2022,0.1573,0.0947,0.1125,0.1641,0.2686,0.2747,0.2793,0.2812,0.2823,0.2837,0.2857,0.2868,0.2874,0.2874,0.2874,0.2874,0.2874,0.2874,0.2885,0.2905,0.2361,0.1275,0.0,0.0,0.0,0.0,0.0,0.0,0.0,0.0,0.0,0.0,0.0,0.0,0.0,0.0,0.0,0.0,0.0,0.0,0.0,0.0,0.0,0.0,0.0,0.0,0.0,0.0,1.0717,1.0717,1.0717,1.0717,1.0717,1.0717,1.0717,1.0717,1.0717,0.0,0.0,0.0,0.0,0.0,0.0,0.0,0.0,0.0,0.2286,0.1883,0.1168,0.0438,0.0,0.0,0.0,0.0,0.0,0.0,0.0,0.0,0.0,0.0,0.0,0.0,0.0,0.0,0.0,0.0,0.0,0.0,0.0,0.0,0.0,0.0,0.0,0.0,0.0,0.0,0.0,0.0,0.0,0.0,0.0,0.0,0.0,0.0,0.0,0.0,0.0442,0.1168,0.2043,0.2337,0.2345,0.2226,0.2403,0.2433,0.2463,0.2495,0.2207,0.1431,0.1618,0.215,0.2718,0.2787,0.2829,0.2829,0.284,0.2857,0.2887,0.2881,0.2879,0.2889,0.289,0.289,0.289,0.289,0.2898,0.2917,0.293,0.2393,0.1112,0.1116,0.0745,0.0,0.0,0.0,0.0,0.0,0.0,0.0,0.0,0.0,0.0,0.0,0.0,0.0,0.0,0.0,0.0,0.0,0.0,0.0,0.0,0.0,0.0,0.0,0.0,1.0717,1.0717,1.0717,1.0717,1.0717,1.0717,1.0717,1.0717,0.0,0.0,0.0,0.0,0.0,0.0,0.0,0.0,0.0,0.2303,0.1896,0.1168,0.0438,0.0,0.0,0.0,0.0,0.0,0.0,0.0,0.0,0.0,0.0,0.0,0.0,0.0,0.0,0.0,0.0,0.0,0.0,0.0,0.0,0.0,0.0,0.0,0.0,0.0,0.0,0.0,0.0,0.0,0.0,0.0,0.0,0.0,0.015,0.0149,0.0149,0.1178,0.0,0.2337,0.2338,0.2348,0.2376,0.2256,0.2284,0.2467,0.2497,0.2221,0.1622,0.214,0.269,0.278,0.2815,0.2831,0.2831,0.2859,0.2887,0.2913,0.2894,0.2891,0.2917,0.2919,0.2919,0.2919,0.2921,0.2923,0.2923,0.295,0.3152,0.3158,0.2999,0.1883,0.0,0.0,0.0,0.0,0.0,0.0,0.0,0.0,0.0,0.0,0.0,0.0,0.0,0.0,0.0,0.0,0.0,0.0,0.0,0.0,0.0,0.0,0.0,0.0,0.0,0.0,1.0717,1.0717,1.0717,1.0717,1.0717,0.0,0.0,0.0,0.0,0.0,0.0,0.0,0.0,0.0,0.0,0.2282,0.1879,0.1168,0.0438,0.0,0.0,0.0,0.0,0.0,0.0,0.0,0.0,0.0,0.0,0.0,0.0,0.0,0.0,0.0,0.0,0.0,0.0,0.0,0.0,0.0,0.0,0.0,0.0,0.0,0.0,0.0,0.0,0.0,0.0,0.0,0.0,0.0,0.0882,0.176,0.0,0.0,0.0,0.0,0.0,0.2378,0.2408,0.1981,0.2005,0.2343,0.2529,0.2562,0.2272,0.252,0.2777,0.2845,0.2859,0.2863,0.2863,0.2889,0.2909,0.2916,0.2931,0.2943,0.295,0.295,0.295,0.295,0.2973,0.2986,0.2986,0.2992,0.3009,0.3032,0.2278,0.114,0.0,0.0,0.0,0.0,0.0,0.0,0.0,0.0,0.0,0.0,0.0,0.0,0.0,0.0,0.0,0.0,0.0,0.0,0.0,0.0,0.0,0.0,0.0,0.0,0.0,0.0,0.0,0.0,0.0,0.0,0.0,0.0,0.0,0.0,0.0,0.0,0.0,0.0,0.0,0.0,0.3252,0.2579,0.1884,0.1168,0.0438,0.0,0.0,0.0,0.0,0.0,0.0,0.0,0.0,0.0,0.0,0.0,0.0,0.0,0.0,0.0,0.0,0.0,0.0,0.0,0.0,0.0,0.0,0.0,0.0,0.0,0.0,0.0,0.0438,0.1022,0.1022,0.0584,0.0146,0.0876,0.1752,0.0,0.0,0.0,0.0,0.0,0.0,0.2107,0.2439,0.2151,0.2169,0.251,0.2551,0.2598,0.2656,0.2733,0.28,0.2848,0.2853,0.2864,0.289,0.2906,0.2927,0.2956,0.296,0.2968,0.2981,0.2983,0.2983,0.2983,0.3011,0.3021,0.3006,0.3021,0.3036,0.3052,0.2098,0.1335,0.0763,0.0191,0.0,0.0,0.0,0.0,0.0,0.0,0.0,0.0,0.0,0.0,0.0,0.0,0.0,0.0,0.0,0.0,0.0,0.0,0.0,0.0,0.0,0.0,0.0,0.0,0.0,0.0,0.0,0.0,0.0,0.0,0.0,0.0,0.0,0.0,0.0,0.0,0.0,0.4929,0.4578,0.3041,0.2043,0.1318,0.0439,0.0,0.0,0.0,0.0,0.0,0.0,0.0,0.0,0.0,0.0,0.0,0.0,0.0,0.0,0.0,0.0,0.0,0.0,0.0,0.0,0.0,0.0,0.0,0.0,0.0,0.0,0.0,0.0,0.0,0.2337,0.1315,0.0585,0.1899,0.2189,0.0,0.0,0.0,0.0,0.0,0.0,0.0,0.2463,0.2473,0.2485,0.2517,0.2578,0.2653,0.274,0.2778,0.2807,0.2833,0.284,0.2861,0.2911,0.2924,0.2951,0.3003,0.2987,0.2987,0.3013,0.3014,0.3014,0.3014,0.3039,0.304,0.3014,0.3039,0.3052,0.3052,0.2479,0.2098,0.1716,0.0954,0.0381,0.0191,0.0,0.0,0.0,0.0,0.0,0.0,0.0,0.0,0.0,0.0,0.0,0.0,0.0,0.0,0.0,0.0,0.0,0.0,0.0,0.0,0.0,0.0,0.0,0.0,0.0,0.0,0.0,0.0,0.0,0.0,0.0,0.0,0.0,0.0,0.9065,0.7068,0.4785,0.3052,0.2194,0.2076,0.0741,0.0,0.0,0.0,0.0,0.0,0.0,0.0,0.0,0.0,0.0,0.0,0.0,0.0,0.0,0.0,0.0,0.0,0.0,0.0,0.0,0.0,0.0,0.0,0.0,0.0,0.0,0.0,0.0,0.0,0.2191,0.2206,0.1922,0.1463,0.0,0.0,0.0,0.0,0.0,0.0,0.0,0.0,0.2469,0.2489,0.2518,0.2548,0.2645,0.274,0.2806,0.2841,0.2861,0.2867,0.2887,0.2906,0.2915,0.2962,0.2996,0.3006,0.3026,0.304,0.3044,0.3046,0.3046,0.3046,0.305,0.305,0.3046,0.305,0.3052,0.3052,0.3052,0.2862,0.2862,0.2671,0.2098,0.1144,0.0381,0.0,0.0,0.0,0.0,0.0,0.0,0.0,0.0,0.0,0.0,0.0,0.0,0.0,0.0,0.0,0.0,0.0,0.0,0.0,0.0,0.0,0.0,0.0,0.0,0.0,0.0,0.0,0.0,0.0,0.0,0.0,0.0,1.1274,1.0658,0.9325,0.7263,0.5122,0.3391,0.2226,0.1646,0.0747,0.0,0.0,0.0,0.0,0.0,0.0,0.0,0.0,0.0,0.0,0.0,0.0,0.0,0.0,0.0,0.0,0.0,0.0,0.0,0.0,0.1314,0.1168,0.073,0.0,0.0,0.0,0.0,0.0,0.2188,0.2356,0.2379,0.1935,0.0,0.0,0.0,0.0,0.0,0.0,0.0,0.0,0.2496,0.253,0.2587,0.2668,0.2713,0.2759,0.2819,0.2826,0.2837,0.287,0.2886,0.2912,0.296,0.299,0.3014,0.3031,0.3044,0.3052,0.3052,0.3052,0.3052,0.3052,0.3052,0.3052,0.3052,0.3052,0.3052,0.3052,0.3052,0.3052,0.3052,0.3052,0.2862,0.2288,0.1907,0.0954,0.0,0.0,0.0,0.0,0.0,0.0,0.0,0.0,0.0,0.0,0.0,0.0,0.0,0.0,0.0,0.0,0.0,0.0,0.0,0.0,0.0,0.0,0.0,0.0,0.0,0.0,0.0,0.0,0.0,0.0,1.1118,1.1382,1.1136,1.0529,0.9416,0.7269,0.5215,0.3127,0.2561,0.1506,0.0,0.0,0.0,0.0,0.0,0.0,0.0,0.0,0.0,0.0,0.0,0.0,0.0,0.0,0.0,0.0,0.0,0.0,0.0,0.0,0.0,0.0,0.0,0.0,0.0,0.2189,0.2334,0.2333,0.2333,0.236,0.2394,0.0,0.0,0.2463,0.2485,0.0,0.0,0.0,0.0,0.2563,0.254,0.2583,0.2656,0.2757,0.2765,0.2778,0.2831,0.2825,0.2831,0.2878,0.2897,0.2932,0.3001,0.3013,0.3026,0.3051,0.3052,0.3052,0.3052,0.3052,0.3052,0.3052,0.3052,0.3052,0.3052,0.3052,0.3052,0.3052,0.3052,0.3052,0.3052,0.3052,0.3052,0.3052,0.3052,0.2288,0.0763,0.0381,0.0381,0.0382,0.0382,0.0382,0.0382,0.0382,0.0191,0.0,0.0,0.0,0.0,0.0,0.0,0.0,0.0,0.0,0.0,0.0,0.0,0.0,0.0,0.0,0.0,0.0,0.0,0.0,0.0,0.0,1.1219,1.1382,1.0209,0.9557,0.978,0.8945,0.7548,0.5591,0.3328,0.1506,0.0,0.0,0.0,0.0,0.0,0.0,0.0,0.0,0.0,0.0,0.0,0.0,0.0,0.0,0.0,0.0,0.0,0.0,0.0,0.0,0.0,0.0,0.0,0.0,0.2187,0.0,0.2333,0.2333,0.2333,0.2376,0.2421,0.2423,0.0,0.0,0.2534,0.2534,0.0,0.2585,0.0,0.0,0.2596,0.2645,0.2698,0.2735,0.2787,0.2833,0.2867,0.2891,0.2908,0.2912,0.2962,0.2999,0.3006,0.3032,0.305,0.3052,0.3052,0.3052,0.3052,0.3052,0.3052,0.3052,0.3052,0.3052,0.3052,0.3052,0.3052,0.3052,0.3052,0.3052,0.3052,0.3052,0.3052,0.3052,0.3052,0.3052,0.2862,0.1716,0.1335,0.1335,0.1335,0.1335,0.1335,0.1335,0.0763,0.0,0.0,0.0,0.0,0.0,0.0,0.0,0.0,0.0,0.0,0.0,0.0,0.0,0.0,0.0,0.0,0.0,0.0,0.0,0.0,1.128,1.1552,1.1796,1.0351,0.9731,0.9976,0.9203,0.7785,0.5751,0.2554,0.0598,0.0,0.0,0.0,0.0,0.0,0.0,0.0,0.1022,0.146,0.146,0.0876,0.0,0.0,0.0,0.0,0.0,0.0,0.0,0.0,0.0,0.2042,0.2334,0.0,0.0,0.0,0.0,0.0,0.2337,0.2356,0.2405,0.2457,0.2476,0.0,0.0,0.0,0.0,0.0,0.2626,0.2645,0.0,0.2683,0.2721,0.2759,0.2789,0.2829,0.286,0.2872,0.2898,0.2923,0.2942,0.2981,0.3014,0.3033,0.3046,0.3052,0.3052,0.3052,0.3052,0.3052,0.3052,0.3052,0.3052,0.3052,0.3052,0.3052,0.3052,0.3052,0.3052,0.3052,0.3052,0.3052,0.3052,0.3052,0.3052,0.3052,0.3052,0.3052,0.267,0.2479,0.2479,0.2479,0.2479,0.2479,0.2479,0.2288,0.1716,0.0,0.0,0.0,0.0,0.0,0.0,0.0,0.0,0.0,0.0,0.0,0.0,0.0,0.0,0.0,0.0,0.0,0.0,1.1226,1.1565,1.183,1.1979,1.0655,0.9655,0.9162,0.8121,0.7013,0.5866,0.1933,0.0,0.0,0.0,0.0,0.0,0.0438,0.073,0.073,0.1606,0.2043,0.2191,0.1752,0.1606,0.0,0.0,0.0,0.0,0.0,0.0,0.0,0.0,0.2333,0.0,0.0,0.0,0.0,0.0,0.0,0.0,0.2372,0.2423,0.2476,0.0,0.0,0.0,0.0,0.0,0.0,0.2671,0.2699,0.2728,0.2748,0.2777,0.2804,0.2825,0.2855,0.2876,0.2886,0.2912,0.2942,0.2972,0.3002,0.3029,0.305,0.3052,0.3052,0.3052,0.3052,0.3052,0.3052,0.3052,0.3052,0.3052,0.3052,0.3052,0.3052,0.3052,0.3052,0.3052,0.3052,0.3052,0.3052,0.3052,0.3052,0.3052,0.3052,0.3052,0.3052,0.3052,0.3052,0.3052,0.3052,0.3052,0.3052,0.3052,0.3052,0.2862,0.0,0.0,0.0,0.0,0.0,0.0,0.0,0.0,0.0,0.0,0.0,0.0,0.0,0.0,0.0,0.0,0.0,0.0,1.1396,1.1809,1.1993,1.1837,1.0451,0.9005,0.7243,0.5588,0.5109,0.5789,0.1908,0.0,0.0,0.0,0.0,0.0146,0.1606,0.2337,0.2191,0.146,0.1606,0.2337,0.2337,0.2337,0.2335,0.0,0.0,0.0,0.0,0.0,0.0,0.0,0.0,0.0,0.0,0.0,0.0,0.0,0.2354,0.2378,0.2379,0.2423,0.2477,0.0,0.0,0.0,0.2634,0.2626,0.2631,0.272,0.2762,0.2784,0.2784,0.2808,0.2829,0.2829,0.2855,0.2885,0.2912,0.2942,0.2973,0.3003,0.3033,0.3052,0.3052,0.3052,0.3052,0.3052,0.3052,0.3052,0.3052,0.3052,0.3052,0.3052,0.3052,0.3052,0.3052,0.3052,0.3052,0.3052,0.3052,0.3052,0.3052,0.3052,0.3052,0.3052,0.3052,0.3052,0.3052,0.3052,0.3052,0.3052,0.3052,0.3052,0.3052,0.3052,0.3052,0.3052,0.0,0.0,0.0,0.0,0.0,0.0,0.0,0.0,0.0,0.0,0.0,0.0,0.0,0.0,0.0,0.0,0.0,0.0,1.1545,1.1769,1.1925,1.1993,1.0571,0.935,0.8785,0.6058,0.4283,0.3417,0.1615,0.0876,0.0876,0.0876,0.0876,0.0876,0.1314,0.1752,0.2337,0.2042,0.2042,0.2334,0.2334,0.2334,0.2334,0.0,0.0,0.0,0.0,0.0,0.0,0.0,0.0,0.0,0.0,0.0,0.0,0.2333,0.2354,0.2383,0.2405,0.247,0.0,0.2544,0.0,0.0,0.0,0.2672,0.0,0.0,0.2808,0.2815,0.2815,0.284,0.2853,0.2831,0.2871,0.2906,0.2915,0.2961,0.2996,0.3006,0.3033,0.3052,0.3052,0.3052,0.3052,0.3052,0.3052,0.3052,0.3052,0.3052,0.3052,0.3052,0.3052,0.3052,0.3052,0.3052,0.3052,0.3052,0.3052,0.3052,0.3052,0.3052,0.3052,0.3052,0.3052,0.3052,0.3052,0.3052,0.3052,0.3052,0.3052,0.3052,0.3052,0.3052,0.3052,0.3052,0.0,0.0,0.0,0.0,0.0,0.0,0.0,0.0,0.0,0.0,0.0,0.0,0.0,0.0,0.0,0.0,0.0,0.0,0.0,1.1877,1.1938,1.1972,1.107,1.0116,0.9405,0.6275,0.4238,0.3242,0.2196,0.1605,0.1606,0.1606,0.1606,0.1606,0.1605,0.1896,0.2335,0.2334,0.2333,0.2333,0.2333,0.2333,0.2333,0.0,0.0,0.0,0.0,0.0,0.0,0.0,0.0,0.0,0.0,0.0,0.0,0.2333,0.2363,0.2403,0.2433,0.2499,0.0,0.2589,0.262,0.2661,0.2716,0.0,0.0,0.2818,0.2838,0.2846,0.2846,0.2861,0.2871,0.2864,0.2893,0.2924,0.2949,0.2984,0.3011,0.3024,0.3041,0.3052,0.3052,0.3052,0.3052,0.3052,0.3052,0.3052,0.3052,0.3052,0.3052,0.3052,0.3052,0.3052,0.3052,0.3052,0.3052,0.3052,0.3052,0.3052,0.3052,0.3052,0.3052,0.3052,0.3052,0.3052,0.3052,0.3052,0.3052,0.3052,0.3052,0.3052,0.3052,0.3052,0.3052,0.3052,0.0,0.0,0.0,0.0,0.0,0.0,0.0,0.0,0.0,0.0,1.1185,0.0,0.0,0.0,0.0,0.0,0.0,0.0,0.0,0.0,1.1959,1.1816,1.1809,1.1015,0.9291,0.654,0.4947,0.4657,0.3059,0.2334,0.2335,0.2335,0.2335,0.2335,0.2334,0.2333,0.2333,0.2333,0.2333,0.2333,0.2333,0.2333,0.2333,0.2478,0.0,0.0,0.0,0.0,0.0,0.0,0.0,0.0,0.0,0.0,0.2334,0.2337,0.238,0.2435,0.2465,0.2519,0.2581,0.2634,0.2819,0.2849,0.3113,0.3161,0.3362,0.3185,0.3033,0.3233,0.3233,0.3056,0.2886,0.2912,0.292,0.2943,0.2999,0.3009,0.3021,0.305,0.3052,0.3052,0.3052,0.3052,0.3052,0.3052,0.3052,0.3052,0.3052,0.3052,0.3052,0.3052,0.3052,0.3052,0.3052,0.3052,0.3052,0.3052,0.3052,0.3052,0.3052,0.3052,0.3052,0.3052,0.3052,0.3052,0.3052,0.3052,0.3052,0.3052,0.3052,0.3052,0.3052,0.3052,0.3052,0.3052,0.0,0.0,0.0,0.0,0.0,0.0,0.0,0.0,0.0,0.0,0.0,0.0,0.0,0.0,0.0,0.0,0.0,0.0,0.0,0.0,1.1701,1.1667,1.1667,1.0919,0.9291,0.8709,0.7119,0.4657,0.3059,0.2333,0.2334,0.2334,0.2334,0.2334,0.2333,0.2333,0.2333,0.2333,0.2333,0.2333,0.2333,0.2333,0.2478,0.3641,0.4221,0.0,0.0,0.0,0.0,0.0,0.0,0.0,0.2333,0.2333,0.2337,0.2361,0.2412,0.2466,0.2496,0.2564,0.2631,0.2643,0.3709,0.5001,0.508,0.6201,0.6958,0.5357,0.501,0.502,0.502,0.3973,0.2909,0.2915,0.2956,0.2991,0.3005,0.3028,0.3044,0.3051,0.3052,0.3052,0.3052,0.3052,0.3052,0.3052,0.3052,0.3052,0.3052,0.3052,0.3052,0.3052,0.3052,0.3052,0.3052,0.3052,0.3052,0.3052,0.3052,0.3052,0.3052,0.3052,0.3052,0.3052,0.3052,0.3052,0.3052,0.3052,0.3052,0.3052,0.3052,0.3052,0.3052,0.3052,0.3052,0.3052,0.0,0.0,0.0,0.0,0.0,0.0,0.0,0.0,0.0,0.0,0.0,0.0,0.0,0.0,0.0,0.0,0.0,0.0,0.0,0.0,1.1619,1.1619,1.1619,1.1181,1.0455,0.9723,0.8564,0.6974,0.4511,0.3059,0.2333,0.2333,0.2333,0.2333,0.2333,0.2333,0.2333,0.2333,0.277,0.3496,0.3496,0.393,0.4509,0.4657,0.4657,0.4657,0.0,0.0,0.0,0.0,0.0,0.0,0.0,0.0,0.3504,0.3551,0.4211,0.4601,0.3931,0.4346,0.5095,0.5346,0.6139,0.6952,0.703,0.8522,0.9655,0.8587,0.6981,0.5912,0.6981,0.5599,0.4375,0.4214,0.4459,0.4138,0.3216,0.3041,0.3052,0.3052,0.3052,0.3052,0.3052,0.3052,0.3052,0.3052,0.3052,0.3052,0.3052,0.3052,0.3052,0.3052,0.3052,0.3052,0.3052,0.3052,0.3052,0.3052,0.3052,0.3052,0.3052,0.3052,0.3052,0.3052,0.3052,0.3052,0.3052,0.3052,0.3052,0.3052,0.3052,0.3052,0.3052,0.3052,0.3052,0.3052,0.0,0.0,0.0,0.0,0.0,0.0,0.0,0.0,0.0,0.0,0.0,0.0,0.0,0.0,0.0,0.0,0.0,0.0,0.0,0.0,0.0,1.1619,1.1619,1.1619,1.1619,1.0311,0.9579,0.9291,0.6684,0.4657,0.0,0.2624,0.2478,0.277,0.277,0.2914,0.3059,0.3059,0.393,0.5093,0.4802,0.567,0.6825,0.5525,0.5235,0.5383,0.393,0.0,0.0,0.0,0.0,0.0,0.0,0.0,0.5122,0.5336,0.6159,0.7037,0.5849,0.6609,0.7885,0.8138,0.8612,0.8883,0.8978,1.048,1.1976,1.1976,0.9121,0.7163,0.8786,0.7779,0.6401,0.6466,0.6532,0.5845,0.3808,0.3623,0.3432,0.3052,0.3052,0.3052,0.3052,0.3052,0.3052,0.3052,0.3052,0.3052,0.3052,0.3052,0.3052,0.3052,0.3052,0.3052,0.3052,0.3052,0.3052,0.3052,0.3052,0.3052,0.3052,0.3052,0.3052,0.3052,0.3052,0.3052,0.3052,0.3052,0.3052,0.3052,0.3052,0.3052,0.3052,0.3052,0.3052,0.3052,0.0,0.0,0.0,0.0,0.0,0.0,0.0,0.0,0.0,0.0,1.1803,0.0,0.0,0.0,0.0,0.0,0.0,0.0,0.0,0.0,0.0,1.1619,1.1619,1.1619,1.1619,1.1332,1.0599,0.9291,0.8853,0.0,0.0,0.0,0.0,0.4366,0.4366,0.509,0.6391,0.6391,0.6536,0.6536,0.5235,0.567,0.697,0.6825,0.7548,0.8709,0.842,0.842,0.8131,0.6825,0.6391,0.0,0.0,0.0,0.681,0.69,0.7193,0.7501,0.7295,0.7661,0.806,0.8248,0.9581,1.0914,1.103,1.2497,1.3938,1.3938,1.2154,1.0753,1.1209,0.968,0.8492,0.8582,0.8669,0.7974,0.59,0.5713,0.5142,0.3243,0.3052,0.3052,0.3052,0.3052,0.3052,0.3052,0.3052,0.3052,0.3052,0.3052,0.3052,0.3052,0.3052,0.3052,0.3052,0.3052,0.3052,0.3052,0.3052,0.3052,0.3052,0.3052,0.3052,0.3052,0.3052,0.3052,0.3052,0.3052,0.3052,0.3052,0.3052,0.3052,0.3052,0.3052,0.3052,0.3052,0.0,0.0,0.0,0.0,0.0,0.0,0.0,0.0,0.0,0.0,0.0,1.1864,0.0,0.0,0.0,0.0,0.0,0.0,0.0,0.0,0.0,1.1619,1.1619,1.1619,1.1619,1.1619,1.1325,1.0599,0.9723,0.0,0.0,0.5956,0.538,0.0,0.0,0.0,0.697,0.697,0.7548,0.8275,0.7553,0.8309,0.9523,0.8584,0.8749,0.9238,0.8295,0.7982,0.7837,0.7259,0.697,0.6978,0.7027,0.0,0.0,0.0,0.9519,1.0274,1.0538,1.0009,0.9771,1.1014,1.2211,1.2879,1.3015,1.3761,1.4299,1.4299,1.3642,1.317,1.3232,1.1947,1.0611,1.0659,1.0756,1.0068,0.7985,0.685,0.571,0.4952,0.3813,0.3052,0.3052,0.3052,0.3052,0.3052,0.3052,0.3052,0.3052,0.3052,0.3052,0.3052,0.3052,0.3052,0.3052,0.3052,0.3052,0.3052,0.3052,0.3052,0.3052,0.3052,0.3052,0.3052,0.3052,0.3052,0.3052,0.3052,0.3052,0.3052,0.3052,0.3052,0.3052,0.3052,0.3052,0.3052,0.0,0.0,0.0,0.0,0.0,0.0,0.0,0.0,0.0,0.0,0.0,0.0,0.0,0.0,0.0,0.0,0.0,0.0,0.0,0.0,0.0,1.1619,1.1619,1.1619,1.1619,1.1619,1.1619,1.1619,0.0,0.0,0.9873,0.8709,0.8131,0.0,0.7693,0.7837,0.0,0.0,0.0,0.0,0.9468,1.0268,1.167,0.9954,0.9686,0.9894,0.8604,0.8131,0.8131,0.816,0.8164,0.8188,0.844,0.9239,0.0,0.0,0.0,1.2427,1.28,1.2131,1.1736,1.3369,1.3933,1.4116,1.4265,1.4299,1.4312,1.4346,1.4468,1.4584,1.4618,1.3701,1.2731,1.276,1.2841,1.2145,1.0257,0.8554,0.7226,0.628,0.4761,0.3623,0.3243,0.3052,0.3052,0.3052,0.3052,0.3052,0.3052,0.3052,0.3052,0.3052,0.3052,0.3052,0.3052,0.3052,0.3052,0.3052,0.3052,0.3052,0.3052,0.3052,0.3052,0.3052,0.3052,0.3052,0.3052,0.3052,0.3052,0.3052,0.3052,0.3052,0.3052,0.3052,0.3052,0.3052,0.0,0.0,0.0,0.0,0.0,0.0,0.0,0.0,0.0,0.0,0.0,0.0,0.0,0.0,1.1769,1.164,1.1619,1.1619,1.1619,1.1619,1.1619,1.1619,1.1619,0.0,1.1619,1.1619,1.1619,0.0,0.0,0.0,1.1476,1.1332,1.1325,1.1325,0.9873,1.0017,1.1325,0.0,0.0,0.0,0.0,1.0351,1.1683,1.0052,1.0351,1.1663,1.1378,1.1325,1.1352,1.1477,1.1524,1.155,1.1851,1.1998,1.2119,0.0,0.0,0.0,1.2698,1.2956,1.309,1.3566,1.3858,1.4116,1.4265,1.4299,1.434,1.4475,1.4624,1.4774,1.4923,1.4957,1.4825,1.4959,1.4986,1.4422,1.2334,1.1956,1.0441,0.647,0.609,0.5142,0.3243,0.3052,0.3052,0.3052,0.3052,0.3052,0.3052,0.3052,0.3052,0.3052,0.3052,0.3052,0.3052,0.3052,0.3052,0.3052,0.3052,0.3052,0.3052,0.3052,0.3052,0.3052,0.3052,0.3052,0.3052,0.3052,0.3052,0.3052,0.3052,0.3052,0.3052,0.3052,0.3052,0.3052,0.0,0.0,0.0,0.0,0.0,0.0,0.0,0.0,0.0,0.0,0.0,0.0,0.0,1.1748,1.1674,1.1626,1.1619,1.1619,1.1619,1.1619,1.1619,1.1619,1.1619,1.1619,1.1619,1.1619,0.0,0.0,0.0,1.1619,1.1619,1.1619,1.1619,1.1619,1.1038,1.1038,1.1619,1.1619,0.0,0.0,0.0,1.1443,1.1965,1.1276,1.1508,1.2108,1.1959,0.0,1.1925,1.2074,1.206,1.2006,1.2162,1.2244,1.2311,1.24,1.2461,1.2556,1.2813,1.3024,1.3247,1.3553,1.3851,1.4089,1.4143,1.4231,1.434,1.4482,1.4631,1.4787,1.4943,1.5045,1.512,1.5174,1.5181,1.4993,1.4234,1.3093,1.1574,1.0252,0.7606,0.59,0.5142,0.3813,0.3052,0.3052,0.3052,0.3052,0.3052,0.3052,0.3052,0.3052,0.3052,0.3052,0.3052,0.3052,0.3052,0.3052,0.3052,0.3052,0.3052,0.3052,0.3052,0.3052,0.3052,0.3052,0.3052,0.3052,0.3052,0.3052,0.3052,0.3052,0.3052,0.3052,0.3052,0.3052,0.0,0.0,0.0,0.0,0.0,0.0,0.0,0.0,0.0,0.0,0.0,0.0,0.0,0.0,1.1619,1.1619,1.1619,1.1619,1.1619,1.1619,1.1619,1.1619,1.1619,1.1619,1.1619,1.1619,1.1619,0.0,0.0,0.0,0.0,1.1619,1.1619,1.1619,1.1619,1.1619,0.0,0.0,0.0,1.164,0.0,1.1972,1.2054,1.2006,1.2115,1.2277,1.2176,0.0,1.2169,1.2372,1.2372,1.2305,1.2406,1.24,1.2379,1.2474,1.2535,1.2623,1.2827,1.3024,1.3234,1.3492,1.3736,1.3953,1.4048,1.415,1.4292,1.4536,1.4672,1.4801,1.5004,1.512,1.5181,1.5181,1.5181,1.5181,1.5181,1.404,1.2904,1.2334,0.9874,0.7606,0.628,0.4952,0.3813,0.3243,0.3052,0.3052,0.3052,0.3052,0.3052,0.3052,0.3052,0.3052,0.3052,0.3052,0.3052,0.3052,0.3052,0.3052,0.3052,0.3052,0.3052,0.3052,0.3052,0.3052,0.3052,0.3052,0.3052,0.3052,0.3052,0.3052,0.3052,0.3052,0.3052,0.3052,0.0,0.0,0.0,0.0,0.0,0.0,0.0,0.0,0.0,0.0,0.0,0.0,0.0,0.0,0.0,1.1619,1.1619,1.1619,1.1619,1.1619,1.1619,1.1619,1.1619,1.1619,1.1626,1.1626,1.1626,0.0,0.0,0.0,0.0,0.0,1.1619,1.1619,1.1619,1.1619,1.1619,0.0,1.1619,1.1647,1.1945,1.2067,1.2088,1.2237,1.2305,1.2311,1.2311,1.2311,1.2352,1.2644,1.2739,1.2732,1.2725,1.2623,1.2501,1.2508,1.2617,1.2732,0.0,0.0,0.0,1.3363,1.3519,1.3709,1.4,1.4068,1.4197,1.4645,1.474,1.4828,1.5126,1.5181,1.5181,1.5181,1.5181,1.5181,1.5181,1.5181,1.4422,1.2522,1.2334,1.063,0.666,0.609,0.5332,0.3243,0.3052,0.3052,0.3052,0.3052,0.3052,0.3052,0.3052,0.3052,0.3052,0.3052,0.3052,0.3052,0.3052,0.3052,0.3052,0.3052,0.3052,0.3052,0.3052,0.3052,0.3052,0.3052,0.3052,0.3052,0.3052,0.3052,0.3052,0.3052,0.3052,0.3052,0.0,0.0,0.0,0.0,0.0,0.0,0.0,0.0,0.0,0.0,0.0,0.0,1.1619,1.1619,1.1619,1.1619,1.1619,1.1619,1.1619,1.1619,1.1619,1.1619,1.1619,1.1667,1.1769,1.1775,1.1775,0.0,0.0,0.0,0.0,0.0,0.0,0.0,1.1619,1.1619,1.1619,1.1619,1.1619,1.1647,1.1945,1.2128,1.2244,1.2386,1.2583,1.2773,1.2773,1.2773,1.2807,1.299,1.2908,1.2712,1.2603,1.2535,0.0,1.2637,1.2698,1.2773,1.299,0.0,0.0,0.0,0.0,0.0,1.3865,1.3994,1.4197,1.4645,1.474,1.4828,1.5126,1.5181,1.5181,1.5181,1.5181,1.5181,1.5181,1.5181,1.4993,1.4422,1.3093,1.1768,1.063,0.7795,0.59,0.5332,0.4004,0.3052,0.3052,0.3052,0.3052,0.3052,0.3052,0.3052,0.3052,0.3052,0.3052,0.3052,0.3052,0.3052,0.3052,0.3052,0.3052,0.3052,0.3052,0.3052,0.3052,0.3052,0.3052,0.3052,0.3052,0.3052,0.3052,0.3052,0.3052,0.3052,0.0,0.0,0.0,0.0,0.0,0.0,0.0,0.0,0.0,0.0,0.0,0.0,1.1701,1.1708,1.1735,1.1796,1.1803,1.1803,1.1803,1.1803,1.1803,1.1803,1.1803,1.1843,1.1925,1.1925,1.1898,0.0,0.0,0.0,0.0,0.0,0.0,0.0,0.0,0.0,0.0,1.1619,1.1619,1.1653,1.2013,1.221,1.2318,1.2589,1.2807,1.2969,1.303,1.3051,1.3071,1.322,1.3112,1.2895,1.2813,1.2739,1.2712,1.28,1.2868,0.0,0.0,0.0,1.3288,1.3376,0.0,0.0,1.379,1.3912,1.4122,1.4631,1.474,1.4828,1.5126,1.5181,1.5181,1.5181,1.5181,1.5181,1.5181,1.5181,1.5181,1.5181,1.4228,1.3093,1.2334,0.9307,0.704,0.609,0.4192,0.3052,0.3052,0.3052,0.3052,0.3052,0.3052,0.3052,0.3052,0.3052,0.3052,0.3052,0.3052,0.3052,0.3052,0.3052,0.3052,0.3052,0.3052,0.3052,0.3052,0.3052,0.3052,0.3052,0.3052,0.3052,0.3052,0.3052,0.3052,0.3052,0.0,0.0,0.0,0.0,0.0,0.0,0.0,0.0,0.0,0.0,1.166,1.1714,1.1843,1.1857,1.1911,1.2047,1.206,1.206,1.206,1.206,1.206,1.206,1.206,1.2074,1.2088,1.2074,1.1993,1.1857,0.0,0.0,0.0,0.0,0.0,0.0,0.0,0.0,0.0,1.164,1.1653,1.1701,1.2121,1.2311,1.2386,1.282,1.2996,1.3024,1.3152,1.3207,1.3247,1.3376,1.3336,1.3214,1.3186,1.3098,1.301,1.299,1.3085,1.32,0.0,0.0,0.0,1.3403,1.3403,0.0,1.3777,1.3838,1.4007,1.459,1.4713,1.4801,1.5079,1.5133,1.5133,1.5133,1.5147,1.5167,1.5181,1.5181,1.5181,1.5181,1.5181,1.4422,1.2334,1.0257,0.8174,0.628,0.4192,0.3052,0.3052,0.3052,0.3052,0.3052,0.3052,0.3052,0.3052,0.3052,0.3052,0.3052,0.3052,0.3052,0.3052,0.3052,0.3052,0.3052,0.3052,0.3052,0.3052,0.3052,0.3052,0.3052,0.3052,0.3052,0.3052,0.3052,0.3052,0.3052,0.0,0.0,0.0,0.0,0.0,0.0,0.0,0.0,0.0,0.0,1.1898,1.1986,1.2013,1.202,1.2026,1.206,1.206,1.206,1.206,1.206,1.206,1.206,1.206,1.2121,1.2244,1.2128,1.2047,1.202,0.0,0.0,0.0,0.0,0.0,0.0,0.0,0.0,0.0,1.1742,1.1864,1.1993,1.2203,1.2433,1.2678,1.3003,1.3207,1.3315,1.3349,1.3437,1.3546,1.3573,1.3566,1.3498,1.3247,1.3241,1.3288,1.3166,1.3241,1.3356,1.3356,1.3376,1.3403,1.3403,1.3403,0.0,1.3777,1.3838,1.3973,1.4455,1.4557,1.4611,1.4794,1.4828,1.4828,1.4828,1.493,1.5052,1.5167,1.5181,1.5181,1.5181,1.5181,1.4422,1.2334,1.0257,0.8174,0.628,0.4192,0.3052,0.3052,0.3052,0.3052,0.3052,0.3052,0.3052,0.3052,0.3052,0.3052,0.3052,0.3052,0.3052,0.3052,0.3052,0.3052,0.3052,0.3052,0.3052,0.3052,0.3052,0.3052,0.3052,0.3052,0.3052,0.3052,0.3052,0.3052,0.3052,0.0,0.0,0.0,0.0,0.0,0.0,0.0,0.0,1.1945,1.1945,1.2013,1.2094,1.2169,1.2108,1.2094,1.2169,1.2108,1.206,1.206,1.206,1.206,1.206,1.206,1.2094,1.2176,1.2101,1.2026,1.1945,0.0,0.0,0.0,0.0,0.0,0.0,0.0,0.0,0.0,1.1803,1.2006,1.2291,1.2447,1.2644,1.2874,1.3173,1.3336,1.341,1.3485,1.3607,1.3736,1.3736,1.3736,1.3709,1.3553,1.3559,1.3593,1.3444,1.3458,1.3498,1.3424,1.3403,1.3403,1.3403,1.3458,0.0,0.0,1.3899,1.4061,1.4434,1.4509,1.4557,1.4713,1.474,1.474,1.474,1.4869,1.497,1.4964,1.5086,1.5181,1.5181,1.5181,1.4798,1.3852,1.0824,0.7795,0.4764,0.3623,0.3052,0.3052,0.3052,0.3052,0.3052,0.3052,0.3052,0.3052,0.3052,0.3052,0.3052,0.3052,0.3052,0.3052,0.3052,0.3052,0.3052,0.3052,0.3052,0.3052,0.3052,0.3052,0.3052,0.3052,0.3052,0.3052,0.3052,0.3052,0.3052,0.0,0.0,0.0,0.0,0.0,0.0,0.0,0.0,1.2115,1.2142,1.2149,1.2196,1.2318,1.2223,1.2196,1.2318,1.2216,1.2135,1.2108,1.2108,1.2094,1.206,1.206,1.206,1.206,1.2033,1.1952,1.183,0.0,0.0,0.0,0.0,0.0,0.0,0.0,0.0,0.0,1.1925,1.2189,1.2562,1.2712,1.2868,1.303,1.3302,1.3417,1.3464,1.3648,1.379,1.3892,1.3919,1.3912,1.3885,1.3885,1.3885,1.3851,1.3682,1.3648,1.3634,1.3451,1.3424,1.3444,1.3444,1.3559,1.3709,0.0,0.0,0.0,1.4414,1.4468,1.4509,1.4631,1.4658,1.4638,1.4577,1.4746,1.4821,1.4638,1.4889,1.5106,1.514,1.5167,1.4993,1.461,1.1202,0.7606,0.4002,0.3623,0.3432,0.3052,0.3052,0.3052,0.3052,0.3052,0.3052,0.3052,0.3052,0.3052,0.3052,0.3052,0.3052,0.3052,0.3052,0.3052,0.3052,0.3052,0.3052,0.3052,0.3052,0.3052,0.3052,0.3052,0.3052,0.3052,0.3052,0.3052,0.3052,1.2628,1.2331,0.0,0.0,0.0,0.0,0.0,0.0,1.2311,1.2433,1.2454,1.2461,1.2474,0.0,0.0,0.0,0.0,1.24,1.2271,1.2264,1.2203,1.2067,1.206,1.206,1.206,1.1925,1.185,1.183,0.0,0.0,0.0,0.0,0.0,0.0,1.1891,0.0,1.1857,1.2257,1.2535,1.2718,1.2874,1.3024,1.3166,1.3336,1.3485,1.3641,1.3919,1.4034,1.4068,1.4204,1.4156,1.4048,1.4048,1.4048,1.3987,1.3709,1.3715,1.3756,1.3478,1.3498,1.36,1.36,1.3709,1.3858,1.4014,0.0,1.4122,1.4292,0.0,1.4333,1.4346,0.0,0.0,1.3987,1.4292,1.4468,1.4183,1.4516,1.4841,1.4977,1.5106,1.4422,1.271,1.0446,0.8174,0.59,0.571,0.4952,0.3243,0.3052,0.3052,0.3052,0.3052,0.3052,0.3052,0.3052,0.3052,0.3052,0.3052,0.3052,0.3052,0.3052,0.3052,0.3052,0.3052,0.3052,0.3052,0.3052,0.3052,0.3052,0.3052,0.3052,0.3052,0.3052,0.3052,0.3052,1.3258,1.3093,0.0,0.0,1.2775,1.2623,1.2623,1.2525,1.2433,1.2494,1.2501,1.2501,0.0,0.0,0.0,0.0,0.0,1.2182,0.0,0.0,1.1959,1.1809,1.1803,1.1803,1.1803,1.1742,1.1708,1.1708,1.1647,0.0,0.0,0.0,0.0,0.0,1.1965,1.2121,1.223,1.242,1.2691,1.2983,1.2969,1.3152,1.3444,1.3512,1.3682,1.3899,1.4027,1.4129,1.4211,1.4278,1.4258,1.4204,1.4204,1.4204,1.4163,1.3946,1.3926,1.3926,1.3715,1.377,1.3885,1.3885,1.4061,1.4245,1.4312,1.4394,1.4475,1.4543,0.0,0.0,0.0,0.0,0.0,0.0,1.4387,1.4441,1.4231,1.4516,1.4794,1.495,1.5025,1.4338,1.2328,1.1334,0.9441,0.6277,0.6057,0.511,0.3242,0.3052,0.3052,0.3052,0.3052,0.3052,0.3052,0.3052,0.3052,0.3052,0.3052,0.3052,0.3052,0.3052,0.3052,0.3052,0.3052,0.3052,0.3052,0.3052,0.3052,0.3052,0.3052,0.3052,0.3052,0.3052,0.3052,0.3052,0.0,0.0,0.0,0.0,1.3274,1.2965,1.2965,1.2622,1.2461,1.2494,1.2467,1.2461,1.2501,1.2413,0.0,0.0,1.2244,1.2115,0.0,0.0,1.185,1.1742,1.1667,1.164,1.1674,1.164,1.1619,1.1619,1.1619,0.0,0.0,0.0,0.0,0.0,0.0,1.2338,1.2508,1.2637,1.2874,1.3166,1.3105,1.3322,1.3688,1.3736,1.3885,1.4075,1.4122,1.4204,1.4299,1.4299,1.4272,1.4245,1.4285,1.4272,1.4217,1.4102,1.4102,1.4102,1.3946,1.4041,1.419,1.419,1.4387,1.4577,1.4577,1.4658,1.474,1.474,1.474,0.0,0.0,0.0,1.4536,1.4414,0.0,1.4434,1.4204,1.4434,1.4672,1.4828,1.4923,1.446,1.3081,1.2824,1.1116,0.7223,0.6804,0.5667,0.3242,0.3052,0.3052,0.3052,0.3052,0.3052,0.3052,0.3052,0.3052,0.3052,0.3052,0.3052,0.3052,0.3052,0.3052,0.3052,0.3052,0.3052,0.3052,0.3052,0.3052,0.3052,0.3052,0.3052,0.3052,0.3052,0.3052,0.3052,1.496,1.4037,0.0,0.0,1.2811,1.2501,1.2501,1.2386,1.2345,1.2481,1.2379,1.2352,0.0,0.0,0.0,0.0,0.0,1.2427,1.2284,0.0,1.2054,1.2047,1.1775,1.1681,1.1823,1.1687,1.1619,1.1619,1.1619,0.0,0.0,0.0,0.0,0.0,1.2515,1.263,1.2528,1.2963,1.3159,1.3186,1.3329,1.3566,1.3851,1.4,1.4061,1.4089,1.4238,1.4299,1.4299,1.4299,1.4204,1.4102,1.4251,1.4197,1.4082,1.4075,1.4177,1.4258,1.4109,1.4278,1.4496,1.4496,1.4618,1.4733,1.4733,1.4733,1.474,1.474,1.474,1.474,1.474,1.4733,1.459,1.4156,1.4326,0.0,0.0,1.4122,1.4367,1.4509,1.4787,1.5025,1.5167,1.5181,1.3469,0.9311,0.8928,0.7226,0.3243,0.3052,0.3052,0.3052,0.3052,0.3052,0.3052,0.3052,0.3052,0.3052,0.3052,0.3052,0.3052,0.3052,0.3052,0.3052,0.3052,0.3052,0.3052,0.3052,0.3052,0.3052,0.3052,0.3052,0.3052,0.3052,0.3052,0.3052,0.0,0.0,0.0,0.0,1.4045,1.359,1.2965,1.2923,1.2909,1.2958,1.2923,1.2909,0.0,1.3219,1.2963,0.0,0.0,1.2698,1.2447,1.2379,0.0,1.2216,1.202,1.1979,1.2128,1.1986,1.1911,1.1911,1.1911,0.0,0.0,0.0,0.0,0.0,0.0,1.2814,1.3289,1.3549,1.3781,1.3978,1.414,1.3919,1.3858,1.4014,1.4075,1.4089,1.4245,1.4299,1.4299,1.4299,1.4265,1.4231,1.4285,1.4326,1.436,1.436,1.4468,1.4577,1.4529,1.4658,1.4814,1.4814,1.4923,1.5031,1.5031,1.5031,1.5031,1.5031,1.5031,1.5031,1.5031,1.4957,1.4841,1.4692,1.4577,1.4462,0.0,1.4292,1.4353,1.4496,1.478,1.4991,1.5038,1.5045,1.3385,0.9307,0.9069,0.7178,0.3242,0.3052,0.3052,0.3052,0.3052,0.3052,0.3052,0.3052,0.3052,0.3052,0.3052,0.3052,0.3052,0.3052,0.3052,0.3052,0.3052,0.3052,0.3052,0.3052,0.3052,0.3052,0.3052,0.3052,0.3052,0.3052,0.3052,0.3055,1.4968,0.0,0.0,0.0,1.4361,1.3898,1.3428,1.3223,1.3209,1.3267,1.3274,1.3457,1.3819,1.3504,1.344,1.344,1.3221,1.2874,1.2678,1.261,0.0,1.2528,1.2332,1.2291,1.244,1.2244,1.2142,1.2142,1.2088,1.2088,0.0,0.0,0.0,0.0,0.0,1.3225,1.4004,1.4164,1.4419,1.4725,1.4664,1.4529,1.4372,1.4527,1.4416,1.4444,1.4773,1.4829,1.4829,1.4829,1.4829,1.4836,1.4893,1.4792,1.4702,1.4757,1.4881,1.4821,1.4821,1.493,1.5045,1.5045,1.5113,1.5181,1.5181,1.5181,1.5181,1.5181,1.5181,1.5181,1.5181,1.5106,1.5031,1.4977,1.4808,1.4638,0.0,1.4387,1.4333,1.4428,1.4706,1.4909,1.4964,1.5018,1.3391,0.9307,0.9069,0.7178,0.3242,0.3052,0.3052,0.3052,0.3052,0.3052,0.3052,0.3052,0.3052,0.3052,0.3052,0.3052,0.3052,0.3052,0.3052,0.3052,0.3052,0.3052,0.3052,0.3052,0.3052,0.3052,0.3052,0.3052,0.3052,0.3052,0.3059,0.3071,0.0,0.0,1.4814,1.4515,1.4053,1.3744,1.3744,1.3603,1.3565,1.3729,1.3752,1.3974,1.4132,1.3822,1.3596,1.3596,1.329,1.3137,1.313,1.2834,0.0,1.3123,1.2684,1.2596,1.2745,1.2461,1.2311,0.0,0.0,0.0,0.0,0.0,0.0,0.0,1.329,1.3858,1.4504,1.4653,1.4914,1.5391,1.522,1.522,1.5235,1.5391,1.5285,1.4966,1.5469,1.5704,1.5704,1.5712,1.5719,1.5742,1.5906,1.5607,1.5284,1.5426,1.5222,1.4984,1.4984,1.5079,1.5181,1.5181,1.5181,1.5181,1.5181,1.5181,1.5181,1.5181,1.5181,1.5181,1.5181,1.5181,1.514,1.5004,1.4977,1.4869,1.4563,1.4407,1.4319,1.4319,1.4577,1.4808,1.4943,1.5092,1.3475,0.95,0.9311,0.7416,0.3432,0.3243,0.3243,0.3052,0.3052,0.3052,0.3052,0.3052,0.3052,0.3052,0.3052,0.3052,0.3052,0.3052,0.3052,0.3052,0.3052,0.3052,0.3052,0.3052,0.3052,0.3052,0.3052,0.3052,0.3052,0.3054,0.3073,0.3097,1.4968,1.4968,1.4968,1.4814,1.4814,1.4507,1.4207,1.4168,1.4199,1.4368,1.4392,1.461,1.5106,1.48,1.4738,1.4738,1.4364,1.4215,1.4106,1.4055,1.4055,1.4091,1.3895,1.3865,1.4026,1.3404,1.3085,1.3085,1.293,0.0,1.2909,0.0,0.0,0.0,1.3804,1.4388,1.5154,1.5201,1.5409,1.5724,1.5724,1.5554,1.5235,1.609,1.6152,1.5828,1.5645,1.5704,1.5727,1.5839,1.5883,1.5906,1.5709,1.5847,1.5957,1.5264,1.5753,1.6061,1.5313,1.5341,1.5563,1.5368,1.5181,1.5181,1.5181,1.5181,1.5181,1.5181,1.5181,1.5181,1.5181,1.5181,1.5167,1.5133,1.5038,1.4903,1.4706,1.4652,1.4624,1.4624,1.4794,1.4882,1.4808,1.5031,1.4228,1.1579,1.139,0.9685,0.5522,0.5332,0.4573,0.3052,0.3052,0.3052,0.3052,0.3052,0.3052,0.3052,0.3052,0.3052,0.3052,0.3052,0.3052,0.3052,0.3052,0.3052,0.3052,0.3052,0.3052,0.3052,0.3052,0.3052,0.3055,0.3078,0.3091,0.3104,1.4968,1.4968,1.4968,1.4968,1.5033,1.509,1.478,1.478,1.4844,1.5019,1.5106,1.5194,1.5618,1.5464,1.5241,1.5241,1.4833,1.4676,1.4586,1.4579,1.4579,1.4579,1.449,1.449,1.4579,1.4172,1.3851,1.3778,1.361,0.0,1.3436,0.0,0.0,0.0,1.4373,1.4808,1.5727,1.5957,1.6124,1.6244,1.6323,1.6183,0.0,1.6727,1.684,1.6753,1.6572,1.641,1.6549,1.6713,1.6767,1.6618,1.6613,1.6727,1.6642,1.6161,1.6427,1.6494,1.5931,1.5931,1.5751,1.5563,1.5368,1.5181,1.5181,1.5181,1.5181,1.5181,1.5181,1.5181,1.5181,1.5181,1.5181,1.5181,1.5065,1.4943,1.4855,1.478,1.474,1.474,1.4875,1.4909,1.4753,1.5011,1.4397,1.2262,1.2069,1.0751,0.7558,0.6427,0.5485,0.4353,0.3411,0.3039,0.3052,0.3039,0.3039,0.3052,0.3052,0.3052,0.3052,0.3052,0.3052,0.3052,0.3052,0.3052,0.3052,0.3052,0.3052,0.3052,0.3052,0.3052,0.3058,0.3101,0.3118,0.3125,1.4968,1.4984,1.5154,1.5308,1.5457,1.5747,1.592,1.5747,1.5491,1.5528,1.5835,1.6104,1.5804,1.5623,1.5546,1.5546,1.5051,1.4878,1.4878,1.4878,1.4878,1.4878,1.4878,1.4878,1.4878,1.4727,1.4562,1.4229,1.4238,0.0,0.0,1.4094,1.4335,1.468,1.4995,1.5416,1.6113,1.6609,1.6722,1.66,1.6803,1.6885,1.6909,1.7104,1.7283,1.7445,1.7616,1.7567,1.7445,1.7616,1.7681,1.7705,1.7708,1.758,1.7419,1.739,1.7055,1.6868,1.6681,1.6306,1.6126,1.5938,1.5563,1.5368,1.5368,1.5181,1.5181,1.5181,1.5181,1.5181,1.5181,1.5181,1.5181,1.5181,1.5079,1.4997,1.4997,1.4882,1.4801,1.4801,1.4916,0.0,1.4753,1.4991,1.4338,1.2331,1.232,1.1398,0.9356,0.7306,0.6377,0.6386,0.4138,0.3213,0.3426,0.3213,0.3024,0.3046,0.3051,0.3052,0.3052,0.3052,0.3052,0.3052,0.3052,0.3052,0.3052,0.3052,0.3242,0.3432,0.3243,0.3242,0.3441,0.312,0.3142,0.3148,1.4968,1.509,1.5655,1.7034,1.7511,1.8169,1.9758,1.869,1.7092,1.586,1.7029,1.7432,1.6147,1.5859,1.5883,1.5883,1.5883,1.5719,1.5719,1.5719,1.5719,1.5719,1.5719,1.5719,1.5719,1.5373,1.5038,1.4715,1.4684,0.0,0.0,1.5066,1.5385,1.5522,1.5554,1.5926,1.6276,1.6519,1.6609,1.6609,1.6933,1.7063,1.7104,1.7421,1.7567,1.7616,1.7802,1.7754,1.7624,1.7811,1.7867,1.79,1.7521,1.7763,1.7949,1.7048,1.7429,1.7803,1.6868,1.6868,1.7063,1.6681,1.6119,1.5751,1.5751,1.5556,1.5181,1.5181,1.5181,1.5181,1.5181,1.5181,1.5181,1.5181,1.516,1.5147,1.5147,1.512,1.5106,1.5106,1.5126,1.5038,1.4767,1.4903,1.4758,1.4238,1.4225,1.3352,1.1408,0.9546,0.8458,0.8531,0.4938,0.3791,0.5453,0.3981,0.3035,0.3016,0.304,0.3052,0.3052,0.3052,0.3052,0.3052,0.3052,0.3052,0.3052,0.3052,0.4002,0.5332,0.3813,0.4192,0.5344,0.3704,0.3142,0.315,1.8019,1.795,1.8329,1.9108,1.9437,1.9937,2.0845,2.1025,2.0442,1.8788,1.9282,1.917,1.7483,1.7337,1.7018,1.6048,1.6129,1.6178,1.6178,1.6267,1.6324,1.6324,1.6324,1.6324,1.6324,1.6068,1.5727,1.5464,1.5464,0.0,0.0,1.5409,1.5691,1.578,1.5967,1.6146,1.6324,1.66,1.6771,1.6877,1.7145,1.7307,1.7413,1.7681,1.7786,1.7811,1.7989,1.7989,1.7932,1.8022,1.8054,1.8062,1.7779,1.7989,1.8176,1.7616,1.7803,1.8176,1.7616,1.7242,1.7055,1.6681,1.6119,1.5563,1.5563,1.5368,1.5181,1.5181,1.5181,1.5181,1.5181,1.5181,1.5181,1.5181,1.5181,1.5181,1.5181,1.5181,1.5181,1.5181,1.5181,1.5099,1.4882,1.4855,1.4821,1.4746,1.474,1.4434,1.3462,1.1599,1.0502,1.0554,0.7736,0.6232,0.6046,0.6232,0.5103,0.3031,0.4183,0.4192,0.3052,0.4192,0.4573,0.4764,0.571,0.628,0.628,0.628,0.685,0.7606,0.666,0.685,0.7626,0.6612,0.6465,0.609,2.0678,2.0711,2.0922,2.129,2.149,2.1827,2.2202,2.352,2.3776,2.1556,2.1588,2.1124,1.9509,1.8894,1.8275,1.6808,1.6443,1.6365,1.6365,1.6503,1.6584,1.6584,1.6584,1.6584,1.6584,1.6584,1.6422,1.6105,1.6105,1.5934,1.5634,1.5764,1.5853,1.5902,1.6178,1.6533,1.7163,1.6951,1.7206,1.7941,1.8127,1.7936,1.7721,1.8267,1.8333,1.7989,1.8127,1.8176,1.8176,1.8176,1.8176,1.8176,1.8176,1.8176,1.8176,1.8176,1.8176,1.8176,1.8176,1.7616,1.7055,1.6868,1.6119,1.5556,1.5368,1.5181,1.5181,1.5181,1.5181,1.5181,1.5181,1.5181,1.5181,1.5181,1.5181,1.5181,1.5181,1.5181,1.5181,1.5181,1.5153,1.5092,1.4984,1.4801,1.4706,1.474,1.4713,1.4774,1.4964,1.3067,1.2135,1.2534,1.0292,0.845,0.737,0.8469,0.7541,0.4369,0.5895,0.5713,0.3813,0.59,0.647,0.628,0.8174,0.9122,0.9122,0.9122,0.9311,0.969,0.9311,0.9311,0.9711,0.9515,0.9387,0.9021,2.0678,2.0841,2.1534,2.3365,2.3788,2.4539,2.6431,2.6835,2.5501,2.1761,2.2716,2.3342,2.1534,2.007,1.9193,1.9025,1.7544,1.6552,1.6552,1.6568,1.6584,1.6584,1.6584,1.6584,1.6584,1.6584,1.6479,1.6276,1.6276,1.6178,1.5999,1.6016,1.6105,1.6251,1.6292,1.7578,1.9625,1.7763,1.8337,2.028,2.0477,1.9497,1.8092,2.0096,1.9622,1.8152,1.8168,1.8176,1.8176,1.8176,1.8176,1.8176,1.8176,1.8176,1.8176,1.8176,1.8176,1.8176,1.8176,1.8176,1.7989,1.7429,1.6868,1.6494,1.5938,1.5563,1.5181,1.5181,1.5181,1.5181,1.5181,1.5181,1.5181,1.5181,1.5181,1.5181,1.5181,1.5181,1.5181,1.5181,1.5072,1.4984,1.497,1.4706,1.459,1.4726,1.4611,1.4658,1.4957,1.2978,1.2598,1.4593,1.0855,0.9693,1.1273,0.9781,0.8884,0.8629,0.8708,0.7795,0.59,0.7985,0.7795,0.628,0.8174,0.9122,0.9122,0.9122,1.0257,1.1768,0.9879,1.0257,1.1794,1.0091,0.9387,0.9412,2.4616,2.4703,2.4963,2.5899,2.6027,2.6307,2.7241,2.7268,2.6685,2.5126,2.5526,2.5439,2.361,2.2876,2.1588,1.9418,1.8694,1.793,1.6747,1.6844,1.6901,1.6901,1.6901,1.6901,1.6901,1.6901,1.6812,1.6633,1.6527,1.6381,1.6202,1.7347,1.8597,1.9805,1.8882,1.9647,2.1618,2.1184,2.1472,2.2491,2.2573,2.2151,2.1558,2.1267,2.1296,2.1296,1.9099,1.8913,1.9834,1.8541,1.8176,1.8176,1.8176,1.8176,1.8176,1.8176,1.8176,1.8176,1.8176,1.7989,1.7616,1.7055,1.6681,1.6119,1.5556,1.5368,1.5181,1.5181,1.5181,1.5181,1.5181,1.5181,1.5181,1.5181,1.5181,1.5181,1.5181,1.5181,1.5181,1.5181,1.5133,1.5099,1.5099,1.4828,1.4713,1.4869,1.4652,1.4604,1.4821,1.4119,1.4119,1.4835,1.3499,1.2393,1.19,1.2443,1.1558,0.9069,1.0423,0.9879,0.7985,1.0068,1.1202,1.1579,1.2339,1.2716,1.2716,1.2716,1.3287,1.3852,1.3099,1.3281,1.3876,1.3298,1.3029,1.312,2.7268,2.7268,2.7295,2.7375,2.7388,2.7415,2.7509,2.7522,2.7522,2.7522,2.7522,2.6987,2.5728,2.5126,2.3816,2.1283,2.0255,1.9149,1.7784,1.7389,1.7112,1.7112,1.7112,1.7112,1.7112,1.7112,1.7222,1.7784,1.7596,1.7765,1.813,1.9452,2.0899,2.2316,2.1353,2.212,2.385,2.3654,2.4107,2.4699,2.4699,2.4448,2.3871,2.3127,2.3321,2.3687,2.0936,2.0751,2.1665,2.0381,1.9462,1.8913,1.8363,1.8176,1.8176,1.8176,1.8176,1.8176,1.8176,1.7989,1.7429,1.7055,1.6494,1.5931,1.5556,1.5368,1.5181,1.5181,1.5181,1.5181,1.5181,1.5181,1.5181,1.5181,1.5181,1.5181,1.5181,1.5181,1.5181,1.5181,1.5147,1.514,1.5181,1.4916,1.4801,1.4957,1.4726,1.4645,1.4801,1.4869,1.4875,1.4808,1.5011,1.4319,1.2911,1.4351,1.3664,1.0824,1.2334,1.1956,1.0068,1.1579,1.3281,1.5181,1.5181,1.5181,1.5181,1.5181,1.5181,1.5181,1.5181,1.5181,1.5201,1.5357,1.5506,1.5662,2.7268,2.7268,2.7362,2.7642,2.7696,2.7789,2.8083,2.8136,2.8136,2.8136,2.8136,2.8016,2.7722,2.6242,2.5373,2.5373,2.1932,1.9873,1.9864,1.8147,1.7112,1.7112,1.7112,1.7112,1.7112,1.7112,1.7972,1.9873,1.9666,2.0587,2.2277,2.2436,2.2566,2.2815,2.3054,2.4481,2.6568,2.4587,2.5094,2.6966,2.6966,2.5696,2.4237,2.6241,2.5696,2.4054,2.3871,2.3871,2.3871,2.3871,2.2586,2.0751,1.8727,1.8176,1.8176,1.8176,1.8176,1.8176,1.8176,1.8176,1.7989,1.7624,1.7055,1.6494,1.5938,1.5556,1.5181,1.5181,1.5181,1.5181,1.5181,1.5181,1.5181,1.5181,1.5181,1.5181,1.5181,1.5181,1.5181,1.5181,1.5059,1.5031,1.5167,1.4916,1.4801,1.4957,1.4828,1.4801,1.4964,1.4828,1.4814,1.4964,1.497,1.497,1.497,1.5113,1.5181,1.5181,1.5181,1.404,1.2145,1.2145,1.3281,1.5181,1.5181,1.5181,1.5181,1.5181,1.5181,1.5181,1.5181,1.5181,1.5201,1.5357,1.5506,1.5662,2.7522,2.7562,2.7655,2.7949,2.8003,2.803,2.8123,2.8136,2.8136,2.8136,2.8136,2.811,2.8016,2.7564,2.6758,2.5556,2.4349,2.3137,2.176,2.0047,1.9012,1.9012,1.7797,1.763,1.9012,1.9012,1.9873,2.176,2.1542,2.2544,2.4585,2.3209,2.4293,2.7008,2.6042,2.679,2.8587,2.8054,2.836,2.8989,2.8989,2.8629,2.7895,2.7341,2.7341,2.7715,2.4967,2.4967,2.5878,2.4419,2.3504,2.2954,2.2402,2.0381,1.8176,1.8176,1.8176,1.8176,1.8176,1.8176,1.7989,1.7624,1.7055,1.6494,1.5938,1.5563,1.5181,1.5181,1.5181,1.5181,1.5181,1.5181,1.5181,1.5181,1.5181,1.5181,1.5181,1.5099,1.5038,1.5038,1.4903,1.4875,1.5025,1.4855,1.476,1.4808,1.4672,1.4652,1.4808,1.4869,1.4869,1.4814,1.5011,1.5065,1.497,1.5113,1.5181,1.5181,1.5181,1.4805,1.4234,1.4234,1.461,1.5181,1.5181,1.5181,1.5181,1.5181,1.5181,1.5181,1.5181,1.5181,1.5187,1.5235,1.535,1.5506,2.7802,2.7869,2.7923,2.811,2.8136,2.8136,2.8136,2.8136,2.8136,2.8136,2.8136,2.8136,2.8136,2.8136,2.7786,2.6588,2.5896,2.4861,2.3652,2.1932,2.0905,2.0905,1.9873,1.97,2.0905,2.0905,2.177,2.3652,2.4291,2.5433,2.6917,2.5796,2.6723,2.9219,2.8245,2.8552,2.9659,2.9847,2.9913,2.9913,2.9913,2.9913,2.9734,2.8629,2.8809,2.9554,2.716,2.6979,2.7895,2.6616,2.5696,2.515,2.515,2.2954,2.0196,1.9462,1.8727,1.8176,1.8176,1.8176,1.8176,1.7803,1.7242,1.6868,1.6126,1.5563,1.5181,1.5181,1.5181,1.5181,1.5181,1.5181,1.5181,1.5181,1.5181,1.516,1.5113,1.5025,1.497,1.497,1.4889,1.4882,1.5038,1.4964,1.4909,1.4909,1.4814,1.4808,1.4903,1.4896,1.4889,1.4909,1.5086,1.514,1.5052,1.514,1.5181,1.5181,1.5181,1.5181,1.5181,1.5181,1.5181,1.5181,1.5181,1.5181,1.5181,1.5181,1.5181,1.5181,1.5181,1.5181,1.5181,1.5181,1.5276,1.5425,2.8056,2.811,2.8123,2.8136,2.8136,2.8136,2.8136,2.8136,2.8136,2.8136,2.8136,2.8136,2.8136,2.8136,2.8136,2.8136,2.6588,2.5543,2.5543,2.3824,2.2794,2.2794,2.2622,2.2622,2.2794,2.2815,2.3686,2.5604,2.7615,2.8791,2.9072,2.9352,2.9499,2.9526,2.9793,2.9913,2.9913,2.9913,2.9913,2.9913,2.9913,2.9913,2.9913,2.9913,2.9913,2.9913,2.9913,2.9913,2.9913,2.9913,2.8629,2.716,2.716,2.5878,2.3871,2.1665,1.9834,1.8354,1.8176,1.8176,1.8176,1.8176,1.7803,1.7063,1.6126,1.5563,1.5181,1.5181,1.5181,1.5181,1.5181,1.5181,1.5181,1.5181,1.5181,1.5133,1.4991,1.497,1.497,1.4957,1.4957,1.5011,1.5153,1.5167,1.5167,1.5167,1.5167,1.5167,1.5167,1.4909,1.4889,1.5174,1.5181,1.5181,1.5181,1.5181,1.5181,1.5181,1.5181,1.5181,1.5181,1.5181,1.5181,1.5181,1.5181,1.5181,1.5181,1.5181,1.5181,1.5181,1.5181,1.5181,1.5181,1.5181,1.5269,1.5398,2.7749,2.7802,2.7883,2.8096,2.8136,2.8136,2.8136,2.8136,2.8136,2.8136,2.8136,2.8136,2.8136,2.8136,2.8136,2.8136,2.7799,2.7617,2.7617,2.5726,2.4691,2.4691,2.3309,2.3309,2.4691,2.4879,2.613,2.8126,2.8725,2.9085,2.9379,2.9446,2.9606,2.982,2.9887,2.9913,2.9913,2.9913,2.9913,2.9913,2.9913,2.9913,2.9913,2.9913,2.9913,2.9913,2.9913,2.9913,2.9913,2.9913,2.9541,2.9182,2.9182,2.7895,2.5696,2.2034,2.0751,2.001,1.8541,1.8176,1.8176,1.8176,1.7616,1.6681,1.6126,1.5563,1.5181,1.5181,1.5181,1.5181,1.5181,1.5181,1.5181,1.5181,1.5181,1.5133,1.4991,1.497,1.493,1.4808,1.4794,1.4855,1.5004,1.5018,1.5018,1.5018,1.5018,1.5018,1.5018,1.4957,1.4997,1.5174,1.5181,1.5181,1.5181,1.5181,1.5181,1.5181,1.5181,1.5181,1.5181,1.5181,1.5181,1.5181,1.5181,1.5181,1.5181,1.5181,1.5181,1.5181,1.5181,1.5181,1.5181,1.5181,1.5208,1.5255,2.7843,2.7896,2.7949,2.811,2.8136,2.8136,2.8136,2.827,2.835,2.835,2.847,2.8551,2.8551,2.8551,2.8551,2.8551,2.8297,2.8136,2.8136,2.7279,2.6758,2.6758,2.5848,2.575,2.679,2.7056,2.7869,2.9245,2.9245,2.9325,2.9486,2.9486,2.9566,2.9713,2.9713,2.9793,2.9913,2.9913,2.9913,2.9913,2.9913,2.9913,2.9913,2.9913,2.9913,2.9913,2.9913,2.9913,2.9913,2.9913,2.9913,2.9913,2.9913,2.9182,2.7702,2.4774,2.2586,2.0936,1.9834,1.8913,1.8176,1.8176,1.7616,1.6868,1.6306,1.5931,1.5368,1.5181,1.5181,1.5181,1.5181,1.5181,1.5181,1.5181,1.5181,1.5133,1.4991,1.497,1.4936,1.4855,1.4841,1.4903,1.5052,1.5065,1.5065,1.5065,1.5065,1.5065,1.5065,1.5065,1.5106,1.5181,1.5181,1.5181,1.5181,1.5181,1.5181,1.5181,1.5181,1.5181,1.5181,1.5181,1.5181,1.5181,1.5181,1.5181,1.5181,1.5181,1.5181,1.5181,1.5181,1.5181,1.5181,1.5181,1.5181,1.5194,2.8096,2.8177,2.8217,2.8217,2.8243,2.8283,2.8283,2.847,2.8604,2.8604,2.8778,2.8898,2.8898,2.8898,2.8898,2.8898,2.843,2.8177,2.827,2.8283,2.8283,2.8283,2.8484,2.8604,2.8604,2.8845,2.9125,2.9419,2.9419,2.9419,2.9419,2.9459,2.9486,2.9486,2.9526,2.9686,2.9913,2.9913,2.9913,2.9913,2.9913,2.9913,2.9913,2.9913,2.9913,2.9913,2.9913,2.9913,2.9913,2.9913,2.9913,2.9913,2.9913,2.9913,2.9554,2.7895,2.4774,2.185,2.1665,2.0196,1.8541,1.8363,1.7803,1.725,1.6868,1.6306,1.5751,1.5368,1.5181,1.5181,1.5181,1.5181,1.5181,1.5181,1.5181,1.5133,1.4991,1.4991,1.4997,1.497,1.4991,1.5052,1.5167,1.5181,1.5181,1.5181,1.5181,1.5181,1.5181,1.5181,1.5181,1.5181,1.5181,1.5181,1.5181,1.5181,1.5181,1.5181,1.5181,1.5181,1.5181,1.5181,1.5181,1.5181,1.5181,1.5181,1.5181,1.5181,1.5181,1.5181,1.5181,1.5181,1.5181,1.5181,1.5181,1.5181,2.8136,2.835,2.8537,2.8537,2.8738,2.8898,2.8898,2.8738,2.8604,2.8604,2.8417,2.8283,2.8283,2.8283,2.8283,2.8283,2.819,2.8364,2.8871,2.8898,2.8898,2.8898,2.8711,2.8604,2.8604,2.8644,2.8818,2.9112,2.9112,2.9112,2.9112,2.9366,2.9486,2.9499,2.974,2.9873,2.9913,2.9913,2.9913,2.9913,2.9913,2.9913,2.9913,2.9913,2.9913,2.9913,2.9913,2.9913,2.9913,2.9913,2.9913,2.9913,2.9913,2.9913,2.9913,2.9541,2.7895,2.5696,2.4054,2.2218,2.0196,1.8541,1.7803,1.725,1.6868,1.6306,1.5751,1.5368,1.5181,1.5181,1.5181,1.5181,1.5181,1.5181,1.5181,1.5133,1.4991,1.5072,1.5106,1.4984,1.5079,1.516,1.5181,1.5181,1.5181,1.5181,1.5181,1.5181,1.5181,1.5181,1.5181,1.5181,1.5181,1.5181,1.5181,1.5181,1.5181,1.5181,1.5181,1.5181,1.5181,1.5181,1.5181,1.5181,1.5181,1.5181,1.5181,1.5181,1.5181,1.5181,1.5181,1.5181,1.5181,1.5181,1.5181,1.5181,2.8177,2.8257,2.835,2.835,2.847,2.8551,2.8551,2.8591,2.8604,2.8604,2.8617,2.8631,2.8631,2.8631,2.8631,2.8631,2.8631,2.8738,2.9018,2.8738,2.8551,2.8551,2.8591,2.8684,2.8831,2.8845,2.8911,2.9045,2.9205,2.9192,2.9045,2.9339,2.9486,2.9486,2.9619,2.9766,2.9913,2.9913,2.9913,2.9913,2.9913,2.9913,2.9913,2.9913,2.9913,2.9913,2.9913,2.9913,2.9913,2.9913,2.9913,2.9913,2.9913,2.9913,2.9913,2.9913,2.8449,2.6423,2.3321,2.185,2.0566,1.8727,1.7989,1.7616,1.7242,1.6681,1.6119,1.5744,1.5368,1.5181,1.5181,1.5181,1.5181,1.5181,1.5181,1.516,1.5092,1.514,1.516,1.5092,1.514,1.5181,1.5181,1.5181,1.5181,1.5181,1.5181,1.5181,1.5181,1.5181,1.5181,1.5181,1.5181,1.5181,1.5181,1.5181,1.5181,1.5181,1.5181,1.5181,1.5181,1.5181,1.5181,1.5181,1.5181,1.5181,1.5181,1.5181,1.5181,1.5181,1.5181,1.5181,1.5181,1.5181,1.5181,1.5181,2.819,2.8203,2.8243,2.8243,2.831,2.835,2.835,2.8497,2.8604,2.8604,2.8738,2.8831,2.8831,2.8831,2.8831,2.8831,2.8831,2.8831,2.8831,2.8404,2.8203,2.8337,2.8511,2.8671,2.8831,2.8898,2.8938,2.8938,2.9232,2.9259,2.9045,2.9339,2.9486,2.9486,2.9553,2.9713,2.9913,2.9913,2.9913,2.9913,2.9913,2.9913,2.9913,2.9913,2.9913,2.9913,2.9913,2.9913,2.9913,2.9913,2.9913,2.9913,2.9913,2.9913,2.9913,2.9913,2.8449,2.6241,2.277,2.1481,2.0566,1.8727,1.8176,1.7989,1.7437,1.7055,1.6681,1.6126,1.5744,1.5368,1.5368,1.5181,1.5181,1.5181,1.5181,1.5181,1.5181,1.5181,1.5181,1.5181,1.5181,1.5181,1.5181,1.5181,1.5181,1.5181,1.5181,1.5181,1.5181,1.5181,1.5181,1.5181,1.5181,1.5181,1.5181,1.5181,1.5181,1.5181,1.5181,1.5181,1.5181,1.5181,1.5181,1.5181,1.5181,1.5181,1.5181,1.5181,1.5181,1.5181,1.5181,1.5181,1.5181,1.5181,1.5181,1.5181,2.815,2.8377,2.8577,2.8577,2.8791,2.8978,2.8978,2.8764,2.8604,2.8604,2.8377,2.8203,2.8203,2.8203,2.8203,2.8203,2.8203,2.8203,2.8203,2.8163,2.839,2.8951,2.8738,2.8484,2.8217,2.8497,2.8644,2.8644,2.8925,2.9058,2.9045,2.9339,2.9486,2.9499,2.9766,2.99,2.9913,2.9913,2.9913,2.9913,2.9913,2.9913,2.9913,2.9913,2.9913,2.9913,2.9913,2.9913,2.9913,2.9913,2.9913,2.9913,2.9913,2.9913,2.9913,2.9913,2.8449,2.6604,2.4419,2.2402,2.0566,1.8727,1.8176,1.7989,1.7437,1.7437,1.7242,1.6681,1.6306,1.5938,1.5938,1.5563,1.5181,1.5181,1.5181,1.5181,1.5181,1.5181,1.5181,1.5181,1.5181,1.5181,1.5181,1.5181,1.5181,1.5181,1.5181,1.5181,1.5181,1.5181,1.5181,1.5181,1.5181,1.5181,1.5181,1.5181,1.5181,1.5181,1.5181,1.5181,1.5181,1.5181,1.5181,1.5181,1.5181,1.5181,1.5181,1.5181,1.5181,1.5181,1.5181,1.5181,1.5181,1.5181,1.5181,1.5181,2.8177,2.8243,2.8323,2.8323,2.8417,2.8484,2.8484,2.839,2.8323,2.8323,2.839,2.843,2.843,2.8591,2.8698,2.8698,2.8698,2.8698,2.8698,2.8698,2.8724,2.8764,2.8671,2.8631,2.8698,2.8818,2.8871,2.8871,2.9165,2.9312,2.9325,2.9619,2.9753,2.9753,2.986,2.9913,2.9913,2.9913,2.9913,2.9913,2.9913,2.9913,2.9913,2.9913,2.9913,2.9913,2.9913,2.9913,2.9913,2.9913,2.9913,2.9913,2.9913,2.9913,2.9913,2.9913,2.7715,2.4967,2.4237,2.2586,2.0566,1.8727,1.8176,1.8176,1.7989,1.7616,1.7437,1.7242,1.6681,1.6306,1.5938,1.5751,1.5563,1.5181,1.5181,1.5181,1.5181,1.5181,1.5181,1.5181,1.5181,1.5181,1.5181,1.5181,1.5181,1.5181,1.5181,1.5181,1.5181,1.5181,1.5181,1.5181,1.5181,1.5181,1.5181,1.5181,1.5181,1.5181,1.5181,1.5181,1.5181,1.5181,1.5181,1.5181,1.5181,1.5181,1.5181,1.5181,1.5181,1.5181,1.5181,1.5181,1.5181,1.5181,1.5181,1.5181,2.819,2.8136,2.8136,2.8136,2.8136,2.8136,2.8136,2.823,2.8283,2.8283,2.8551,2.8751,2.8751,2.8925,2.9045,2.9045,2.9045,2.9045,2.9045,2.9045,2.8951,2.8751,2.8751,2.8831,2.9032,2.9125,2.9179,2.9179,2.9472,2.9619,2.9619,2.982,2.9913,2.9913,2.9913,2.9913,2.9913,2.9913,2.9913,2.9913,2.9913,2.9913,2.9913,2.9913,2.9913,2.9913,2.9913,2.9913,2.9913,2.9913,2.9913,2.9913,2.9913,2.9913,2.9913,2.9913,2.716,2.4054,2.4054,2.2218,1.9834,1.8541,1.8176,1.8176,1.8176,1.7989,1.7616,1.7616,1.7242,1.6681,1.6314,1.5938,1.5751,1.5368,1.5181,1.5181,1.5181,1.5181,1.5181,1.5181,1.5181,1.5181,1.5181,1.5181,1.5181,1.5181,1.5181,1.5181,1.5181,1.5181,1.5181,1.5181,1.5181,1.5181,1.5181,1.5181,1.5181,1.5181,1.5181,1.5181,1.5181,1.5181,1.5181,1.5181,1.5181,1.5181,1.5181,1.5181,1.5181,1.5181,1.5181,1.5181,1.5181,1.5181,1.5181,1.5181,2.8136,2.8136,2.8136,2.8136,2.815,2.815,2.815,2.8417,2.8604,2.8604,2.8858,2.9045,2.9045,2.9045,2.9045,2.9045,2.9045,2.9045,2.9045,2.9045,2.9045,2.9045,2.9045,2.9045,2.9045,2.9339,2.9486,2.9486,2.978,2.9913,2.9913,2.9913,2.9913,2.9913,2.9913,2.9913,2.9913,2.9913,2.9913,2.9913,2.9913,2.9913,2.9913,2.9913,2.9913,2.9913,2.9913,2.9913,2.9913,2.9913,2.9913,2.9913,2.9913,2.9913,2.9913,2.9913,2.716,2.4054,2.4054,2.1121,1.8176,1.8176,1.8176,1.8176,1.8176,1.8176,1.8176,1.8176,1.7803,1.7242,1.6868,1.6306,1.5751,1.5368,1.5181,1.5181,1.5181,1.5181,1.5181,1.5181,1.5181,1.5181,1.5181,1.5181,1.5181,1.5181,1.5181,1.5181,1.5181,1.5181,1.5181,1.5181,1.5181,1.5181,1.5181,1.5181,1.5181,1.5181,1.5181,1.5181,1.5181,1.5181,1.5181,1.5181,1.5181,1.5181,1.5181,1.5181,1.5181,1.5181,1.5181,1.5181,1.5181,1.5181,1.5181,1.5181,2.8136,2.8136,2.8136,2.8136,2.8323,2.847,2.847,2.8724,2.8911,2.8911,2.9165,2.9352,2.9352,2.9539,2.9659,2.9659,2.9659,2.9659,2.9659,2.9659,2.9659,2.9659,2.9459,2.9446,2.9646,2.974,2.978,2.978,2.9873,2.9913,2.9913,2.9913,2.9913,2.9913,2.9913,2.9913,2.9913,2.9913,2.9913,2.9913,2.9913,2.9913,2.9913,2.9913,2.9913,2.9913,2.9913,2.9913,2.9913,2.9913,2.9913,2.9913,2.9913,2.9913,2.9913,2.9913,2.8076,2.5878,2.4419,2.2218,1.9834,1.8541,1.8176,1.8176,1.8176,1.8176,1.8176,1.8176,1.7989,1.7803,1.7242,1.6868,1.6306,1.5751,1.5368,1.5181,1.5181,1.5181,1.5181,1.5181,1.5181,1.5181,1.5181,1.5181,1.5181,1.5181,1.5181,1.5181,1.5181,1.5181,1.5181,1.5181,1.5181,1.5181,1.5181,1.5181,1.5181,1.5181,1.5181,1.5181,1.5181,1.5181,1.5181,1.5181,1.5181,1.5181,1.5181,1.5181,1.5181,1.5181,1.5181,1.5181,1.5181,1.5181,1.5181,1.5181,2.8136,2.8136,2.8177,2.831,2.8484,2.8644,2.8764,2.9032,2.9219,2.9219,2.9472,2.9659,2.9659,2.9806,2.9913,2.9913,2.9913,2.9913,2.9913,2.9913,2.9913,2.9913,2.9753,2.974,2.9913,2.9913,2.9913,2.9913,2.9913,2.9913,2.9913,2.9913,2.9913,2.9913,2.9913,2.9913,2.9913,2.9913,2.9913,2.9913,2.9913,2.9913,2.9913,2.9913,2.9913,2.9913,2.9913,2.9913,2.9913,2.9913,2.9913,2.9913,2.9913,2.9913,2.9913,2.9913,2.8449,2.6785,2.5514,2.3137,2.0751,1.9648,1.8727,1.8176,1.8176,1.8176,1.8176,1.8176,1.8176,1.7989,1.7437,1.7242,1.6868,1.6306,1.5931,1.5744,1.5556,1.5556,1.5368,1.5181,1.5181,1.5181,1.5181,1.5181,1.5181,1.5181,1.5181,1.5181,1.5181,1.5181,1.5181,1.5181,1.5181,1.5181,1.5181,1.5181,1.5181,1.5181,1.5181,1.5181,1.5181,1.5181,1.5181,1.5181,1.5181,1.5181,1.5181,1.5181,1.5181,1.5181,1.5181,1.5181,1.5181,1.5181,1.5181,1.5181,2.8136,2.8163,2.827,2.8564,2.8644,2.8778,2.9045,2.9325,2.9526,2.9526,2.9753,2.9913,2.9913,2.9913,2.9913,2.9913,2.9913,2.9913,2.9913,2.9913,2.9913,2.9913,2.9913,2.9913,2.9913,2.9913,2.9913,2.9913,2.9913,2.9913,2.9913,2.9913,2.9913,2.9913,2.9913,2.9913,2.9913,2.9913,2.9913,2.9913,2.9913,2.9913,2.9913,2.9913,2.9913,2.9913,2.9913,2.9913,2.9913,2.9913,2.9913,2.9913,2.9913,2.9913,2.9913,2.9913,2.8629,2.716,2.6979,2.4226,2.1296,2.1121,1.9648,1.8176,1.8176,1.8176,1.8176,1.8176,1.8176,1.7989,1.7616,1.7437,1.7242,1.6868,1.6681,1.6494,1.6126,1.5938,1.5751,1.5368,1.5181,1.5181,1.5181,1.5181,1.5181,1.5181,1.5181,1.5181,1.5181,1.5181,1.5181,1.5181,1.5181,1.5181,1.5181,1.5181,1.5181,1.5181,1.5181,1.5181,1.5181,1.5181,1.5181,1.5181,1.5181,1.5181,1.5181,1.5181,1.5181,1.5181,1.5181,1.5181,1.5181,1.5181,1.5181,1.5181,2.8136,2.8337,2.8524,2.8591,2.8991,2.9312,2.9379,2.9633,2.982,2.982,2.9873,2.9913,2.9913,2.9913,2.9913,2.9913,2.9913,2.9913,2.9913,2.9913,2.9913,2.9913,2.9913,2.9913,2.9913,2.9913,2.9913,2.9913,2.9913,2.9913,2.9913,2.9913,2.9913,2.9913,2.9913,2.9913,2.9913,2.9913,2.9913,2.9913,2.9913,2.9913,2.9913,2.9913,2.9913,2.9913,2.9913,2.9913,2.9913,2.9913,2.9913,2.9913,2.9913,2.9913,2.9913,2.9913,2.9554,2.8989,2.7341,2.515,2.2954,2.1481,1.9648,1.8176,1.8176,1.8176,1.8176,1.8176,1.8176,1.8176,1.7989,1.7616,1.7437,1.7242,1.6868,1.6681,1.6494,1.6119,1.5938,1.5751,1.5368,1.5181,1.5181,1.5181,1.5181,1.5181,1.5181,1.5181,1.5181,1.5181,1.5181,1.5181,1.5181,1.5181,1.5181,1.5181,1.5181,1.5181,1.5181,1.5181,1.5181,1.5181,1.5181,1.5181,1.5181,1.5181,1.5181,1.5181,1.5181,1.5181,1.5181,1.5181,1.5181,1.5181,1.5181,1.5181,2.8337,2.8497,2.8698,2.8978,2.9285,2.9526,2.9673,2.982,2.9913,2.9913,2.9913,2.9913,2.9913,2.9913,2.9913,2.9913,2.9913,2.9913,2.9913,2.9913,2.9913,2.9913,2.9913,2.9913,2.9913,2.9913,2.9913,2.9913,2.9913,2.9913,2.9913,2.9913,2.9913,2.9913,2.9913,2.9913,2.9913,2.9913,2.9913,2.9913,2.9913,2.9913,2.9913,2.9913,2.9913,2.9913,2.9913,2.9913,2.9913,2.9913,2.9913,2.9913,2.9913,2.9913,2.9913,2.9913,2.9913,2.9734,2.8629,2.6253,2.3687,2.277,2.0381,1.8176,1.8176,1.8176,1.8176,1.8176,1.8176,1.8176,1.8176,1.7989,1.7803,1.7803,1.7616,1.7242,1.7055,1.6868,1.6501,1.6306,1.5744,1.5368,1.5181,1.5368,1.5375,1.5181,1.5181,1.5181,1.5181,1.5181,1.5181,1.5181,1.5181,1.5181,1.5181,1.5181,1.5181,1.5181,1.5181,1.5181,1.5181,1.5181,1.5181,1.5181,1.5181,1.5181,1.5181,1.5181,1.5181,1.5181,1.5181,1.5181,1.5181,1.5181,1.5181,1.5181,2.8564,2.8684,2.8911,2.9406,2.9526,2.9633,2.9887,2.9913,2.9913,2.9913,2.9913,2.9913,2.9913,2.9913,2.9913,2.9913,2.9913,2.9913,2.9913,2.9913,2.9913,2.9913,2.9913,2.9913,2.9913,2.9913,2.9913,2.9913,2.9913,2.9913,2.9913,2.9913,2.9913,2.9913,2.9913,2.9913,2.9913,2.9913,2.9913,2.9913,2.9913,2.9913,2.9913,2.9913,2.9913,2.9913,2.9913,2.9913,2.9913,2.9913,2.9913,2.9913,2.9913,2.9913,2.9913,2.9913,2.9913,2.9913,2.9913,2.7341,2.4419,2.4054,2.1306,1.8541,1.8363,1.8176,1.8176,1.8176,1.8176,1.8176,1.8176,1.8176,1.8176,1.8176,1.8176,1.7989,1.7616,1.7437,1.7242,1.6868,1.6306,1.5938,1.5375,1.5751,1.5751,1.5181,1.5181,1.5181,1.5181,1.5181,1.5181,1.5181,1.5181,1.5181,1.5181,1.5181,1.5181,1.5181,1.5181,1.5181,1.5181,1.5181,1.5181,1.5181,1.5181,1.5181,1.5181,1.5181,1.5181,1.5181,1.5181,1.5181,1.5181,1.5181,1.5181,1.5181,2.8604,2.9018,2.9392,2.9472,2.9686,2.9873,2.9913,2.9913,2.9913,2.9913,2.9913,2.9913,2.9913,2.9913,2.9913,2.9913,2.9913,2.9913,2.9913,2.9913,2.9913,2.9913,2.9913,2.9913,2.9913,2.9913,2.9913,2.9913,2.9913,2.9913,2.9913,2.9913,2.9913,2.9913,2.9913,2.9913,2.9913,2.9913,2.9913,2.9913,2.9913,2.9913,2.9913,2.9913,2.9913,2.9913,2.9913,2.9913,2.9913,2.9913,2.9913,2.9913,2.9913,2.9913,2.9913,2.9913,2.9913,2.9913,2.9913,2.8256,2.6241,2.4419,2.2402,2.0196,1.8541,1.8176,1.8176,1.8176,1.8176,1.8176,1.8176,1.8176,1.8176,1.8176,1.8176,1.8176,1.8176,1.7616,1.7437,1.7242,1.6868,1.6306,1.5938,1.5938,1.5751,1.5181,1.5181,1.5181,1.5181,1.5181,1.5181,1.5181,1.5181,1.5181,1.5181,1.5181,1.5181,1.5181,1.5181,1.5181,1.5181,1.5181,1.5181,1.5181,1.5181,1.5181,1.5181,1.5181,1.5181,1.5181,1.5181,1.5181,1.5181,1.5181,1.5181,1.5181,2.9058,2.9299,2.9539,2.97,2.9833,2.9913,2.9913,2.9913,2.9913,2.9913,2.9913,2.9913,2.9913,2.9913,2.9913,2.9913,2.9913,2.9913,2.9913,2.9913,2.9913,2.9913,2.9913,2.9913,2.9913,2.9913,2.9913,2.9913,2.9913,2.9913,2.9913,2.9913,2.9913,2.9913,2.9913,2.9913,2.9913,2.9913,2.9913,2.9913,2.9913,2.9913,2.9913,2.9913,2.9913,2.9913,2.9913,2.9913,2.9913,2.9913,2.9913,2.9913,2.9913,2.9913,2.9913,2.9913,2.9913,2.9913,2.9913,2.8436,2.6604,2.4419,2.2586,2.0566,1.8727,1.8176,1.8176,1.8176,1.8176,1.8176,1.8176,1.8176,1.8176,1.8176,1.8176,1.8176,1.8176,1.7989,1.7803,1.7437,1.7429,1.7242,1.6494,1.6306,1.6119,1.5563,1.5368,1.5181,1.5181,1.5181,1.5181,1.5181,1.5181,1.5181,1.5181,1.5181,1.5181,1.5181,1.5181,1.5181,1.5181,1.5181,1.5181,1.5181,1.5181,1.5181,1.5181,1.5181,1.5181,1.5181,1.5181,1.5181,1.5181,1.5181,1.5181,1.5181]}]]